     2              OBSERVATION DATA    GPS                 RINEX VERSION / TYPE
teqc 1997Jun30 19970702                                     PGM / RUN BY / DATE
                                                            COMMENT
BIT 2 OF LLI FLAGS DATA COLLECTED UNDER A-S CONDITION       COMMENT
BIT 2 OF LLI FLAGS DATA COLLECTED UNDER A-S CONDITION       COMMENT
Original Marker Name: HMCP                                  COMMENT
Campaign Name: HMC San Gabriel Valley 1993-1996             COMMENT
4-Character Station Name: HMCP                              COMMENT
6-Character Antenna Code: DMRCHT                            COMMENT
Vertical Measurement Point: BPA                             COMMENT
Vertical Offset to Rinex Ref. Point: 0.0000                 COMMENT
Radial Measurement Point: RRP                               COMMENT
Radial Offset to Rinex Ref. Point: 0.0000                   COMMENT
Antenna Height from Field Measurement: 0.0000 m             COMMENT
Additional Antenna Identification Info.:                    COMMENT
Turborogue and Ashtech Choke Ring                           COMMENT
Fixed antenna mounting on roof of Parsons                   COMMENT
building, HMC.                                              COMMENT
Original XYZ: -2458598.8888 -4680492.8740 3556451.8748      COMMENT
New XYZ position is based on association with SCEC monument COMMENT
E1D0R2C7+0011. Position of that monument is believed to be  COMMENT
valid to within 1 m horizontally; vertical accuracy         COMMENT
should be no worse than 3-times this value.                 COMMENT
                                                            COMMENT
Revised Rinex header created by UCSD GPS archive for        COMMENT
GSAC on 13-Apr-1999 (1999:103) 18:37:39 GMT                 COMMENT
For assistance contact dagnew@ucsd.edu or hjohnson@ucsd.edu COMMENT
                                                            COMMENT
HARVEY MUDD COLLEGE PHYSICS                                 MARKER NAME
GAL HARVEY MUDD COLLEGE                                     OBSERVER / AGENCY
T-262/263 TURBOROGUE SNR-8000 95.03.08                      REC # / TYPE / VERS
260/329 DORNE-MARGOL. TYPE T                                ANT # / TYPE
 -2458598.0000 -4680494.0000  3556451.0000                  APPROX POSITION XYZ
        0.0000        0.0000        0.0000                  ANTENNA: DELTA H/E/N
     1     1     0                                          WAVELENGTH FACT L1/2
     5    L1    L2    C1    P2    P1                        # / TYPES OF OBSERV
     0                                                      INTERVAL
  1995     4    12     0     0    0.000000                  TIME OF FIRST OBS
  1995     4    12    23    59   30.000000                  TIME OF LAST OBS
     0                                                      # OF SATELLITES
                                                            END OF HEADER
 95  4 12  0  0  0.0000000  0  6G20G 4G 5G12G24G 7
  -3746175.03344  -2919094.38544  24267213.2164
 -15463461.20544 -12049429.52444  21107854.6944   21107855.6134
 -20712544.41144 -16139631.16344  21317574.9594   21317576.4214
 -18953501.593 4 -14768949.136 4  21503963.432    21503960.389
 -20693754.75344 -16124984.32744  20234738.8124   20234740.5654
  -7431735.81244  -5790945.58944  23701804.1394   23701807.3064
 95  4 12  0  0 30.0000000  0  6G20G 4G 5G12G24G 7
  -3845164.65844                  24248375.0374
 -15410333.93344 -12008031.63744  21117964.4524   21117965.1514
 -20777549.69644 -16190284.61244  21305204.9254   21305206.5264
 -18886379.217 4 -14716646.001 4  21516736.457    21516733.286
 -20713684.94444 -16140514.32144  20230945.9934   20230948.1714
  -7360262.71344  -5735252.31744  23715404.8234   23715407.9564
 95  4 12  0  1  0.0000000  0  7G 6G20G 4G 5G12G24G 7
        -0.02154                  25257967.7744
  -3943952.93644  -3073206.93144  24229578.2594   24229581.1104
 -15356569.77544 -11966137.47444  21128195.4994   21128196.5114
 -20842121.18444 -16240600.02544  21292917.1244   21292918.8534
 -18818608.368 4 -14663837.557 4  21529632.883    21529629.544
 -20732892.06844 -16155480.88144  20227291.0274   20227293.0594
  -7288591.84344  -5679404.91444  23729043.3134   23729047.9264
 95  4 12  0  1 30.0000000  0  7G 6G20G 4G 5G12G24G 7
    -73680.50444                  25243947.1034
  -4042574.31944                  24210809.5454
 -15302202.13744 -11923773.06844  21138541.2854   21138542.2444
 -20906271.20144 -16290587.02944  21280709.8834   21280711.7364
 -18750207.377 4 -14610538.093 4  21542649.068    21542645.802
 -20751400.24244 -16169902.80944  20223769.2704   20223771.2574
  -7216746.80344  -5623421.78244  23742715.8954   23742719.4084
 95  4 12  0  2  0.0000000  0  7G 6G20G 4G 5G12G24G 7
   -147578.78244                  25229884.9224
  -4141471.72344                  24191989.0184
 -15247687.75544 -11881294.31644  21148914.8684   21148915.8194
 -20970445.19444 -16340592.72344  21268497.8844   21268499.8764
 -18681629.341 4 -14557100.682 4  21555699.047    21555695.734
 -20769680.76744 -16184147.34744  20220290.4334   20220292.5144
  -7145171.43644  -5567648.82644  23756336.3844   23756339.2904
 95  4 12  0  2 30.0000000  0  6G20G 4G 5G12G24G 7
  -4240508.85044  -3304289.28944  24173143.4024
 -15192898.69444 -11838601.52844  21159341.0454   21159342.3754
 -21034509.56144 -16390512.98344  21256306.9194   21256308.6464
 -18612732.081 4 -14503414.512 4  21568809.720    21568806.489
 -20787609.13744 -16198117.47344  20216878.6684   20216880.5304
  -7073710.87844  -5511965.28244  23769934.8024   23769937.0054
 95  4 12  0  3  0.0000000  0  6G20G 4G 5G12G24G 7
  -4339352.42644  -3381310.23144  24154332.3194
 -15137490.12244 -11795426.00344  21169884.9404   21169885.9284
 -21098133.66144 -16440090.18544  21244199.7494   21244201.0294
 -18543177.210 4 -14449215.938 4  21582045.645    21582042.449
 -20804830.95644 -16211537.04544  20213601.3634   20213603.2824
  -7002011.10244  -5456095.37744  23783578.6104   23783582.8284
 95  4 12  0  3 30.0000000  0  6G20G 4G 5G12G24G 7
  -4438055.29444  -3458221.49544  24135549.4474   24135556.0944
 -15081521.14044 -11751813.80144  21180535.4534   21180536.5614
 -21161373.81744 -16489368.21044  21232165.8074   21232167.3284
 -18473032.684 4 -14394557.885 4  21595393.724    21595390.636
 -20821397.37444 -16224445.91744  20210448.9294   20210450.8904
  -6930122.04044  -5400077.91744  23797258.4014   23797259.3004
 95  4 12  0  4  0.0000000  0  7G 6G20G 4G 5G12G24G 7
         0.03554                  25173755.4724
  -4536889.54144  -3535235.16144  24116742.8094
 -15025269.57544 -11707981.39444  21191239.4114   21191240.6104
 -21224506.92544 -16538562.80944  21220151.5954   21220153.7684
 -18402579.891 4 -14339659.615 4  21608800.504    21608797.437
 -20837575.76144 -16237052.42144  20207370.1474   20207372.1154
  -6858323.82244                  23810921.3574
 95  4 12  0  4 30.0000000  0  6G20G 4G 5G12G24G 7
  -4635303.01044  -3611920.96944  24098016.1084
 -14968166.88844 -11663485.77844  21202105.8604   21202107.0014
 -21286978.50744 -16587241.93444  21208263.5314   21208265.5984
 -18331261.354 4 -14284086.728 4  21622372.080    21622368.903
 -20852785.26644 -16248903.95044  20204475.8024   20204477.8464
  -6786071.96544                  23824669.9944
 95  4 12  0  5  0.0000000  0  6G20G 4G 5G12G24G 7
  -4734209.76944  -3688991.10944  24079196.4414   24079198.2974
 -14911126.05744 -11619038.36944  21212960.7004   21212961.6684
 -21349713.66344 -16636126.45044  21196325.3494   21196327.0324
 -18260009.948 4 -14228566.179 4  21635930.643    21635927.597
 -20867941.67044 -16260714.11344  20201591.9164   20201593.7764
  -6714316.68344  -5231916.41744  23838324.3384   23838328.0674
 95  4 12  0  5 30.0000000  0  6G20G 4G 5G12G24G 7
  -4833126.13744  -3766068.68244  24060373.6134   24060374.0774
 -14853664.32344 -11574262.98044  21223895.4194   21223895.8754
 -21412227.57144 -16684838.55744  21184429.3454   21184431.3464
 -18188348.453 4 -14172726.064 4  21649567.504    21649564.179
 -20882572.70744 -16272114.89444  20198807.7044   20198809.5104
  -6642592.37944  -5176024.93044  23851974.2224   23851977.4574
 95  4 12  0  6  0.0000000  0  6G20G 4G 5G12G24G 7
  -4932034.01044  -3843139.69144  24041552.9764   24041554.3944
 -14795755.73744 -11529139.39644  21234914.8784   21234915.6904
 -21474508.02444 -16733368.76044  21172577.7944   21172579.7164
 -18116260.602 4 -14116553.729 4  21663285.395    21663282.122
 -20896663.94344 -16283095.05544  20196126.0674   20196127.9354
  -6570902.09444                  23865616.0764
 95  4 12  0  6 30.0000000  0  6G20G 4G 5G12G24G 7
  -5030946.32044  -3920214.18144  24022729.8254   24022729.8274
 -14737421.79144 -11483684.36844  21246015.3014   21246015.8494
 -21536573.75544 -16781731.63944  21160767.1514   21160769.3474
 -18043768.351 4 -14060066.277 4  21677080.147    21677076.898
 -20910248.22644 -16293680.18844  20193541.0594   20193542.8094
  -6499269.25144  -5064345.62544  23879247.8494   23879251.0274
 95  4 12  0  7  0.0000000  0  6G20G 4G 5G12G24G 7
  -5129950.27244  -3997360.05544  24003889.0434   24003891.9404
 -14678771.00444 -11437982.45444  21257176.2624   21257177.0444
 -21598514.12644 -16829996.84744  21148980.0454   21148981.6544
 -17970966.968 4 -14003337.947 4  21690933.748    21690930.491
 -20923437.67344 -16303957.66044  20191031.0924   20191032.9754
  -6427786.65844  -5008644.91544  23892850.5694   23892853.3264
 95  4 12  0  7 30.0000000  0  6G20G 4G 5G12G24G 7
  -5228909.28944  -4074470.95944  23985056.8154   23985057.1844
 -14619670.90044 -11391930.41644  21268422.3704   21268422.8744
 -21660186.81444 -16878053.46744  21137244.4294   21137245.9654
 -17897714.368 4 -13946258.015 4  21704873.066    21704869.964
 -20936100.19344 -16313824.53544  20188621.5084   20188623.3454
  -6356315.19744  -4952952.85744  23906449.6994
 95  4 12  0  8  0.0000000  0  6G20G 4G 5G12G24G 7
  -5327613.56244  -4151383.29544  23966273.1554   23966276.7724
 -14559929.21844 -11345378.45344  21279791.0434   21279791.6234
 -21721373.28444 -16925731.22344  21125601.1194   21125602.4574
 -17823801.186 4 -13888663.347 4  21718938.528    21718935.132
 -20948022.43044 -16323114.56644  20186352.7154   20186354.6944
  -6284632.39544  -4897096.19144  23920091.2704   23920093.8524
 95  4 12  0  8 30.0000000  0  6G20G 4G 5G12G24G 7
  -5426454.31644  -4228401.99144  23947465.1234   23947469.0124
 -14499960.51944 -11298649.59544  21291202.9764   21291203.4184
 -21782452.24644 -16973325.19744  21113978.0034   21113979.6164
 -17749618.434 4 -13830858.619 4  21733055.047    21733051.618
 -20959590.75544 -16332128.82244  20184151.4014   20184152.9264
  -6213100.98044  -4841357.44744  23933702.7804   23933705.5894
 95  4 12  0  9  0.0000000  0  6G20G 4G 5G12G24G 7
  -5524964.43044  -4305163.06644  23928718.7984   23928722.0994
 -14439301.77844 -11251383.03744  21302745.5764   21302746.5674
 -21842939.51944 -17020458.12044  21102467.7354   21102469.5594
 -17674688.758 4 -13772471.877 4  21747313.678    21747310.350
 -20970322.23844 -16340490.99644  20182109.2964   20182111.2454
  -6141235.89444  -4785358.68144  23947378.8374   23947381.0814
 95  4 12  0  9 30.0000000  0  6G20G 4G 5G12G24G 7
  -5623290.45644  -4381780.72944  23910007.7164   23910011.6754
 -14378105.63844 -11203697.72944  21314390.7724   21314391.6684
 -21902959.00444 -17067226.53244  21091046.2654   21091047.8444
 -17599148.345 4 -13713609.237 4  21761688.592    21761685.296
 -20980341.54344 -16348298.22544  20180202.4814   20180204.6164
  -6069171.68744  -4729204.77244  23961092.0374   23961093.7474
 95  4 12  0 10  0.0000000  0  7G 6G20G 4G 5G12G24G 7
        -0.34554                  25006273.9244
  -5721758.81444  -4458509.27844  23891270.1874   23891273.3824
 -14316706.79144 -11155854.47044  21326074.3164   21326075.3704
 -21962843.82844 -17113890.02044  21079650.6984   21079652.1684
 -17523330.790 4 -13654530.636 4  21776116.061    21776113.098
 -20989975.24144 -16355804.98044  20178369.4344   20178371.3384
  -5997226.61444  -4673143.72244  23974783.3344   23974784.4254
 95  4 12  0 10 30.0000000  0  7G 6G20G 4G 5G12G24G 7
    -72711.32144                  24992437.4814
  -5820107.97344  -4535144.92944  23872555.9124   23872558.9284
 -14254845.64444 -11107650.97444  21337846.4714   21337847.0564
 -22022345.70344 -17160255.10144  21068327.4024   21068329.0754
 -17446988.806 4 -13595043.391 4  21790643.524    21790640.540
 -20998985.74244 -16362826.12544  20176654.6504   20176656.5604
  -5925160.00144  -4616987.92244  23988496.3534   23988501.4314
 95  4 12  0 11  0.0000000  0  7G 6G20G 4G 5G12G24G 7
   -145749.46144                  24978540.1964
  -5918777.65444  -4612030.33944  23853779.7524   23853782.5944
 -14192952.57244 -11059422.59844  21349624.2954   21349625.1364
 -22081911.78444 -17206670.21144  21056992.7824   21056994.4264
 -17370569.238 4 -13535495.695 4  21805185.699    21805182.555
 -21007834.08744 -16369720.91844  20174970.6194   20174972.5234
  -5853431.97344  -4561095.99744  24002145.8884   24002150.5954
 95  4 12  0 11 30.0000000  0  7G 6G20G 4G 5G12G24G 7
   -218642.68444   -170369.98544  24964669.4664
  -6017282.95044  -4688787.71344  23835034.1974   23835035.6004
 -14130542.50544 -11010791.37144  21361500.6664   21361501.5754
 -22141071.23444 -17252768.46644  21045735.0904   21045736.7244
 -17293606.527 4 -13475524.768 4  21819831.269    21819828.038
 -21016048.30844 -16376121.58444  20173407.7674   20173409.7874
  -5781580.31844  -4505107.74044  24015818.9114   24015821.8504
 95  4 12  0 12  0.0000000  0  7G 6G20G 4G 5G12G24G 7
   -291509.40944   -227149.14144  24950802.7394
  -6115739.84644  -4765507.32944  23816298.1214   23816300.3514
 -14067715.08144 -10961834.93044  21373456.0894   21373457.1104
 -22199951.91044 -17298649.49144  21034530.6834   21034532.1404
 -17216234.342 4 -13415234.767 4  21834554.816    21834551.446
 -21023762.01144 -16382132.24044  20171940.0214   20171941.9094
  -5709726.65144  -4449117.92844  24029493.3074   24029494.2334
 95  4 12  0 12 30.0000000  0  7G 6G20G 4G 5G12G24G 7
   -364095.88244                  24936988.5504
  -6213904.49844  -4841999.23144  23797617.5594   23797621.8094
 -14004215.91244 -10912355.05244  21385539.4284   21385540.2384
 -22258298.37044 -17344114.25144  21023427.3084   21023429.0544
 -17138205.803 4 -13354433.325 4  21849403.204    21849399.795
 -21030722.88844 -16387556.27244  20170615.2694   20170617.1704
  -5637636.50244  -4392943.77944  24043210.8694   24043211.3224
 95  4 12  0 13  0.0000000  0  7G 6G20G 4G 5G12G24G 7
   -436835.95744   -340390.40044  24923142.7134
  -6312230.23544  -4918616.65944  23778906.5464   23778909.3004
 -13940494.35344 -10862701.87744  21397665.1114   21397666.0794
 -22316544.58744 -17389500.89144  21012343.6914   21012345.3014
 -17059966.506 4 -13293467.657 4  21864291.731    21864288.299
 -21037354.29144 -16392723.57544  20169353.2754   20169355.2014
  -5565771.04444  -4336944.72744  24056886.5804   24056885.7714
 95  4 12  0 13 30.0000000  0  7G 6G20G 4G 5G12G24G 7
   -509480.42144                  24909320.0414
  -6410473.93444  -4995170.15444  23760211.7994   23760216.6584
 -13876314.46744 -10812691.57044  21409878.6034   21409879.4954
 -22374444.18944 -17434617.44644  21001325.6644   21001327.1424
 -16981275.519 4 -13232150.019 4  21879266.185    21879262.758
 -21043391.79644 -16397428.10144  20168204.3624   20168206.3614
  -5493884.36844  -4280929.11344  24070566.6404   24070568.0854
 95  4 12  0 14  0.0000000  0  7G 4G12G 6G20G 5G24G 7
 -13811700.23444 -10762342.80444  21422174.8134   21422175.3044
 -16902150.469 4 -13170494.158 4  21894323.082    21894319.664
   -582049.44144                  24895511.2744
  -6508656.94644  -5071676.36344  23741527.8314   23741533.0074
 -22432023.00044 -17479484.03344  20990368.7324   20990370.4784
 -21048855.85744 -16401685.78844  20167164.6284   20167166.3774
  -5421975.12544  -4224895.93344  24084248.6144   24084254.4494
 95  4 12  0 14 30.0000000  0  7G 4G12G 6G20G 5G24G 7
 -13746642.04544 -10711648.10244  21434554.7434   21434555.5284
 -16822551.347 4 -13108468.885 4  21909470.360    21909466.860
   -654498.73744                  24881723.8744
  -6606733.88744  -5148099.91644  23722865.5644   23722868.0454
 -22489240.84644 -17524069.35344  20979480.3404   20979482.2744
 -21053715.14444 -16405472.22144  20166239.7454   20166241.9014
  -5349994.40844  -4168807.20244  24097947.5244   24097949.0424
 95  4 12  0 15  0.0000000  0  7G 4G12G 6G20G 5G24G 7
 -13681259.95644 -10660701.01444  21446996.0544   21446997.1914
 -16742582.728 4 -13046155.694 4  21924687.705    21924684.557
   -726922.78544   -566431.70744  24867944.8804
  -6704806.60844  -5224520.17044  23704203.9134   23704206.6014
 -22546195.52444 -17568449.60744  20968642.1034   20968643.6924
 -21058090.53144 -16408881.58944  20165407.3814   20165409.1284
  -5278020.71844  -4112723.83044  24111643.9284   24111646.0874
 95  4 12  0 15 30.0000000  0  7G 4G12G 6G20G 5G24G 7
 -13615399.84044 -10609381.43744  21459529.1674   21459529.9154
 -16662099.969 4 -12983441.871 4  21940003.231    21939999.870
   -799162.74044   -622722.49544  24854199.2584
  -6802725.54744  -5300820.61944  23685571.2924   23685573.1124
 -22602758.14044 -17612524.35644  20957878.9424   20957880.5544
 -21061854.82344 -16411814.78044  20164690.9824   20164692.8014
  -5205882.44844  -4056512.21744  24125370.5364   24125374.5004
 95  4 12  0 16  0.0000000  0  7G 4G12G 6G20G 5G24G 7
 -13549093.95444 -10557714.50444  21472146.8054   21472147.2384
 -16581137.796 4 -12920354.474 4  21955409.758    21955406.338
   -871248.82544   -678893.37744  24840480.0444   24840484.5434
  -6900524.39944  -5377027.45044  23666958.7374   23666961.5064
 -22658965.63244 -17656322.38344  20947183.1594   20947184.7064
 -21065047.46844 -16414302.53344  20164083.1594   20164085.0484
  -5133620.01044  -4000203.82544  24139122.2734   24139124.2494
 95  4 12  0 16 30.0000000  0  7G 4G12G 6G20G 5G24G 7
 -13482640.64844 -10505932.69844  21484792.1414   21484793.1774
 -16499986.117 4 -12857119.420 4  21970852.453    21970849.123
   -943473.57244   -735172.29644  24826735.5334
  -6998486.47244  -5453361.50044  23648316.9114   23648322.0944
 -22715097.38544 -17700061.40044  20936501.2764   20936503.0564
 -21067955.17944 -16416568.26544  20163530.2614   20163532.0214
  -5061546.84944  -3944042.95444  24152837.7364   24152842.1344
 95  4 12  0 17  0.0000000  0  7G 4G 6G20G 5G12G24G 7
 -13415894.16244 -10453922.45044  21497493.4284   21497494.1244
  -1015730.82044                  24812987.4274
  -7096490.07344  -5529727.90844  23629667.2924   23629671.3114
 -22771038.11044 -17743651.55944  20925856.0154   20925857.7904
 -16418521.456 4 -12793640.474 4  21986354.668    21986351.282
 -21070430.89644 -16418497.37644  20163058.9314   20163060.8244
  -4989563.02644  -3887951.66944  24166535.6594   24166539.6524
 95  4 12  0 17 30.0000000  0  7G 4G 6G20G 5G12G24G 7
 -13348571.35044 -10401463.11444  21510304.5114   21510305.1464
  -1087758.68344                  24799281.2994
  -7194246.31244  -5605901.56744  23611063.6434   23611069.6304
 -22826523.33544 -17786886.78244  20915297.4444   20915299.1904
 -16336471.596 4 -12729705.534 4  22001968.331    22001964.782
 -21072172.85844 -16419854.72844  20162727.5204   20162729.4654
  -4917410.81944                  24180264.8834
 95  4 12  0 18  0.0000000  0  7G 4G 6G20G 5G12G24G 7
 -13280991.55344 -10348803.53344  21523164.4894   21523165.1364
  -1159871.10044   -903793.47044  24785556.6504
  -7292040.96944  -5682105.14044  23592454.4594   23592460.4044
 -22881824.72944 -17829978.76244  20904774.1584   20904775.6354
 -16254137.976 4 -12665549.491 4  22017635.965    22017632.395
 -21073479.46344 -16420872.85044  20162478.8154   20162480.6654
  -4845395.78144  -3775613.62444  24193969.6144   24193972.8494
 95  4 12  0 18 30.0000000  0  7G 4G 6G20G 5G12G24G 7
 -13213071.71444 -10295878.98744  21536089.5314   21536090.6164
  -1231985.15344   -959986.14444  24771832.0034
  -7389781.68344  -5758266.69144  23573855.8224   23573858.9674
 -22936838.60844 -17872846.69944  20894305.2824   20894306.8974
 -16171434.320 4 -12601105.101 4  22033373.950    22033370.504
 -21074274.78644 -16421492.56544  20162327.3664   20162329.2194
  -4773422.66044  -3719530.66844  24207663.7774   24207669.6234
 95  4 12  0 19  0.0000000  0  7G 4G 6G20G 5G12G24G 7
 -13144785.56244 -10242668.99744  21549083.8774   21549084.4064
  -1304068.53844                  24758115.0704
  -7487448.98644  -5834371.07744  23555271.3704   23555274.0964
 -22991538.23244 -17915469.76544  20883896.4704   20883897.9314
 -16088339.905 4 -12536356.222 4  22049186.151    22049183.016
 -21074543.06044 -16421701.59344  20162276.2204   20162278.0104
  -4701446.54444  -3663445.45044  24221361.8924   24221364.4724
 95  4 12  0 19 30.0000000  0  7G 4G 6G20G 5G12G24G 7
 -13076149.55244 -10189186.39544  21562144.6584   21562146.0254
  -1376103.21244                  24744408.6174
  -7585037.30644  -5910413.90344  23536699.3424   23536703.9074
 -23045893.81044 -17957824.74244  20873552.8164   20873554.4964
 -16004850.426 4 -12471299.501 4  22065073.822    22065070.465
 -21074302.26144 -16421513.93744  20162322.1464   20162323.9314
  -4629445.00244  -3607340.38844  24235063.0564   24235066.1284
 95  4 12  0 20  0.0000000  0  7G 6G20G 4G 5G12G24G 7
  -1447870.23644                  24730752.1434
  -7682333.80144  -5986229.30344  23518185.2874   23518188.3614
 -13006943.60844 -10135259.69144  21575314.2004   21575314.7744
 -23099673.55544 -17999731.02144  20863318.7344   20863320.1554
 -15920749.577 4 -12405766.386 4  22081077.580    22081074.217
 -21073354.91744 -16420775.73444  20162502.3004   20162504.1264
  -4557192.86644  -3551040.09444  24248812.4684   24248813.4954
 95  4 12  0 20 30.0000000  0  7G20G 4G16G 5G12G24G 7
  -7779893.61044  -6062249.85944  23499620.0944   23499623.6914
 -12937700.29444 -10081303.85544  21588490.9694   21588491.3904
        -0.61354                  24436844.0914
 -23153449.21444 -18041634.11544  20853085.6384   20853087.2214
 -15836588.530 4 -12340186.367 4  22097093.061    22097089.673
 -21072242.93244 -16419909.22844  20162713.8894   20162715.8234
  -4485238.53044  -3494971.80844  24262505.9224
 95  4 12  0 21  0.0000000  0  7G20G 4G16G 5G12G24G 7
  -7877289.35544  -6138142.60244  23481085.9274   23481089.5434
 -12868000.13544 -10026992.05144  21601753.9904   21601755.2084
    -94329.60944                  24418893.6644
 -23206804.78744 -18083209.87244  20842932.2914   20842933.6504
 -15751953.585 4 -12274237.076 4  22113198.452    22113195.067
 -21070533.94144 -16418577.52944  20163039.0984   20163040.9204
  -4413170.25144                  24276219.3484
 95  4 12  0 21 30.0000000  0  7G20G 4G16G 5G12G24G 7
  -7974575.15144  -6213949.68044  23462571.9484   23462575.1954
 -12797903.75144  -9972371.50044  21615092.9524   21615093.6504
   -188688.00844                  24400937.6414
 -23259798.48544 -18124503.65244  20832847.8664   20832849.3924
 -15666913.058 4 -12207971.751 4  22129381.231    22129377.783
 -21068290.10344 -16416829.06844  20163466.2464   20163468.0414
  -4341077.69544                  24289937.3694
 95  4 12  0 22  0.0000000  0  7G20G 4G16G 5G12G24G 7
  -8071674.70844  -6289611.66344  23444096.1124   23444096.8684
 -12727337.30944  -9917384.65744  21628521.8124   21628522.7984
   -283008.59844                  24382987.3534
 -23312367.52644 -18165466.53444  20822844.6434   20822846.1064
 -15581401.839 4 -12141339.643 4  22145653.399    22145650.051
 -21065436.41944 -16414605.39544  20164009.1274   20164010.7154
  -4268893.66344                  24303673.9294
 95  4 12  0 22 30.0000000  0  7G20G 4G16G 5G12G24G 7
  -8168678.98444  -6365199.39544  23425636.8464   23425638.4274
 -12656408.13444  -9862115.17744  21642018.8694   21642019.7294
   -377378.82244                  24365029.9484
 -23364590.62544 -18206159.84644  20812906.8964   20812908.0284
 -15495508.656 4 -12074409.911 4  22161998.451    22161994.867
 -21062051.30744 -16411967.63044  20164653.5734   20164655.3394
  -4196710.60144                  24317409.1854
 95  4 12  0 23  0.0000000  0  7G20G 4G16G 5G12G24G 7
  -8265674.57344  -6440780.32744  23407179.1154   23407180.4644
 -12585223.65144  -9806646.75644  21655564.8354   21655565.3904
   -471875.22044                  24347047.3754
 -23416537.59544 -18246637.99344  20803021.6194   20803023.1204
 -15409322.345 4 -12007251.752 4  22178399.043    22178395.650
 -21058228.81744 -16408989.04844  20165380.7604   20165382.4794
  -4124615.18644                  24331130.2414
 95  4 12  0 23 30.0000000  0  7G20G 4G16G 5G12G24G 7
  -8362569.01044  -6516282.46544  23388739.7034   23388742.0494
 -12513683.28544  -9750901.02344  21669178.4224   21669179.4654
   -566379.41644                  24329065.0614
 -23468106.97644 -18286821.91844  20793208.1864   20793209.7524
 -15322737.926 4 -11939783.405 4  22194875.429    22194872.101
 -21053869.12244 -16405591.86544  20166210.2734   20166212.0814
  -4052479.40244  -3157755.98644  24344857.6374   24344855.7344
 95  4 12  0 24  0.0000000  0  7G 6G20G 4G16G 5G12G24
        -0.33954                  24621560.9994
  -8459306.43044  -6591662.22344  23370331.0004   23370331.2364
 -12441735.52644  -9694837.83644  21682869.8674   21682870.9704
   -660827.66044   -514928.83944  24311092.3584
 -23519239.97844 -18326665.80644  20783478.0904   20783479.4614
 -15235695.010 4 -11871957.770 4  22211439.148    22211435.808
 -21048908.56244 -16401726.47544  20167154.4054   20167156.0654
 95  4 12  0 24 30.0000000  0  7G 6G20G 4G16G 5G12G24
    -71394.27144                  24607975.4364
  -8556007.79644  -6667013.92044  23351930.4094   23351933.3194
 -12369488.39244  -9638541.36644  21696617.7634   21696618.4284
   -755332.08744   -588568.54544  24293108.6174   24293111.5864
 -23570053.25644 -18366260.55644  20773808.4824   20773809.7124
 -15148312.362 4 -11803867.398 4  22228067.561    22228064.207
 -21043463.47144 -16397483.53044  20168190.3974   20168192.3164
 95  4 12  0 25  0.0000000  0  8G 6G20G 4G16G 5G12G24G 9
   -142841.00444   -111302.68944  24594380.1434
  -8652753.48444  -6742400.10444  23333519.7354   23333522.3314
 -12297023.39844  -9582075.13944  21710407.5364   21710408.7824
   -849984.37244   -662323.40444  24275096.3944   24275102.2714
 -23620647.13844 -18405684.34744  20764180.7024   20764182.0494
 -15060686.161 4 -11735587.276 4  22244742.396    22244738.943
 -21037640.91344 -16392946.45644  20169298.4824   20169300.2984
        -0.40154        -0.24454  21937073.7174   21937075.9244
 95  4 12  0 25 30.0000000  0  8G 6G20G 4G16G 5G12G24G 9
   -214252.99344                  24580790.7704
  -8749453.09344  -6817750.40244  23315118.7314   23315120.9594
 -12224247.88444  -9525366.95144  21724256.0574   21724257.0024
   -944688.26544   -736118.46444  24257073.9434   24257080.9854
 -23670928.03944 -18444864.25944  20754612.7164   20754614.4284
 -14972728.933 4 -11667049.178 4  22261480.159    22261476.658
 -21031348.72044 -16388043.43544  20170495.6474   20170497.2404
     63294.57244     49320.50244  21949118.5214   21949120.8164
 95  4 12  0 26  0.0000000  0  8G 6G20G 4G16G 5G12G24G 9
   -285500.88544   -222466.07644  24567233.2674   24567233.9374
  -8845951.67144  -6892944.08144  23296757.5574   23296757.2664
 -12151025.65044  -9468310.66644  21738189.8184   21738190.4684
  -1039307.71644   -809847.78744  24239068.6624   24239074.3804
 -23720751.57744 -18483687.78244  20745131.4504   20745132.8524
 -14884303.239 4 -11598146.069 4  22278307.168    22278303.447
 -21024447.63644 -16382665.95244  20171808.8294   20171810.5974
    127083.35944     99026.03544  21961257.2934   21961259.6364
 95  4 12  0 26 30.0000000  0  8G 6G20G 4G16G 5G12G24G 9
   -356638.02044   -277897.54844  24553695.3504   24553696.8504
  -8942284.17744  -6968008.37044  23278424.7854   23278427.9794
 -12077411.47744  -9410948.98244  21752198.1794   21752198.8264
  -1133896.08044   -883552.82644  24221069.3794   24221075.3504
 -23770173.28044 -18522198.19344  20735726.8454   20735728.3134
 -14795464.427 4 -11528921.033 4  22295212.544    22295209.114
 -21016989.43844 -16376854.35944  20173228.2814   20173229.9014
    191316.18944    149077.57044  21973479.9794   21973482.7304
 95  4 12  0 27  0.0000000  0  8G 6G20G 4G16G 5G12G24G 9
   -427976.82244   -333486.18944  24540119.5494   24540125.3314
  -9038753.70644  -7043179.35744  23260067.4234   23260072.0464
 -12003732.93144  -9353537.12444  21766218.4264   21766219.5364
  -1228757.14844   -957470.44044  24203017.2524   24203019.0774
 -23819513.84644 -18560645.37044  20726337.6574   20726339.3094
 -14706532.786 4 -11459623.678 4  22312135.744    22312132.006
 -21009285.27244 -16370851.10144  20174694.1324   20174695.8654
    255678.42744    199229.94544  21985727.6574   21985730.1294
 95  4 12  0 27 30.0000000  0  8G 6G20G 4G16G 5G12G24G 9
   -498978.03644   -388811.71644  24526607.9014   24526609.6384
  -9134811.16244  -7118029.29844  23241787.0644   23241789.9254
 -11929445.25144  -9295650.62544  21780355.1664   21780356.4914
  -1323341.99644  -1031172.76144  24185018.5354   24185024.4634
 -23868234.30144 -18598609.35044  20717066.3584   20717067.6854
 -14616963.555 4 -11389829.497 4  22329180.181    22329176.430
 -21000776.08144 -16364220.55244  20176313.3454   20176315.1424
    320707.52944    249901.95644  21998102.9354   21998105.2334
 95  4 12  0 28  0.0000000  0  8G 6G20G 4G16G 5G12G24G 9
   -569953.19144   -444116.99344  24513101.8944   24513103.1984
  -9230749.50744  -7192786.41444  23223530.4314   23223533.5984
 -11854853.05544  -9237526.83844  21794549.3664   21794550.4034
  -1417969.91044  -1104908.63944  24167011.2484   24167016.7254
 -23916653.36044 -18636338.47544  20707852.4754   20707854.0604
 -14527066.077 4 -11319779.538 4  22346286.944    22346283.405
 -20991780.06044 -16357210.65344  20178025.2274   20178027.0984
    386089.74044    300849.11344  22010544.8964   22010546.8204
 95  4 12  0 28 30.0000000  0  8G 6G20G 4G16G 5G12G24G 9
   -640940.58844                  24499591.8284
  -9326619.70744  -7267490.41444  23205286.9804   23205289.7644
 -11779992.16944  -9179193.69544  21808795.1124   21808796.4714
  -1512667.14244  -1178698.50544  24148990.8254   24148996.0804
 -23964797.06844 -18673853.03544  20698691.1274   20698692.6734
 -14436875.717 4 -11249501.354 4  22363449.562    22363446.036
 -20982333.77544 -16349849.90144  20179822.7374   20179824.6944
    451796.33544    352049.04044  22023048.7164   22023050.5734
 95  4 12  0 29  0.0000000  0  8G 6G20G 4G16G 5G12G24G 9
   -712095.59944   -554877.16544  24486050.8174
  -9422587.89444  -7342270.79844  23187024.6004   23187027.8044
 -11705003.32644  -9120760.84844  21823064.6984   21823066.1514
  -1607577.28044  -1252654.26644  24130930.4554   24130934.1954
 -24012801.81244 -18711259.31844  20689556.0014   20689557.5044
 -14346533.891 4 -11179105.153 4  22380640.987    22380637.723
 -20972582.34044 -16342251.36744  20181678.6794   20181680.3104
    517685.78044    403391.45144  22035586.6354   22035588.5534
 95  4 12  0 29 30.0000000  0  8G 6G20G 4G16G 5G12G24G 9
   -783203.34444   -610285.69344  24472519.9414   24472526.3754
  -9518439.63344  -7416960.42444  23168785.9374   23168789.2584
 -11629669.58244  -9062059.22844  21837400.7494   21837401.5914
  -1702495.33844  -1326616.19244  24112867.2624   24112874.2834
 -24060426.76944 -18748369.65844  20680493.3294   20680494.7894
 -14255816.864 4 -11108416.580 4  22397903.992    22397900.737
 -20962304.39744 -16334242.56344  20183634.2754   20183636.0864
    583984.37744    455052.68144  22048202.5714   22048204.8664
 95  4 12  0 30  0.0000000  0  8G 6G20G 4G16G 5G12G24G 9
   -854111.85444   -665539.04244  24459028.2404   24459031.3944
  -9614040.46244  -7491454.55044  23150593.5444   23150597.0094
 -11553861.95244  -9002988.35344  21851826.3424   21851827.2534
  -1797273.76144  -1400469.31244  24094832.3934   24094837.4214
 -24107507.21944 -18785055.71144  20671534.2774   20671535.5824
 -14164585.716 4 -11037327.396 4  22415264.639    22415261.581
 -20951356.94344 -16325712.06944  20185717.5314   20185719.4574
    650841.73844    507149.31044  22060924.8404   22060927.3464
 95  4 12  0 30 30.0000000  0  8G 6G20G 4G16G 5G12G24G 9
   -924912.75344   -720708.56844  24445554.5364   24445552.1894
  -9709504.54244  -7565842.12944  23132426.3364   23132427.9534
 -11477697.14744  -8943639.16244  21866320.1394   21866321.1404
  -1892012.11744  -1474291.22344  24076803.5074   24076809.1894
 -24154139.01644 -18821392.16344  20662660.5374   20662661.9104
 -14072955.123 4 -10965926.964 4  22432701.614    22432698.200
 -20939830.07344 -16316730.08044  20187911.0744   20187912.8974
    718157.17344    559602.87444  22073734.5414   22073736.8934
 95  4 12  0 31  0.0000000  0  8G 6G20G 4G16G 5G12G24G 9
   -995705.39244   -775871.58444  24432083.2594   24432083.8784
  -9804915.33644  -7640188.17944  23114270.5284   23114275.4404
 -11401297.28044  -8884106.81044  21880858.3964   21880859.2224
  -1986829.07044  -1548174.37044  24058760.0664   24058762.4624
 -24200440.84744 -18857471.50544  20653849.4704   20653851.1174
 -13981046.538 4 -10894309.906 4  22450191.235    22450187.977
 -20927842.09244 -16307388.78244  20190192.2224   20190194.1484
    785802.49344    612313.49644  22086607.3674   22086609.4724
 95  4 12  0 31 30.0000000  0  8G 6G20G 4G16G 5G12G24G 9
  -1066406.83444   -830963.47844  24418626.7804
  -9900175.25544  -7714416.65144  23096142.9144   23096146.1124
 -11324594.10044  -8824338.11944  21895454.6204   21895455.6584
  -2081635.68344  -1622049.44344  24040719.4034
 -24246332.98944 -18893231.60644  20645116.5464   20645118.0494
 -13888794.924 4 -10822425.551 4  22467746.297    22467742.661
 -20915330.10844 -16297639.17444  20192573.1874   20192575.0784
    853836.78244    665327.20444  22099553.8784   22099556.4864
 95  4 12  0 32  0.0000000  0  8G 6G20G 4G16G 5G12G24G 9
  -1137151.62844   -886089.19144  24405166.6824   24405169.7364
  -9995423.58944  -7788636.10244  23078016.9644   23078021.8444
 -11247717.22844  -8764434.07944  21910084.1714   21910084.7324
  -2176539.58844  -1696000.33544  24022659.3554   24022665.1474
 -24291960.50844 -18928785.51344  20636434.0294   20636435.4104
 -13796340.540 4 -10750383.210 4  22485339.880    22485336.027
 -20902435.40144 -16287591.34144  20195027.0204   20195028.7714
    922122.25844    718536.64144  22112548.3274   22112551.0654
 95  4 12  0 32 30.0000000  0  8G 6G20G 4G16G 5G12G24G 9
  -1207719.57644   -941077.17444  24391737.3604   24391738.0084
 -10090414.69744  -7862655.12044  23059941.6034   23059944.1354
 -11170415.11644  -8704198.67244  21924793.6264   21924794.1544
  -2271302.06244  -1769841.02944  24004626.7514   24004630.7334
 -24337095.89944 -18963955.93744  20627845.1254   20627846.5464
 -13703449.252 4 -10678000.404 4  22503016.443    22503012.653
 -20888934.41844 -16277071.08444  20197596.0504   20197597.9264
    990882.55844    772116.07544  22125632.8744   22125635.2334
 95  4 12  0 33  0.0000000  0  8G 6G20G 4G16G 5G12G24G 9
  -1278145.75044   -995954.63844  24378335.6584   24378337.6184
 -10185163.23844  -7936485.14844  23041910.4164   23041912.5534
 -11092697.66144  -8643639.62844  21939582.9744   21939583.5634
  -2365928.63244                  23986619.8504
 -24381756.80344 -18998756.62844  20619345.9004   20619347.6284
 -13610134.924 4 -10605287.963 4  22520773.670    22520769.681
 -20874863.06344 -16266106.38144  20200273.8684   20200275.6354
   1060086.50444    826041.19944  22138802.1264   22138804.0694
 95  4 12  0 33 30.0000000  0  8G 6G20G 4G16G 5G12G24G 9
  -1348888.89744  -1051079.11844  24364872.6404
 -10280129.83844  -8010485.03844  23023839.3154   23023841.7994
 -11015001.27344  -8583097.00244  21954368.2614   21954369.2494
  -2460851.86344                  23968556.1834
 -24426383.98744 -19033531.05044  20610853.7154   20610855.1704
 -13516835.506 4 -10532587.150 4  22538527.680    22538524.041
 -20860661.34344 -16255040.09644  20202976.0124   20202977.8994
   1129291.61644    879967.23244  22151971.6874   22151973.2324
 95  4 12  0 34  0.0000000  0  8G 6G20G 4G16G 5G12G24G 9
  -1419885.50044  -1106401.02644  24351362.3194   24351368.8724
 -10375244.24544  -8084600.14244  23005740.0194   23005743.0934
 -10937260.42044  -8522519.73144  21969161.9884   21969162.5884
  -2556018.25544  -1991697.39944  23950446.9274   23950450.0964
 -24470908.36044 -19068225.36444  20602381.1194   20602382.6114
 -13423480.480 4 -10459843.007 4  22556292.688    22556288.967
 -20846252.19944 -16243812.18644  20205718.3124   20205720.1134
   1198566.69244    933947.78944  22165154.2374   22165156.5484
 95  4 12  0 34 30.0000000  0  8G 6G20G 4G16G 5G12G24G 9
  -1490439.55444  -1161378.11944  24337936.7024   24337942.7244
 -10469799.42744  -8158279.47144  22987745.6174   22987749.3894
 -10858814.15244  -8461392.77844  21984089.5704   21984090.7614
  -2650763.97444  -2065525.10844  23932416.6454   23932419.8404
 -24514649.44244 -19102309.31544  20594057.5674   20594058.8464
 -13329394.763 4 -10386529.489 4  22574196.488    22574192.980
 -20830962.44244 -16231898.08244  20208627.8644   20208629.5574
   1268578.08344    988502.09044  22178476.7164   22178478.7604
 95  4 12  0 35  0.0000000  0  8G 6G20G 4G16G 5G12G24G 9
  -1560916.60644  -1216295.20344  24324525.3104   24324529.4594
 -10564179.39344  -8231822.26044  22969786.9754   22969788.6594
 -10780059.14344  -8400025.25044  21999076.0534   21999077.4754
  -2745468.47344  -2139320.65944  23914394.5314   23914398.9894
 -24557985.68344 -19136077.81344  20585811.0194   20585812.2754
 -13234960.919 4 -10312944.701 4  22592166.873    22592163.360
 -20815171.28444 -16219593.27344  20211632.5364   20211634.2694
   1338944.28644   1043332.87344  22191866.9954   22191869.2604
 95  4 12  0 35 30.0000000  0  8G 6G20G 4G16G 5G12G24G 9
  -1631250.50944  -1271100.76944  24311141.2874   24311144.6354
 -10658325.27244  -8305182.67644  22951872.3434   22951872.6594
 -10700946.11344  -8338378.75344  22014130.7074   22014131.6354
  -2840083.31444  -2213046.38044  23896390.1904   23896394.0684
 -24600850.20344 -19169478.72844  20577653.8434   20577655.3314
 -13140125.825 4 -10239047.244 4  22610213.143    22610209.680
 -20798817.49544 -16206850.05344  20214744.7604   20214746.4844
   1409738.28744   1098496.99744  22205338.0884   22205340.7604
 95  4 12  0 36  0.0000000  0  8G 6G20G 4G16G 5G12G24G 9
  -1701493.53444  -1325835.53644  24297775.0704   24297778.6044
 -10752292.29844  -8378403.71844  22933991.1164   22933994.1644
 -10621556.96644  -8276517.09144  22029238.2174   22029239.2194
  -2934674.23844  -2286753.43544  23878390.6564   23878394.6144
 -24643299.81444 -19202556.33944  20569576.4084   20569577.6124
 -13044963.058 4 -10164894.469 4  22628322.305    22628318.821
 -20781969.95044 -16193722.08844  20217950.7894   20217952.5914
   1480901.79544   1153949.05544  22218880.4014   22218883.0224
 95  4 12  0 36 30.0000000  0  8G 6G20G 4G16G 5G12G24G 9
  -1771709.40244  -1380549.10744  24284413.7184   24284418.4004
 -10846167.05444  -8451552.81544  22916126.5234   22916130.6614
 -10541958.94244  -8214492.66744  22044385.1024   22044386.0014
  -3029288.31444  -2360478.54844  23860385.9544   23860389.1664
 -24685404.84044 -19235365.44244  20561564.0124   20561565.6084
 -12949545.852 4 -10090543.427 4  22646479.430    22646475.907
 -20764694.44544 -16180260.64744  20221238.2444   20221239.8254
   1552368.90844   1209637.68444  22232480.4484   22232482.7414
 95  4 12  0 37  0.0000000  0  8G 6G20G 4G16G 5G12G24G 9
  -1841902.49744  -1435244.94244  24271055.6934   24271060.6354
 -10939957.05644  -8524635.91344  22898279.3464   22898281.0114
 -10462108.05444  -8152271.21044  22059580.2224   22059581.0384
  -3123900.73444  -2434202.37144  23842381.4804   23842386.4074
 -24727131.79944 -19267879.94844  20553623.4444   20553624.7994
 -12853854.703 4 -10015978.920 4  22664689.186    22664685.490
 -20746969.01644 -16166448.61344  20224611.0654   20224612.6574
   1624167.98244   1265584.98844  22246143.7214   22246145.8364
 95  4 12  0 37 30.0000000  0  8G 6G20G 4G16G 5G12G24G 9
  -1912065.23744  -1489917.19344  24257704.8564   24257706.7224
 -11033625.08344  -8597623.97844  22880454.1994   22880457.2984
 -10381978.04444  -8089832.25744  22074828.2344   22074829.4894
  -3218480.15844  -2507900.48344  23824382.8354   23824388.6144
 -24768456.33144 -19300080.87444  20545759.5474   20545761.0524
 -12757865.489 4  -9941182.167 4  22682955.416    22682951.432
 -20728759.09144 -16152259.05144  20228076.3224   20228078.1104
   1696322.54644   1321809.29944  22259874.1254   22259876.2334
 95  4 12  0 38  0.0000000  0  8G 6G20G 4G16G 5G12G24G 9
  -1982239.89844  -1544598.69144  24244349.0664   24244353.7654
 -11127198.29044  -8670538.12044  22862647.3404   22862650.4984
 -10301613.35744  -8027210.44544  22090121.3374   22090122.5064
  -3313050.55144  -2581591.56044  23806387.2954   23806390.6354
 -24809430.02744 -19332008.42444  20537962.6234   20537963.8564
 -12661624.169 4  -9866188.957 4  22701269.266    22701265.678
 -20710106.95044 -16137724.90944  20231625.7344   20231627.4994
   1768764.98844   1378257.92944  22273658.9634   22273661.6404
 95  4 12  0 38 30.0000000  0  8G 6G20G 4G16G 5G12G24G 9
  -2052311.94444  -1599200.21544  24231016.4624   24231019.1254
 -11220553.40944  -8743282.33844  22844883.2744   22844885.6094
 -10220877.59144  -7964299.47144  22105485.1184   22105486.1274
  -3407484.84544  -2655176.59644  23788416.7874   23788422.6324
 -24849932.35144 -19363568.66844  20530255.3014   20530256.5634
 -12565009.994 4  -9790905.213 4  22719654.474    22719650.703
 -20690904.05644 -16122761.60844  20235279.6714   20235281.4064
   1841605.83744   1435016.99644  22287520.4454   22287523.0754
 95  4 12  0 39  0.0000000  0  8G 6G20G 4G16G 5G12G24G 9
  -2122414.59944  -1653825.63144  24217676.7644   24217678.6064
 -11313789.85444  -8815934.09744  22827141.2654   22827144.4354
 -10139909.67744  -7901207.60344  22120893.0624   22120894.0034
  -3501915.82444  -2728759.06144  23770447.0934   23770451.5814
 -24890087.47644 -19394858.36544  20522613.7914   20522615.4084
 -12468148.921 4  -9715429.090 4  22738086.549    22738082.882
 -20671286.05544 -16107474.84744  20239013.0764   20239014.6764
   1914711.69644   1491982.57544  22301431.7404   22301434.7564
 95  4 12  0 39 30.0000000  0  8G 6G20G 4G16G 5G12G24G 9
  -2192487.17344  -1708427.59544  24204341.9354   24204344.1324
 -11406854.08544  -8888451.65644  22809431.2084   22809434.3794
 -10058701.30244  -7837928.36444  22136346.0284   22136346.9754
  -3596292.65244  -2802299.32244  23752487.6444   23752490.6714
 -24929868.17644 -19425856.30544  20515044.0814   20515045.3084
 -12371004.375 4  -9639732.063 4  22756572.425    22756569.087
 -20651209.76944 -16091830.98344  20242833.3914   20242835.3184
   1988112.32844   1549177.84044  22315399.9804   22315402.3854
 95  4 12  0 40  0.0000000  0  8G 6G20G 4G16G 5G12G24G 9
  -2262504.26244  -1762986.30044  24191019.1424   24191021.7844
 -11499752.79144  -8960840.22244  22791753.2734   22791754.8894
  -9977250.66844  -7774460.35344  22151845.4984   22151846.7024
  -3690609.93144  -2875793.21044  23734539.5154   23734543.7754
 -24969262.91344 -19456553.49444  20507547.4364   20507548.9764
 -12273574.235 4  -9563812.493 4  22775112.874    22775109.227
 -20630677.16544 -16075831.54344  20246740.4984   20246742.1084
   2061822.41844   1606614.24944  22329427.2414   22329428.9794
 95  4 12  0 40 30.0000000  0  8G 6G20G 4G16G 5G12G24G 9
  -2332508.76544  -1817535.21644  24177696.8814   24177700.0924
 -11592545.00944  -9033145.81744  22774096.0234   22774098.9774
  -9895606.18144  -7710841.28444  22167381.6514   22167382.8964
  -3784917.82544  -2949279.78644  23716593.6384   23716596.8284
 -25008304.16444 -19486975.23744  20500118.2624   20500119.6374
 -12175899.070 4  -9487702.014 4  22793699.758    22793696.366
 -20609718.57744 -16059500.17144  20250728.8594   20250730.4264
   2135813.71644   1664269.77644  22343506.9344   22343508.8084
 95  4 12  0 41  0.0000000  0  8G 6G20G 4G16G 5G12G24G 9
  -2402574.04344  -1872131.49044  24164364.3344   24164367.4744
 -11685294.86644  -9105418.40644  22756445.1634   22756448.3224
  -9813836.99244  -7647125.05444  22182941.9244   22182943.0444
  -3879278.47544  -3022807.49044  23698637.7644   23698640.8954
 -25047056.23944 -19517171.65544  20492743.7994   20492745.1204
 -12078045.149 4  -9411452.218 4  22812320.606    22812317.315
 -20588380.08444 -16042872.76744  20254789.5984   20254791.3664
   2210029.55344   1722100.28344  22357629.0554   22357630.7764
 95  4 12  0 41 30.0000000  0  8G 6G20G 4G16G 5G12G24G 9
  -2472518.60344  -1926633.66244  24151053.5364   24151053.5204
 -11777830.19044  -9177523.82744  22738836.6954   22738838.4894
  -9731753.91644  -7583164.23844  22198562.1794   22198562.9374
  -3973511.07944  -3096235.37244  23680705.6194   23680708.8044
 -25085319.00444 -19546986.78744  20485462.5514   20485464.0084
 -11979837.953 4  -9334927.160 4  22831009.022    22831005.524
 -20566485.04344 -16025811.69244  20258956.2184   20258957.9694
   2284651.99744   1780247.61744  22371829.7434   22371831.5814
 95  4 12  0 42  0.0000000  0  8G 6G20G 4G16G 5G12G24G 9
  -2542346.57644  -1981045.04444  24137765.9644   24137767.2554
 -11870124.58744  -9249441.51344  22721274.1544   22721276.6034
  -9649329.55244  -7518937.47244  22214247.1394   22214247.6204
  -4067601.27544  -3169552.30544  23662800.6934   23662803.8144
 -25123058.33544 -19576394.04944  20478281.0104   20478282.5524
 -11881266.796 4  -9258118.500 4  22849766.609    22849762.996
 -20544034.09244 -16008317.44044  20263228.3344   20263230.1564
   2359690.35844   1838719.04544  22386109.0764   22386110.8754
 95  4 12  0 42 30.0000000  0  8G 6G20G 4G16G 5G12G24G 9
  -2612192.17744  -2035470.15144  24124473.8664   24124477.2114
 -11962285.39144  -9321255.07844  22703736.2124   22703739.4124
  -9566678.63344  -7454534.18144  22229975.0844   22229975.9324
  -4161666.66444  -3242849.90844  23644900.1104   23644904.6474
 -25160378.86444 -19605474.97344  20471179.3204   20471180.4964
 -11782454.706 4  -9181122.100 4  22868569.982    22868566.238
 -20521154.38144 -15990489.09144  20267582.3104   20267584.0414
   2435007.27144   1897407.52644  22400440.5914   22400443.4704
 95  4 12  0 43  0.0000000  0  8G 6G20G 4G16G 5G12G24G 9
  -2682041.18744  -2089897.93244  24111182.9374   24111184.5654
 -12054289.62044  -9392946.65344  22686228.3734   22686230.6824
  -9483791.21344  -7389946.59244  22245747.9604   22245748.9834
  -4255688.77844  -3316113.78444  23627007.9724   23627013.2204
 -25197270.54044 -19634221.72744  20464159.1054   20464160.5314
 -11683399.583 4  -9103936.322 4  22887419.737    22887416.135
 -20497856.52344 -15972334.91244  20272015.7274   20272017.3674
   2510603.17944   1956313.40144  22414825.9604   22414828.9994
 95  4 12  0 43 30.0000000  0  8G 6G20G 4G16G 5G12G24G 9
  -2751814.64044  -2144266.82344  24097905.6104   24097908.4684
 -12146079.69044  -9464471.35644  22668761.7264   22668764.5514
  -9400623.30744  -7325140.45244  22261573.9834   22261575.3894
  -4349606.07244  -3389296.01344  23609135.7724   23609138.4424
 -25233676.01944 -19662589.62344  20457231.2974   20457232.6204
 -11584049.345 4  -9026520.586 4  22906325.330    22906321.478
 -20474094.40744 -15953818.97444  20276537.3434   20276538.9104
   2586517.06944   2015467.04644  22429272.5304   22429274.9724
 95  4 12  0 44  0.0000000  0  8G 6G20G 4G16G 5G12G24G 9
  -2821495.85444  -2198563.81244  24084645.4994   24084648.7524
 -12237642.94844  -9535819.33744  22651337.3484   22651338.9734
  -9317167.18444  -7260109.72844  22277455.6514   22277456.3054
  -4443398.97044  -3462381.32844  23591287.7854   23591291.5304
 -25269605.26844 -19690586.44044  20450394.2264   20450395.2064
 -11484396.801 4  -8948869.284 4  22925288.603    22925285.057
 -20449846.45744 -15934924.46244  20281151.6894   20281153.2504
   2662758.45144   2074875.89244  22443781.4704   22443782.9534
 95  4 12  0 44 30.0000000  0  8G 6G20G 4G16G 5G12G24G 9
  -2891101.82444  -2252802.19244  24071399.3944   24071402.8184
 -12329021.19144  -9607023.12644  22633948.1684   22633951.2584
  -9233460.11544  -7194883.46544  22293384.5234   22293385.7824
  -4537097.72644  -3535393.26844  23573457.8234   23573462.1934
 -25305107.54644 -19718250.54444  20443638.1054   20443639.4084
 -11384474.634 4  -8871007.880 4  22944303.126    22944299.568
 -20425128.03144 -15915663.34744  20285855.3874   20285856.9564
   2739303.44344   2134521.31744  22458347.5484   22458349.2304
 95  4 12  0 45  0.0000000  0  8G 6G20G 4G16G 5G12G24G 9
  -2960612.93644  -2306966.64344  24058171.6774   24058175.3634
 -12420202.30144  -9678073.31744  22616597.2714   22616599.9714
  -9149502.13144  -7129461.68744  22309361.3594   22309362.4264
  -4630684.45044  -3608317.89044  23555648.5424   23555652.3734
 -25340188.88344 -19745586.64944  20436962.4114   20436963.8824
 -11284274.008 4  -8792929.516 4  22963370.770    22963366.918
 -20399917.96244 -15896019.13644  20290652.4964   20290654.4194
   2816160.04144   2194409.55644  22472972.6964   22472975.0714
 95  4 12  0 45 30.0000000  0  8G 6G20G 4G16G 5G12G24G 9
  -3030093.13944  -2361107.04044  24044951.1664   24044953.1014
 -12511246.21144  -9749016.60844  22599272.2264   22599275.0474
  -9065340.46844  -7063881.19444  22325376.9844   22325378.1104
  -4724213.42244  -3681197.50644  23537850.6764   23537854.4694
 -25374898.93244 -19772633.43844  20430357.2334   20430358.6494
 -11183847.716 4  -8714675.286 4  22982481.015    22982477.696
 -20374261.26744 -15876026.90544  20295535.0074   20295536.6514
   2893273.51844   2254497.93944  22487646.3504   22487649.5254
 95  4 12  0 46  0.0000000  0  8G 6G20G 4G16G 5G12G24G 9
  -3099498.80044  -2415189.34444  24031742.6434   24031746.7794
 -12602093.72444  -9819806.86144  22581983.8854   22581987.0574
  -8980911.61544  -6998092.49544  22341443.1824   22341443.8474
  -4817623.90544  -3753984.80144  23520075.1174   23520078.9604
 -25409183.25744 -19799348.49244  20423833.3934   20423834.6874
 -11083136.742 4  -8636199.227 4  23001645.754    23001642.002
 -20348098.67144 -15855640.46444  20300513.5884   20300515.2264
   2970704.55344   2314833.77244  22502381.1464   22502384.2624
 95  4 12  0 46 30.0000000  0  8G 6G20G 4G16G 5G12G24G 9
  -3168883.73644  -2469255.48244  24018539.2644   24018543.3154
 -12692785.45744  -9890475.71244  22564726.5484   22564729.6404
  -8896266.04244  -6932134.92644  22357550.2754   22357551.8224
  -4910961.90344  -3826715.61544  23502313.5254   23502318.3114
 -25443083.29544 -19825764.10244  20417382.3814   20417383.3664
 -10982183.404 4  -8557534.336 4  23020856.422    23020853.017
 -20321481.19944 -15834899.57444  20305578.6904   20305580.3414
   3048398.62144   2375374.57644  22517165.7524   22517167.9004
 95  4 12  0 47  0.0000000  0  8G 6G20G 4G16G 5G12G24G 9
  -3238285.10244  -2523334.39044  24005332.2504   24005335.0764
 -12783349.11344  -9961044.77444  22547493.2144   22547495.6204
  -8811441.95344  -6866038.24544  22373691.7784   22373692.4074
  -5004252.44344  -3899409.44844  23484560.3664   23484564.4634
 -25476620.88344 -19851897.28644  20411000.3164   20411001.6474
 -10881023.458 4  -8478708.430 4  23040106.595    23040103.238
 -20294461.40944 -15813845.19244  20310720.1304   20310721.8024
   3126317.06244   2436090.21644  22531992.6474   22531994.6754
 95  4 12  0 47 30.0000000  0  8G 6G20G 4G16G 5G12G24G 9
  -3307615.51944  -2577358.05144  23992138.4404   23992142.7954
 -12873686.11844 -10031437.24744  22530302.9574   22530305.3164
  -8726359.61944  -6799740.34444  22389882.8434   22389883.4684
  -5097410.39144  -3971999.96144  23466833.8454   23466837.0324
 -25509704.86244 -19877677.00144  20404704.5934   20404706.1104
 -10779574.564 4  -8399657.368 4  23059411.819    23059408.253
 -20266958.56544 -15792414.40244  20315953.9064   20315955.4104
   3204549.97444   2497050.91844  22546880.1684   22546882.2334
 95  4 12  0 48  0.0000000  0  8G 6G20G 4G16G 5G12G24G 9
  -3376919.76144  -2631361.33244  23978951.0844   23978955.0694
 -12963825.43744 -10101675.65844  22513150.1074   22513152.2194
  -8641081.57644  -6733289.94044  22406110.5164   22406110.5184
  -5190486.51644  -4044526.70344  23449121.8204   23449125.1954
 -25542384.00844 -19903141.26844  20398486.1514   20398487.2234
 -10677889.517 4  -8320422.305 4  23078761.940    23078758.469
 -20239028.73144 -15770650.89744  20321268.8334   20321270.5424
   3283042.55944   2558213.93444  22561817.1784   22561819.4404
 95  4 12  0 48 30.0000000  0  8G 6G20G 4G16G 5G12G24G 9
  -3446241.86544  -2685378.46044  23965759.3654   23965764.0684
 -13053801.70444 -10171787.02544  22496027.6534   22496030.4284
  -8555662.98944  -6666730.03344  22422365.3864   22422366.2494
  -5283526.96144  -4117025.64644  23431417.0194   23431420.3464
 -25574687.86144 -19928313.10044  20392338.8714   20392340.0654
 -10576020.761 4  -8241044.095 4  23098147.057    23098143.480
 -20210729.46044 -15748599.51344  20326653.9694   20326655.7484
   3361746.42544   2619541.58744  22576794.6634   22576796.7284
 95  4 12  0 49  0.0000000  0  8G 6G20G 4G16G 5G12G24G 9
  -3515525.03644  -2739365.32744  23952575.6404   23952577.5844
 -13143570.29344 -10241736.55144  22478944.1734   22478947.0314
  -8470064.82644  -6600030.18944  22438654.5484   22438655.3554
  -5376482.88544  -4189458.73144  23413727.4164   23413730.9474
 -25606557.87744 -19953146.87244  20386274.2884   20386275.3624
 -10473932.917 4  -8161495.159 4  23117573.721    23117570.252
 -20182020.94444 -15726229.24344  20332116.8924   20332118.7494
   3440708.34044   2681070.32144  22591820.8284   22591823.0444
 95  4 12  0 49 30.0000000  0  8G 6G20G 4G16G 5G12G24G 9
  -3584750.70544  -2793307.37844  23939402.4304   23939405.4984
 -13233094.28844 -10311495.49044  22461909.0324   22461911.5184
  -8384247.49544  -6533159.56044  22454984.5484   22454985.6284
  -5469326.62144  -4261804.39644  23396059.6094   23396062.9654
 -25637957.64344 -19977614.22044  20380299.0214   20380300.2894
 -10371598.002 4  -8081753.703 4  23137047.588    23137043.947
 -20152864.64144 -15703510.04644  20337665.3544   20337666.9304
   3519948.12544   2742815.57444  22606899.5304   22606901.9114
 95  4 12  0 50  0.0000000  0  8G 6G20G 4G16G 5G12G24G 9
  -3653899.89144  -2847189.82544  23926244.1154   23926246.5084
 -13322353.51044 -10381048.10644  22444923.4204   22444925.9454
  -8298173.60744  -6466089.02044  22471363.6514   22471365.3134
  -5562027.71844  -4334038.91644  23378419.1134   23378423.5804
 -25668854.36044 -20001689.57844  20374419.5594   20374421.0674
 -10268991.283 4  -8001800.472 4  23156573.092    23156569.145
 -20123238.80144 -15680424.97144  20343302.8024   20343304.5074
   3599487.83944   2804794.53344  22622034.8034   22622036.9834
 95  4 12  0 50 30.0000000  0  8G 6G20G 4G16G 5G12G24G 9
  -3723008.44644  -2901040.58744  23913092.5004   23913096.3664
 -13411409.24044 -10450442.14444  22427977.0314   22427979.5724
  -8211884.68544  -6398850.93044  22487784.1804   22487784.9584
  -5654613.87144  -4406183.86444  23360799.9554   23360804.2474
 -25699289.81444 -20025405.51644  20368627.9814   20368628.9844
 -10166161.736 4  -7921673.590 4  23176140.965    23176137.009
 -20093181.91144 -15657004.01844  20349022.4414   20349024.4524
   3679291.76244   2866979.37244  22637220.7054   22637223.4324
 95  4 12  0 51  0.0000000  0  8G 6G20G 4G16G 5G12G24G 9
  -3792089.33344  -2954869.77844  23899946.2914   23899949.1754
 -13500276.65544 -10519689.45544  22411066.1054   22411068.4974
  -8125387.37544  -6331450.44944  22504243.7274   22504245.0724
  -5747092.86144  -4478245.32844  23343202.1454   23343204.7794
 -25729277.24344 -20048772.34344  20362921.2264   20362922.5184
 -10063119.462 4  -7841380.940 4  23195748.999    23195745.373
 -20062699.78244 -15633251.71044  20354823.0324   20354824.7254
   3759346.50344   2929359.65444  22652454.2114   22652457.0214
 95  4 12  0 51 30.0000000  0  8G 6G20G 4G16G 5G12G24G 9
  -3861105.08544  -3008648.24144  23886813.1234   23886815.7884
 -13588904.04544 -10588749.74144  22394200.9824   22394202.8644
  -8038627.39544  -6263845.29044  22520753.6574   22520755.2684
  -5839408.72344  -4550179.68044  23325634.4184   23325638.7744
 -25758762.35044 -20071747.74544  20357310.6524   20357312.0634
  -9959813.492 4  -7760882.821 4  23215407.820    23215403.899
 -20031747.97244 -15609133.41244  20360713.1094   20360714.8784
   3839695.16444   2991968.96644  22667744.9694   22667747.2084
 95  4 12  0 52  0.0000000  0  8G 6G20G 4G16G 5G12G24G 9
  -3930086.79244  -3062400.18144  23873686.6404   23873688.4544
 -13677353.38644 -10657671.28044  22377368.6044   22377371.6174
  -7951667.00344  -6196083.95844  22537301.9974   22537302.7314
  -5931604.89344  -4622020.75544  23308090.6644   23308094.0624
 -25787803.22344 -20094376.99844  20351784.3854   20351785.4924
  -9856299.019 4  -7680222.231 4  23235105.885    23235102.091
 -20000380.93844 -15584691.56744  20366681.9484   20366683.5424
   3920295.50444   3054774.38644  22683082.4154   22683085.1474
 95  4 12  0 52 30.0000000  0  8G 6G20G 4G16G 5G12G24G 9
  -3999024.17244  -3116117.58844  23860568.6214   23860569.9204
 -13765625.17344 -10726454.45944  22360571.6864   22360573.7684
  -7864511.64744  -6128170.71544  22553886.4664   22553888.0064
  -6023664.77844  -4693755.64444  23290572.0474   23290575.5124
 -25816399.36944 -20116659.70744  20346342.5524   20346343.9534
  -9752572.083 4  -7599396.056 4  23254844.660    23254840.890
 -19968602.50944 -15559929.14944  20372729.2444   20372730.9684
   4001147.45144   3117775.86144  22698468.0044   22698470.3644
 95  4 12  0 53  0.0000000  0  8G 6G20G 4G16G 5G12G24G 9
  -4067955.74044  -3169830.42744  23847451.4624   23847452.4604
 -13853733.83944 -10795110.55444  22343804.5964   22343807.6264
  -7777194.29844  -6060131.25644  22570503.0894   22570503.7614
  -6115620.11044  -4765409.06644  23273073.5244   23273076.6384
 -25844584.36544 -20138622.03544  20340979.2834   20340980.5104
  -9648659.514 4  -7518425.251 4  23274618.547    23274614.473
 -19936447.93144 -15534873.63744  20378847.9454   20378849.6354
   4082201.54944   3180934.87244  22713892.4834   22713894.4984
 95  4 12  0 53 30.0000000  0  8G 6G20G 4G16G 5G12G24G 9
  -4136836.14044  -3223503.40744  23834344.1094   23834347.4754
 -13941629.29744 -10863600.51344  22327078.6924   22327081.2904
  -7689680.20044  -5991938.46644  22587156.2264   22587157.5524
  -6207416.86544  -4836938.93344  23255605.4594   23255608.3564
 -25872328.30044 -20160240.68844  20335699.9154   20335700.9384
  -9544521.060 4  -7437278.437 4  23294435.612    23294431.379
 -19903864.81644 -15509484.19644  20385048.3264   20385050.0184
   4163501.58444   3244285.52344  22729363.5904   22729365.6464
 95  4 12  0 54  0.0000000  0  8G 6G20G 4G16G 5G12G24G 9
  -4205647.08644  -3277122.25544  23821249.6604   23821250.9964
 -14029287.82744 -10931905.84044  22310398.1294   22310400.6564
  -7601960.18544  -5923585.22644  22603848.9164   22603850.3304
  -6299045.61844  -4908337.88444  23238169.2284   23238171.5554
 -25899631.49344 -20181515.89844  20330503.8614   20330505.2754
  -9440147.616 4  -7355948.529 4  23314297.110    23314292.937
 -19870842.55944 -15483752.56744  20391332.3634   20391334.1404
   4245055.80044   3307834.23344  22744882.7024   22744885.2334
 95  4 12  0 54 30.0000000  0  8G 6G20G 4G16G 5G12G24G 9
  -4274430.95944  -3330720.04344  23808160.1784   23808161.5364
 -14116713.78244 -11000029.93044  22293761.7884   22293764.5264
  -7514055.51944  -5855088.11344  22620577.0294   22620577.6854
  -6390526.11344  -4979621.31544  23220760.7444   23220764.1024
 -25926502.20144 -20202454.11144  20325390.8344   20325391.9724
  -9335561.726 4  -7274453.079 4  23334199.250    23334194.939
 -19837400.57044 -15457693.87944  20397696.2054   20397697.8464
   4326826.46344   3371551.58644  22760442.9694   22760445.5224
 95  4 12  0 55  0.0000000  0  8G 6G20G 4G16G 5G12G24G 9
  -4343237.85944  -3384335.79444  23795066.4774   23795067.7104
 -14203937.91644 -11067996.75844  22277163.8674   22277165.7434
  -7426006.37444  -5786478.41544  22637331.9964   22637332.9914
  -6481913.78244  -5050832.40344  23203370.0224   23203372.8864
 -25952958.11144 -20223069.10444  20320356.3424   20320357.8974
  -9230811.614 4  -7192829.656 4  23354132.338    23354128.339
 -19803563.02144 -15431326.95344  20404135.1594   20404136.9024
   4408764.97344   3435399.74144  22776034.9354   22776038.3304
 95  4 12  0 55 30.0000000  0  8G 6G20G 4G16G 5G12G24G 9
  -4411988.27344  -3437907.49044  23781984.3804   23781986.2394
 -14290892.77444 -11135753.77444  22260616.6164   22260619.6914
  -7337737.40744  -5717697.42544  22654128.9064   22654129.9644
  -6573137.65044  -5121915.86844  23186011.3704   23186014.0534
 -25978913.70144 -20243294.23844  20315417.3424   20315418.4124
  -9125834.726 4  -7111029.524 4  23374108.850    23374104.851
 -19769263.11944 -15404599.76244  20410662.0324   20410663.9384
   4490952.60044   3499442.00144  22791674.2004   22791677.3874
 95  4 12  0 56  0.0000000  0  8G 6G20G 4G16G 5G12G24G 9
  -4480715.66344  -3491461.26744  23768905.4944   23768907.6644
 -14377621.28944 -11203334.42344  22244112.7904   22244115.2214
  -7249281.66744  -5648770.91144  22670961.2074   22670962.3534
  -6664227.72944  -5192895.09044  23168677.6264   23168680.8214
 -26004384.56344 -20263141.66344  20310570.2224   20310571.4734
  -9020671.454 4  -7029084.157 4  23394120.811    23394116.962
 -19734549.97344 -15377550.56244  20417267.8944   20417269.2454
   4573347.68744   3563645.92544  22807354.5184   22807357.5604
 95  4 12  0 56 30.0000000  0  8G 6G20G 4G16G 5G12G24G 9
  -4549419.27944  -3544996.50444  23755831.2904   23755833.4494
 -14464129.11544 -11270743.09144  22227650.4724   22227652.7644
  -7160645.23444  -5579703.57544  22687828.6274   22687829.5124
  -6755175.48144  -5263763.40444  23151369.8174   23151372.7884
 -26029364.39444 -20282606.46344  20305816.5764   20305817.9124
  -8915324.010 4  -6946995.279 4  23414168.000    23414164.040
 -19699407.83344 -15350167.07844  20423955.3444   20423957.0774
   4655947.83144   3628009.63344  22823073.1214   22823075.3264
 95  4 12  0 57  0.0000000  0  8G 6G20G 4G16G 5G12G24G 9
  -4618061.90144  -3598484.21644  23742769.3874   23742772.0054
 -14550397.60544 -11337965.26644  22211234.4644   22211237.3274
  -7071820.08644  -5510489.20744  22704731.1074   22704731.6974
  -6845959.24744  -5334503.94244  23134094.0934   23134097.7804
 -26053848.58744 -20301685.05444  20301157.6464   20301158.8054
  -8809778.088 4  -6864751.746 4  23434252.603    23434248.624
 -19663834.52544 -15322447.62544  20430724.7494   20430726.6124
   4738785.12344   3692558.14944  22838837.0444   22838839.1714
 95  4 12  0 57 30.0000000  0  8G 6G20G 4G16G 5G12G24G 9
  -4686600.91544  -3651891.22444  23729725.9334   23729728.5844
 -14636386.53344 -11404969.60944  22194871.2034   22194872.8604
  -6982779.49144  -5441106.94744  22721675.1524   22721676.3334
  -6936522.74244  -5405072.84244  23116860.3614   23116863.0534
 -26077833.03144 -20320374.22844  20296593.3404   20296594.8014
  -8703999.473 4  -6782326.895 4  23454381.486    23454377.733
 -19627813.00944 -15294378.91344  20437579.3734   20437581.0794
   4821902.81044   3757325.15144  22854653.3204   22854655.6394
 95  4 12  0 58  0.0000000  0  8G 6G20G 4G16G 5G12G24G 9
  -4755079.54144  -3705251.16744  23716695.3314   23716698.0024
 -14722117.26144 -11471772.74744  22178556.8284   22178558.9134
  -6893566.76344  -5371590.54744  22738651.8804   22738652.7244
  -7026890.18744  -5475488.97044  23099663.4044   23099666.5384
 -26101367.84644 -20338713.04444  20292115.0114   20292116.0314
  -8598024.639 4  -6699749.141 4  23474547.888    23474543.999
 -19591368.49344 -15265980.59244  20444514.4354   20444516.2624
   4905250.85944   3822271.64144  22870513.5574   22870516.7504
 95  4 12  0 58 30.0000000  0  8G 6G20G 4G16G 5G12G24G 9
  -4823577.87544  -3758626.44944  23703660.4844   23703661.5674
 -14807644.54044 -11538417.35444  22162281.3154   22162284.3494
  -6804262.02144  -5302002.46044  22755645.5884   22755646.9624
  -7117149.65744  -5545820.96544  23082487.6584   23082491.3734
 -26124534.59344 -20356765.05544  20287706.4534   20287707.7954
  -8491930.754 4  -6617078.624 4  23494737.161    23494732.846
 -19554574.94344 -15237310.30144  20451515.9964   20451517.7974
   4988753.92644   3887338.92244  22886403.6754   22886406.9254
 95  4 12  0 59  0.0000000  0  8G 6G20G 4G16G 5G12G24G 9
  -4892032.27744  -3811967.53244  23690634.3094   23690637.0714
 -14892892.02644 -11604843.94244  22146059.3354   22146061.6104
  -6714800.38344  -5232292.12144  22772669.7974   22772671.4004
  -7207231.13644  -5616014.26744  23065345.9774   23065349.2804
 -26147257.18844 -20374470.97044  20283382.5534   20283383.6484
  -8385654.239 4  -6534265.810 4  23514961.080    23514956.833
 -19517375.04444 -15208323.36644  20458594.9374   20458596.5824
   5072485.61744   3952584.34644  22902336.3814   22902339.8054
 95  4 12  0 59 30.0000000  0  8G 6G20G 4G16G 5G12G24G 9
  -4960495.02744  -3865315.08344  23677605.9624   23677607.9534
 -14977898.55544 -11671082.77444  22129883.4774   22129886.2184
  -6625213.05644  -5162483.84844  22789718.2324   22789719.0294
  -7297170.80944  -5686097.06444  23048231.3214   23048234.4664
 -26169559.72644 -20391849.57444  20279138.4044   20279139.7474
  -8279237.086 4  -6451343.410 4  23535211.445    23535207.582
 -19479790.74844 -15179036.90644  20465746.8184   20465748.4984
   5156389.11344   4017963.65544  22918303.1034   22918305.8734
 95  4 12  1  0  0.0000000  0  8G 6G20G 4G16G 5G12G24G 9
  -5028909.43344  -3918624.98044  23664586.8994   23664588.7834
 -15062607.94444 -11737090.07944  22113763.9774   22113766.2654
  -6535444.26244  -5092534.15344  22806800.5814   22806801.6174
  -7386927.18244  -5756037.01944  23031150.8204   23031154.0124
 -26191359.05844 -20408836.06644  20274990.3574   20274991.5054
  -8172623.892 4  -6368268.230 4  23555499.160    23555495.449
 -19441768.51344 -15149409.19344  20472982.5764   20472984.1254
   5240506.20944   4083509.40544  22934310.2974   22934313.3844
 95  4 12  1  0 30.0000000  0  8G 6G20G 4G16G 5G12G24G 9
  -5097278.18944  -3971899.28944  23651577.9094   23651580.8034
 -15147034.22744 -11802876.76544  22097698.0064   22097700.4124
  -6445499.55044  -5022447.40144  22823916.6364   22823917.6534
  -7476513.34044  -5825844.34144  23014103.7424   23014106.9364
 -26212636.10744 -20425415.58744  20270941.2814   20270942.5354
  -8065816.305 4  -6285041.581 4  23575824.191    23575820.387
 -19403322.80744 -15119451.49844  20480298.3224   20480300.0854
   5324851.89244   4149233.27544  22950361.1034   22950362.8044
 95  4 12  1  1  0.0000000  0  8G 6G20G 4G16G 5G12G24G 9
  -5165604.36144  -4025140.44444  23638575.8824   23638576.4164
 -15231203.87544 -11868463.47344  22081681.2104   22081683.2514
  -6355386.78944  -4952229.70244  22841064.5884   22841065.6764
  -7565915.53744  -5895508.33144  22997090.8754   22997093.1144
 -26233402.30444 -20441597.04044  20266989.7924   20266990.9714
  -7958824.103 4  -6201671.088 4  23596184.202    23596180.258
 -19364471.26044 -15089177.57144  20487691.5724   20487693.4324
   5409413.29144   4215125.24244  22966452.9524   22966454.5154
 95  4 12  1  1 30.0000000  0  8G 6G20G 4G16G 5G12G24G 9
  -5233932.53544  -4078383.15544  23625573.0954   23625574.5174
 -15315173.31644 -11933894.18944  22065702.3154   22065704.6544
  -6265160.71444  -4881923.69544  22858233.6424   22858235.4104
  -7655183.95244  -5965068.07544  22980103.4694   22980106.1344
 -26253707.81644 -20457419.51844  20263125.6334   20263126.8524
  -7851698.296 4  -6118196.495 4  23616569.624    23616565.506
 -19325284.46544 -15058642.40844  20495148.6774   20495150.2484
   5494123.83044   4281133.42144  22982572.6894   22982574.5264
 95  4 12  1  2  0.0000000  0  8G 6G20G 4G16G 5G12G24G 9
  -5302255.16244  -4131621.53944  23612572.0054   23612573.4034
 -15398941.68544 -11999168.22944  22049761.7644   22049763.9194
  -6174819.95644  -4811528.33344  22875424.8734   22875425.6894
  -7744310.60144  -6034517.32944  22963143.2074   22963146.3694
 -26273545.87344 -20472877.74844  20259350.5724   20259351.9234
  -7744430.891 4  -6034611.561 4  23636981.810    23636977.936
 -19285764.03044 -15027847.26944  20502668.9604   20502670.8724
   5578999.48844   4347270.25144  22998723.7924   22998726.9224
 95  4 12  1  2 30.0000000  0  8G 6G20G 4G16G 5G12G24G 9
  -5370514.19644  -4184810.38944  23599582.1074   23599583.3614
 -15482448.00744 -12064238.07444  22033871.4644   22033873.8484
  -6084295.20644  -4740989.60144  22892651.8304   22892652.2864
  -7833210.03644  -6103789.56644  22946226.4534   22946230.0604
 -26292862.22344 -20487929.45344  20255674.8514   20255676.0754
  -7636961.658 4  -5950869.347 4  23657432.639    23657428.353
 -19245843.02644 -14996739.99644  20510265.8424   20510267.5634
   5664107.93944   4413588.47844  23014918.9574   23014922.1224
 95  4 12  1  3  0.0000000  0  8G 6G20G 4G16G 5G12G24G 9
  -5438676.36144  -4237923.71944  23586611.1134   23586614.6674
 -15565658.34844 -12129077.28044  22018036.6884   22018039.3834
  -5993566.66144  -4670292.05344  22909916.7124   22909918.4164
  -7921849.90844  -6172859.53244  22929358.3724   22929361.3564
 -26311640.92344 -20502562.21144  20252101.4164   20252102.5754
  -7529274.760 4  -5866957.523 4  23677924.854    23677920.544
 -19205506.41244 -14965308.87744  20517941.3354   20517943.3474
   5749449.65444   4480088.46844  23031159.0534   23031162.3014
 95  4 12  1  3 30.0000000  0  8G 6G20G 4G16G 5G12G24G 9
  -5506812.33144  -4291016.62644  23573645.6274   23573647.4474
 -15648623.06744 -12193725.10044  22002248.5204   22002250.9364
  -5902696.27144  -4599483.98144  22927208.8214   22927210.2914
  -8010302.35744  -6241783.46444  22912526.2334   22912529.8184
 -26329930.00944 -20516813.45244  20248620.9404   20248622.3324
  -7421438.811 4  -5782929.574 4  23698445.389    23698441.098
 -19164805.86144 -14933594.16844  20525686.6704   20525688.5214
   5834959.52244   4546719.47744  23047431.2574   23047435.0244
 95  4 12  1  4  0.0000000  0  8G 6G20G 4G16G 5G12G24G 9
  -5574866.09644  -4344045.53444  23560695.1924   23560697.8434
 -15731274.31344 -12258128.64344  21986520.2204   21986523.1144
  -5811620.67744  -4528516.01744  22944539.8104   22944540.9294
  -8098501.80644  -6310510.25244  22895742.8984   22895745.9274
 -26347673.37744 -20530639.45644  20245244.4864   20245245.8614
  -7313403.512 4  -5698746.289 4  23719003.894    23718999.572
 -19123660.77944 -14901533.07144  20533516.2284   20533517.9044
   5920698.27544   4613528.86344  23063746.9604   23063750.0624
 95  4 12  1  4 30.0000000  0  8G 6G20G 4G16G 5G12G24G 9
  -5642838.00544  -4397010.65544  23547759.2884   23547762.4024
 -15813609.81744 -12322286.17944  21970852.9814   21970855.0514
  -5720361.36744  -4457404.88944  22961905.4524   22961905.9634
  -8186452.55044  -6379043.24744  22879006.3504   22879009.7434
 -26364889.43844 -20544054.57344  20241968.5504   20241969.7564
  -7205193.076 4  -5614426.532 4  23739595.567    23739591.621
 -19082089.84844 -14869140.14244  20541427.0034   20541428.6784
   6006642.23444   4680498.14844  23080102.2824   23080104.8424
 95  4 12  1  5  0.0000000  0  8G 6G20G 4G16G 5G12G24G 9
  -5710795.97444  -4449964.88344  23534826.8134   23534829.6814
 -15895692.14544 -12386246.43244  21955233.1094   21955235.5584
  -5628999.35144  -4386213.74344  22979291.0144   22979291.5294
  -8274228.69844  -6447440.19844  22862303.0514   22862305.7004
 -26381653.85144 -20557117.75544  20238778.4094   20238779.4644
  -7096887.021 4  -5530032.256 4  23760205.596    23760201.476
 -19040166.87944 -14836472.89844  20549404.5614   20549406.4564
   6092707.56744   4747562.00144  23096479.7354   23096482.3574
 95  4 12  1  5 30.0000000  0  8G 6G20G 4G16G 5G12G24G 9
  -5778681.17344  -4502862.39944  23521910.1734   23521913.3764
 -15977445.53444 -12449950.34644  21939675.5724   21939678.2444
  -5537471.62244  -4314893.47144  22996708.4354   22996710.0254
  -8361754.60444  -6515642.15144  22845647.4374   22845650.3644
 -26397905.44444 -20569781.33944  20235685.6574   20235686.7484
  -6988415.755 4  -5445509.246 4  23780847.067    23780842.788
 -18997812.46244 -14803469.46444  20557464.4004   20557466.1844
   6178962.85744   4814773.87244  23112893.2464   23112895.6934
 95  4 12  1  6  0.0000000  0  8G 6G20G 4G16G 5G12G24G 9
  -5846578.76444  -4555769.58144  23508989.6114   23508991.8304
 -16058959.86144 -12513467.97944  21924164.5224   21924166.6184
  -5445886.00944  -4243528.09644  23014136.9594   23014137.4414
  -8449131.70744  -6583728.15944  22829020.0284   22829022.9154
 -26413760.64344 -20582136.04244  20232668.3804   20232669.8474
  -6879878.846 4  -5360935.088 4  23801501.020    23801496.827
 -18955141.41644 -14770219.30844  20565584.3224   20565586.3304
   6265300.31044   4882049.77944  23129322.7444   23129325.9074
 95  4 12  1  6 30.0000000  0  8G 6G20G 4G16G 5G12G24G 9
  -5914443.97644  -4608651.54344  23496075.2034   23496078.0334
 -16140182.63444 -12576758.44644  21908707.8334   21908710.2394
  -5354196.88544  -4172082.04044  23031584.4014   23031585.2144
  -8536314.00044  -6651662.35244  22812429.6694   22812433.0894
 -26429170.38144 -20594143.63444  20229736.1314   20229737.3324
  -6771226.892 4  -5276271.282 4  23822176.841    23822172.782
 -18912121.70444 -14736697.46144  20573770.7344   20573772.7584
   6351765.14644   4949424.93044  23145776.4374   23145779.3544
 95  4 12  1  7  0.0000000  0  8G 6G20G 4G16G 5G12G24G 9
  -5982209.51244  -4661455.82344  23483179.7354   23483182.4854
 -16221036.44044 -12639761.39744  21893321.8564   21893324.6304
  -5262316.99344  -4100487.34644  23049069.1004   23049071.0214
  -8623228.06544  -6719387.56144  22795890.2994   22795893.2934
 -26444045.89044 -20605734.94244  20226905.4604   20226906.7084
  -6662374.364 4  -5191451.176 4  23842890.927    23842886.784
 -18868668.69944 -14702837.98144  20582039.4324   20582041.4924
   6438434.28744   5016959.27644  23162269.3324   23162271.3494
 95  4 12  1  7 30.0000000  0  8G 6G20G 4G16G 5G12G24G 9
  -6049940.45944  -4714233.16444  23470291.1784   23470293.9974
 -16301597.11144 -12702535.95044  21877991.8634   21877993.9654
  -5170313.51144  -4028796.35644  23066576.8484   23066577.9294
  -8709954.12844  -6786966.26844  22779387.0134   22779390.5044
 -26458440.44944 -20616951.48744  20224166.3494   20224167.4354
  -6553387.469 4  -5106526.378 4  23863630.472    23863626.284
 -18824855.21844 -14668697.61744  20590376.9674   20590379.0684
   6525252.99544   5084610.17544  23178790.0524   23178793.2874
 95  4 12  1  8  0.0000000  0  8G 6G20G 4G16G 5G12G24G 9
  -6117664.11644  -4767004.81644  23457403.6714   23457405.8144
 -16381903.58944 -12765112.41744  21862709.7094   21862712.3314
  -5078194.74744  -3957015.53344  23084106.3974   23084107.9144
  -8796515.31044  -6854416.49444  22762914.6024   22762916.9554
 -26472364.12844 -20627801.10744  20221516.9034   20221518.1614
  -6444299.630 4  -5021522.928 4  23884389.267    23884385.205
 -18780716.45344 -14634303.77944  20598776.3844   20598778.3134
   6612196.00044   5152357.93644  23195335.2634   23195336.8534
 95  4 12  1  8 30.0000000  0  8G 6G20G 4G16G 5G12G24G 9
  -6185374.41744  -4819766.06744  23444518.3234   23444521.1544
 -16461947.64044 -12827484.39544  21847478.4044   21847480.7204
  -4985936.66844  -3885126.14344  23101662.4034   23101663.3754
  -8882872.17344  -6921707.50544  22746481.7224   22746484.8074
 -26485782.17444 -20638256.73244  20218963.1564   20218964.3404
  -6335093.881 4  -4936427.606 4  23905170.402    23905166.377
 -18736222.01044 -14599632.79144  20607243.5564   20607245.5944
   6699288.51444   5220222.20644  23211908.7814   23211909.6284
 95  4 12  1  9  0.0000000  0  8G 6G20G 4G16G 5G12G24G 9
  -6253084.06944  -4872526.77744  23431633.3704   23431636.3134
 -16541738.69744 -12889659.23244  21832294.3694   21832296.2634
  -4893559.02844  -3813143.59644  23119241.0704   23119241.2424
  -8969039.99244  -6988851.22144  22730084.1724   22730087.3374
 -26498708.96644 -20648329.55844  20216503.3334   20216504.7204
  -6225788.705 4  -4851254.794 4  23925970.517    23925966.522
 -18691383.32844 -14564693.56944  20615775.9604   20615777.9454
   6786519.22044   5288194.16144  23228508.1644   23228510.9414
 95  4 12  1  9 30.0000000  0  8G 6G20G 4G16G 5G12G24G 9
  -6320766.73044  -4925266.49244  23418753.8924   23418756.6924
 -16621256.42544 -12951621.08444  21817162.7184   21817164.9054
  -4801050.27944  -3741058.87044  23136844.9814   23136846.4664
  -9054980.97944  -7055818.17444  22713730.4704   22713733.5164
 -26511129.16444 -20658007.63644  20214140.0214   20214141.1704
  -6116374.350 4  -4765996.899 4  23946791.432    23946787.495
 -18646191.46944 -14529479.13844  20624375.7934   20624377.7384
   6873909.23344   5356290.22744  23245137.2064   23245140.3024
 95  4 12  1 10  0.0000000  0  8G 6G20G 4G16G 5G12G24G 9
  -6388414.00744  -4977978.63044  23405881.1564   23405884.2364
 -16700474.79844 -13013349.67044  21802087.4734   21802089.7524
  -4708415.39944  -3668875.88844  23154472.7014   23154474.8644
  -9140660.78644  -7122581.61844  22697426.2714   22697429.8514
 -26523043.59544 -20667291.60944  20211872.8504   20211874.0024
  -6006843.449 4  -4680648.185 4  23967634.646    23967630.530
 -18600631.32744 -14493977.73944  20633045.5984   20633047.3484
   6961465.17444   5424515.59444  23261799.0614   23261801.8474
 95  4 12  1 10 30.0000000  0  8G 6G20G 4G16G 5G12G24G 9
  -6455983.76844  -5030630.38844  23393022.7614   23393025.3784
 -16779336.00044 -13074799.94844  21787080.7024   21787083.3504
  -4615640.65444  -3596583.91644  23172126.9924   23172128.5054
  -9226029.59744  -7189102.72844  22681180.7164   22681183.2944
 -26534417.13244 -20676154.10744  20209708.2144   20209709.4114
  -5897156.451 4  -4595177.853 4  23988507.458    23988503.082
 -18554670.22744 -14458163.90244  20641791.5744   20641793.1684
   7049227.81944   5492902.02944  23278499.1564   23278502.3684
 95  4 12  1 11  0.0000000  0  8G 6G20G 4G16G 5G12G24G 9
  -6523483.61044  -5083227.62744  23380178.3174   23380181.4864
 -16857845.42244 -13135976.10444  21772140.8264   21772143.9304
  -4522754.28944  -3524204.95844  23189803.0294   23189803.7884
  -9311108.41744  -7255397.87244  22664990.6744   22664993.7264
 -26545267.97444 -20684609.31444  20207643.3374   20207644.6534
  -5787331.694 4  -4509600.184 4  24009406.469    24009402.110
 -18508338.54244 -14422061.29644  20650608.0954   20650609.8104
   7137167.65644   5561426.53744  23295232.9604   23295235.9394
 95  4 12  1 11 30.0000000  0  8G 6G20G 4G16G 5G12G24G 9
  -6590960.52444  -5135807.01144  23367338.5634   23367339.7914
 -16936064.86244 -13196926.30144  21757256.4114   21757258.9974
  -4429810.87844  -3451781.54744  23207489.6554   23207490.0304
  -9395937.33944  -7321498.29544  22648848.6284   22648851.4404
 -26555641.09144 -20692692.26444  20205669.6414   20205670.7284
  -5677416.295 4  -4423951.896 4  24030322.648    24030318.337
 -18461692.26544 -14385713.55944  20659484.7414   20659486.4564
   7225221.76544   5630040.07544  23311989.5724   23311993.1094
 95  4 12  1 12  0.0000000  0  8G 6G20G 4G16G 5G12G24G 9
  -6658424.80744  -5188376.58044  23354500.1494   23354501.8784
 -17013983.73544 -13257642.29044  21742429.3534   21742431.3084
  -4336808.84544  -3379312.45544  23225187.4404   23225188.1424
  -9480519.92344  -7387406.77144  22632752.7424   22632755.9504
 -26565525.97344 -20700394.77744  20203788.6144   20203789.8914
  -5567405.788 4  -4338229.498 4  24051257.128    24051252.630
 -18414729.80944 -14349119.44744  20668421.5364   20668423.1944
   7313382.83844   5698736.96344  23328766.4844   23328769.5414
 95  4 12  1 12 30.0000000  0  8G 6G20G 4G16G 5G12G24G 9
  -6725940.56044  -5240986.22144  23341652.2684   23341655.2954
 -17091665.04844 -13318173.16644  21727646.8014   21727648.8094
  -4243788.66044  -3306829.23444  23242888.4924   23242889.8114
  -9564924.47544  -7453176.50944  22616691.0564   22616693.3364
 -26574971.56644 -20707754.98244  20201991.1764   20201992.3964
  -5457361.334 4  -4252480.637 4  24072198.013    24072193.678
 -18367512.87944 -14312327.04444  20677406.5274   20677408.3924
   7401572.83544   5767456.40244  23345549.1464   23345552.1894
 95  4 12  1 13  0.0000000  0  8G 6G20G 4G16G 5G12G24G 9
  -6793401.39344  -5293553.08544  23328814.3774   23328817.2104
 -17169014.29944 -13378445.29244  21712927.7764   21712930.2314
  -4150638.54844  -3234244.75544  23260613.5314   23260615.6414
  -9649071.53544  -7518745.62844  22600678.2554   22600681.2154
 -26583883.11744 -20714699.05244  20200295.4314   20200296.6894
  -5347185.827 4  -4166629.647 4  24093163.699    24093159.496
 -18319926.51444 -14275246.76844  20686461.8464   20686463.3534
   7489882.04844   5836268.72944  23362353.9994   23362356.8534
 95  4 12  1 13 30.0000000  0  8G 6G20G 4G16G 5G12G24G 9
  -6860879.08244  -5346133.08344  23315974.2914   23315976.8074
 -17246096.44044 -13438509.28544  21698259.5394   21698261.6644
  -4057419.85044  -3161606.83744  23278352.6984   23278354.4424
  -9733025.19244  -7584164.03744  22584702.3084   22584704.9844
 -26592323.10744 -20721275.67544  20198689.1164   20198690.4644
  -5236955.213 4  -4080735.706 4  24114139.845    24114135.638
 -18272029.71444 -14237924.59044  20695576.4294   20695578.3794
   7578259.32544   5905134.10844  23379171.2064   23379174.2334
 95  4 12  1 14  0.0000000  0  8G 6G20G 4G16G 5G12G24G 9
  -6928255.47544  -5398634.14344  23303152.4544   23303155.8374
 -17322765.96844 -13498251.76244  21683669.3964   21683671.9284
  -3964000.14744  -3088812.30244  23296130.2734   23296131.3964
  -9816660.23044  -7649334.17744  22568787.7274   22568789.9214
 -26600174.21644 -20727393.42844  20197195.3724   20197196.4234
  -5126559.512 4  -3994713.130 4  24135147.562    24135143.397
 -18223696.55644 -14200262.40144  20704774.1604   20704775.6534
   7666828.78144   5974149.21444  23396025.4894   23396028.4394
 95  4 12  1 14 30.0000000  0  8G 6G20G 4G16G 5G12G24G 9
  -6995493.84344  -5451027.66844  23290356.8214   23290360.9064
 -17399004.37244 -13557658.29544  21669162.0654   21669164.5114
  -3870357.41244  -3015843.96344  23313950.2884   23313951.4164
  -9899959.71244  -7714242.83244  22552936.0134   22552938.8814
 -26607421.00144 -20733040.27944  20195816.3064   20195817.3984
  -5015983.767 4  -3908550.253 4  24156189.619    24156185.351
 -18174900.87444 -14162239.79544  20714059.5664   20714061.2564
   7755605.82244   6043326.08544  23412919.7864   23412922.2434
 95  4 12  1 15  0.0000000  0  8G 6G20G 4G16G 5G12G24G 9
  -7062694.84844  -5503392.05744  23277569.2894   23277572.0584
 -17474915.92044 -13616810.13244  21654716.2914   21654718.9604
  -3776609.61044  -2942793.77244  23331789.7174   23331790.7724
  -9983022.87644  -7778967.35544  22537129.4324   22537132.2394
 -26614170.78244 -20738299.85444  20194531.7514   20194533.0534
  -4905337.428 4  -3822332.374 4  24177245.074    24177240.621
 -18125761.50744 -14123949.38644  20723410.2714   20723412.1194
   7844489.94544   6112586.39344  23429833.2154   23429836.1784
 95  4 12  1 15 30.0000000  0  8G 6G20G 4G16G 5G12G24G 9
  -7129882.51944  -5555746.05844  23264783.4534   23264787.2314
 -17550514.67444 -13675718.22944  21640330.4094   21640332.7804
  -3682774.71044  -2869675.68344  23349645.9724   23349647.9184
 -10065846.71544  -7843505.37644  22521368.5644   22521371.3534
 -26620432.59444 -20743179.19144  20193340.3044   20193341.6264
  -4794634.111 4  -3736070.115 4  24198311.092    24198306.945
 -18076305.80244 -14085412.48344  20732821.2674   20732823.0714
   7933464.49944   6181917.17344  23446764.2784   23446767.4884
 95  4 12  1 16  0.0000000  0  8G 6G20G 4G16G 5G12G24G 9
  -7197056.57644  -5608089.45444  23252000.4654   23252004.4904
 -17625808.10044 -13734388.43044  21626002.8014   21626004.2014
  -3588857.66244  -2796493.59944  23367517.6184   23367519.3384
 -10148426.42844  -7907853.17244  22505654.2804   22505657.3654
 -26626210.49944 -20747681.46344  20192240.8564   20192241.9624
  -4683872.124 4  -3649762.134 4  24219388.375    24219384.135
 -18026535.34044 -14046630.30844  20742292.3164   20742294.1404
   8022505.56844   6251299.75844  23463708.4254   23463711.9964
 95  4 12  1 16 30.0000000  0  8G 6G20G 4G16G 5G12G24G 9
  -7264194.55344  -5660404.74944  23239225.4054   23239228.5784
 -17700796.31544 -13792820.79544  21611732.4934   21611735.0764
  -3494860.07544  -2723248.76344  23385404.8594   23385405.8384
 -10230736.24544  -7971990.66744  22489991.4174   22489994.0604
 -26631476.08244 -20751784.52044  20191238.8534   20191239.9874
  -4573028.082 4  -3563390.225 4  24240481.438    24240477.125
 -17976437.89444 -14007593.34444  20751825.5994   20751827.4524
   8111633.65144   6320750.15844  23480670.0224   23480671.7374
 95  4 12  1 17  0.0000000  0  8G 6G20G 4G16G 5G12G24G 9
  -7331311.51144  -5712703.68444  23226452.9884   23226455.0054
 -17775485.70644 -13851020.30544  21597519.9484   21597522.4704
  -3400800.19544  -2649955.38344  23403303.7304   23403304.4474
 -10312768.20344  -8035911.65044  22474380.8004   22474383.9664
 -26636227.75744 -20755487.12844  20190334.5484   20190335.6784
  -4462109.023 4  -3476959.857 4  24261588.810    24261584.441
 -17926025.81944 -13968311.21944  20761418.6184   20761420.5374
   8200855.36344   6390273.53944  23497647.5914   23497648.5994
 95  4 12  1 17 30.0000000  0  8G 6G20G 4G16G 5G12G24G 9
  -7398416.66844  -5764993.37344  23213684.1544   23213687.6504
 -17849872.27144 -13908983.85244  21583364.9014   21583367.0114
  -3306686.78544  -2576620.30944  23421213.1394   23421215.0284
 -10394522.97144  -8099616.63044  22458823.7304   22458826.6084
 -26640471.84144 -20758794.21544  20189526.8964   20189528.1184
  -4351126.099 4  -3390479.726 4  24282708.162    24282704.052
 -17875298.51644 -13928783.45844  20771071.5824   20771073.4574
   8290166.52844   6459866.60044  23514642.8374   23514645.6914
 95  4 12  1 18  0.0000000  0  8G 6G20G 4G16G 5G12G24G 9
  -7465529.53244  -5817289.10444  23200912.7284   23200915.5054
 -17923967.19044 -13966720.14344  21569264.8944   21569267.3334
  -3212548.54644  -2503265.84144  23439126.8824   23439125.6614
 -10476015.09344  -8163116.95544  22443316.3354   22443319.0754
 -26644232.64344 -20761724.71744  20188811.4314   20188812.5654
  -4240112.365 4  -3303975.578 4  24303833.340    24303828.827
 -17824292.54244 -13889038.55244  20780777.8374   20780779.6044
   8379541.99444   6529509.78044  23531651.0944   23531653.3794
 95  4 12  1 18 30.0000000  0  8G 6G20G 4G16G 5G12G24G 9
  -7532606.04144  -5869556.49244  23188148.5954   23188151.7784
 -17997714.75944 -14024185.77244  21555231.0824   21555233.3254
  -3118335.95244  -2429853.45944  23457054.7064   23457054.9614
 -10557199.89144  -8226377.80144  22427867.8554   22427870.2924
 -26647469.38244 -20764246.85644  20188195.3554   20188196.8014
  -4129022.637 4  -3217412.233 4  24324973.241    24324968.903
 -17772969.75244 -13849046.78044  20790544.0984   20790546.2024
   8469037.29444   6599246.31944  23548680.9364   23548684.5894
 95  4 12  1 19  0.0000000  0  8G 6G20G 4G16G 5G12G24G 9
  -7599638.93244  -5921789.87844  23175392.7284   23175394.6844
 -18071082.18844 -14081355.19444  21541269.4754   21541272.2284
  -3024023.23844  -2356363.07044  23475001.7844   23475004.1534
 -10638067.12444  -8289391.20444  22412478.7414   22412481.3224
 -26650185.49844 -20766363.31744  20187678.5284   20187679.6564
  -4017852.405 4  -3130786.146 4  24346128.116    24346123.854
 -17721313.12444 -13808794.87344  20800374.4384   20800376.0794
   8558655.69044   6669078.80144  23565734.4914   23565738.4724
 95  4 12  1 19 30.0000000  0  8G 6G20G 4G16G 5G12G24G 9
  -7666638.60944  -5973997.40544  23162643.7944   23162645.1154
 -18144066.59244 -14138226.15044  21527380.9914   21527383.6024
  -2929609.93944  -2282794.28044  23492968.2914   23492970.4494
 -10718627.87744  -8352165.79344  22397148.6234   22397150.7114
 -26652398.94244 -20768088.08444  20187257.2254   20187258.4084
  -3906619.983 4  -3044111.594 4  24367295.184    24367290.640
 -17669341.45644 -13768297.48044  20810264.2354   20810266.0734
   8648369.39744   6738985.52244  23582807.3454   23582809.7374
 95  4 12  1 20  0.0000000  0  8G 6G20G 4G16G 5G12G24G 9
  -7733551.68044  -6026137.44044  23149910.5024   23149912.6224
 -18216630.61644 -14194769.53444  21513572.7914   21513574.9304
  -2835044.60844  -2209107.01644  23510964.0034   23510965.7114
 -10798827.97844  -8414659.34544  22381887.0544   22381889.8794
 -26654044.12444 -20769370.04944  20186944.3194   20186945.5334
  -3795271.217 4  -2957346.380 4  24388484.269    24388479.671
 -17617001.81744 -13727513.36044  20820224.1224   20820226.0544
   8738219.15944   6808998.29544  23599905.3124   23599908.8084
 95  4 12  1 20 30.0000000  0  8G 6G20G 4G16G 5G12G24G 9
  -7800432.68344  -6078252.48044  23137183.3204   23137186.1954
 -18288843.10344 -14251038.99844  21499831.4784   21499833.3884
  -2740395.99844  -2135354.88644  23528975.2094   23528977.3514
 -10878734.22544  -8476923.93244  22366681.0854   22366683.7624
 -26655165.15044 -20770243.58144  20186730.9934   20186732.1874
  -3683865.161 4  -2870536.512 4  24409683.961    24409679.425
 -17564338.13044 -13686476.73444  20830245.7274   20830247.5414
   8828138.37544   6879065.16144  23617015.7064   23617018.8864
 95  4 12  1 21  0.0000000  0  8G 6G20G 4G16G 5G12G24G 9
  -7867306.63644  -6130362.02944  23124457.5674   23124459.9174
 -18360728.07844 -14307053.25444  21486151.8124   21486153.7934
  -2645713.58444  -2061576.40344  23546992.8574   23546992.4614
 -10958376.53744  -8538982.84944  22351525.8784   22351528.1714
 -26655770.61644 -20770715.37944  20186615.6534   20186616.9594
  -3572442.113 4  -2783713.415 4  24430887.148    24430882.493
 -17511384.70844 -13645214.33844  20840322.3064   20840324.2534
   8918076.22844   6949146.55544  23634130.0274   23634132.7364
 95  4 12  1 21 30.0000000  0  8G 6G20G 4G16G 5G12G24G 9
  -7934148.94444  -6182446.92744  23111737.7994   23111739.6614
 -18432283.86444 -14362811.00744  21472535.0044   21472537.2864
  -2550989.10344  -1987765.12944  23565017.5314   23565018.5444
 -11037739.40744  -8600824.02144  22336423.3354   22336425.5984
 -26655813.54044 -20770748.83344  20186607.6744   20186608.9284
  -3460982.470 4  -2696861.809 4  24452097.433    24452092.700
 -17458140.71644 -13603725.52844  20850454.3924   20850456.2564
   9008050.05044   7019255.99044  23651251.2094   23651254.8404
 95  4 12  1 22  0.0000000  0  8G 6G20G 4G16G 5G12G24G 9
  -8000928.03744  -6234482.55744  23099029.6154   23099032.8064
 -18503492.38444 -14418298.15844  21458984.2624   21458986.6194
  -2456210.87044  -1913911.98344  23583053.4934   23583055.2614
 -11116804.87744  -8662433.45144  22321377.7004   22321380.1044
 -26655272.13844 -20770326.96644  20186710.5964   20186711.7164
  -3349464.475 4  -2609964.738 4  24473318.537    24473313.849
 -17404581.14044 -13561990.80944  20860646.2184   20860648.1694
   9098080.43044   7089409.48144  23668383.3084   23668386.9654
 95  4 12  1 22 30.0000000  0  8G 6G20G 4G16G 5G12G24G 9
  -8067630.74044  -6286458.66444  23086336.6774   23086338.6444
 -18574310.23544 -14473480.89144  21445508.6004   21445510.5424
  -2361368.57744  -1840008.89044  23601101.6064   23601103.3604
 -11195558.85544  -8723800.15944  22306391.5154   22306393.7514
 -26654159.86444 -20769460.26644  20186922.3404   20186923.5574
  -3237883.320 4  -2523018.434 4  24494552.132    24494546.966
 -17350708.38044 -13520012.04544  20870897.9524   20870899.7564
   9188177.71544   7159615.08644  23685529.9194   23685533.1274
 95  4 12  1 23  0.0000000  0  8G 6G20G 4G16G 5G12G24G 9
  -8134243.78644  -6338364.90444  23073660.2084   23073662.8604
 -18644709.00944 -14528337.06344  21432112.3404   21432114.4484
  -2266435.29344  -1766034.95944  23619167.0934   23619169.6684
 -11273974.66944  -8784903.35744  22291469.5814   22291472.3854
 -26652477.78244 -20768149.56144  20187242.2034   20187243.4414
  -3126223.700 4  -2436011.010 4  24515800.373    24515794.899
 -17296514.39044 -13477782.97544  20881210.6064   20881212.6324
   9278373.48944   7229897.46444  23702693.9714   23702696.2464
 95  4 12  1 23 30.0000000  0  8G 6G20G 4G16G 5G12G24G 9
  -8200775.30844  -6390207.62444  23060999.9354   23061002.1984
 -18714697.98444 -14582873.91344  21418793.9414   21418796.0834
  -2171407.22244  -1691987.12544  23637249.8204   23637251.1434
 -11352050.55844  -8845741.69044  22276611.9134   22276614.1664
 -26650267.80744 -20766427.51044  20187662.9044   20187664.2154
  -3014498.043 4  -2348952.131 4  24537060.601    24537056.008
 -17242009.69744 -13435311.80444  20891582.7524   20891584.5184
   9368671.40444   7300259.46944  23719876.4224   23719877.7854
 95  4 12  1 24  0.0000000  0  8G 6G20G 4G16G 5G12G24G 9
  -8267272.30744  -6442023.46544  23048345.9094   23048348.5844
 -18784308.44644 -14637115.82344  21405547.1584   21405549.5734
  -2076334.38144  -1617904.42444  23655341.6234   23655343.7504
 -11429817.75544  -8906339.47644  22261813.1984   22261815.4634
 -26647602.98644 -20764351.03344  20188170.0184   20188171.1524
  -2902754.894 4  -2261879.599 4  24558324.924    24558320.297
 -17187217.16944 -13392616.33144  20902009.4634   20902011.4104
   9459025.41644   7370665.13344  23737069.9164   23737073.3454
 95  4 12  1 24 30.0000000  0  8G 6G20G 4G16G 5G12G24G 9
  -8333729.54144  -6493808.31044  23035699.5674   23035701.4544
 -18853525.40544 -14691051.10344  21392375.5694   21392377.9514
  -1981201.81344  -1543775.18244  23673444.5294   23673446.0824
 -11507240.38244  -8966668.76844  22247080.4294   22247083.1064
 -26644443.87744 -20761889.39744  20188771.0964   20188772.4204
  -2790973.392 4  -2174777.216 4  24579596.758    24579591.345
 -17132104.83044 -13349671.66744  20912496.6474   20912498.9524
   9549472.34844   7441143.19544  23754280.4794   23754285.0644
 95  4 12  1 25  0.0000000  0  8G 6G20G 4G16G 5G12G24G 9
  -8400180.03544  -6545587.89544  23023054.0524   23023057.0404
 -18922400.57544 -14744720.05344  21379269.0744   21379271.4124
  -1886039.83844  -1469623.02144  23691553.6544   23691554.6534
 -11584343.04744  -9026748.73944  22232408.0274   22232411.0274
 -26640807.57644 -20759055.92244  20189463.1984   20189464.5664
  -2679186.765 4  -2087670.835 4  24600868.753    24600863.782
 -17076692.60744 -13306493.32544  20923041.3014   20923043.4904
   9639978.71044   7511667.54044  23771503.9604   23771507.0424
 95  4 12  1 25 30.0000000  0  8G 6G20G 4G16G 5G12G24G 9
  -8466608.63744  -6597350.42944  23010414.0544   23010415.9824
 -18990912.26244 -14798105.77144  21366231.5014   21366233.8554
  -1790829.16844  -1395432.90644  23709671.7054   23709672.6804
 -11661105.70544  -9086563.77144  22217800.4894   22217803.5154
 -26636670.46644 -20755832.20944  20190250.4554   20190251.7554
  -2567372.270 4  -2000542.724 4  24622145.657    24622141.307
 -17020961.18344 -13263066.25144  20933646.9104   20933648.7964
   9730550.20844   7582242.68644  23788739.0924   23788741.5754
 95  4 12  1 26  0.0000000  0  7G 6G20G 4G16G 5G24G 9
  -8533019.60144  -6649099.20344  22997775.4944   22997778.4694
 -19059047.56444 -14851198.20344  21353265.9414   21353268.2524
  -1695569.60744  -1321204.71444  23727798.9324   23727800.8204
 -11737516.33444  -9146104.49944  22203259.9044   22203262.2834
 -26631997.90244 -20752191.25744  20191139.6534   20191140.8294
 -16964899.93344 -13219382.17744  20944314.6984   20944317.0134
   9821189.70544   7652870.85744  23805987.9304   23805991.6694
 95  4 12  1 26 30.0000000  0  8G 6G20G 4G16G 5G12G24G 9
  -8599427.79444  -6700845.83644  22985138.9734   22985141.4854
 -19126820.22744 -14904008.07044  21340369.4704   21340371.5574
  -1600264.10344  -1246940.72744  23745935.0024   23745937.8384
 -11813582.38244  -9205376.71744  22188785.2324   22188788.0234
 -26626785.93644 -20748129.99244  20192131.4194   20192132.7294
        -0.82914        -0.81214  24664720.285    24664715.369
 -16908551.22344 -13175474.10044  20955037.7704   20955039.5794
   9911871.22044   7723531.72044  23823243.6234   23823246.9664
 95  4 12  1 27  0.0000000  0  8G 6G20G 4G16G 5G12G24G 9
  -8665818.05244  -6752578.48644  22972505.3784   22972507.5304
 -19194223.49844 -14956530.09144  21327542.9414   21327545.2724
  -1504911.47544  -1172639.99944  23764079.9334   23764082.0334
 -11889310.26544  -9264385.43444  22174374.7614   22174377.6394
 -26621057.30144 -20743666.12944  20193221.4274   20193222.6674
    111880.727 4     87179.554 4  24686009.946    24686005.352
 -16851944.24244 -13131364.76944  20965809.7564   20965811.7314
  10002568.21344   7794204.65644  23840503.1824   23840506.5974
 95  4 12  1 27 30.0000000  0  7G 6G20G 4G16G 5G24G 9
  -8732186.42644  -6804294.08144  22959876.2514   22959878.2394
 -19261254.21544 -15008761.79944  21314787.3504   21314789.6574
  -1409522.61844  -1098311.04544  23782231.8214   23782234.0424
 -11964700.48144  -9323131.03144  22160028.4984   22160030.9034
 -26614803.14744 -20738792.77244  20194411.7234   20194413.1284
 -16795084.19644 -13087058.25644  20976629.8664   20976631.7194
  10093274.64044   7864884.92044  23857763.3944   23857766.5904
 95  4 12  1 28  0.0000000  0  8G 6G20G 4G16G 5G12G24G 9
  -8798500.52344  -6855967.30144  22947256.8684   22947258.6844
 -19327886.49744 -15060683.05744  21302107.6964   21302109.7504
  -1314077.13044  -1023937.98444  23800395.2944   23800396.3434
 -12039730.76844  -9381596.16244  22145750.7874   22145752.9754
 -26607978.52344 -20733474.89244  20195710.2154   20195711.3534
         0.20714         0.05514  24728596.363    24728591.923
 -16737948.68744 -13042537.08944  20987502.5074   20987504.3764
  10184007.56544   7935585.89144  23875029.7924   23875033.0124
 95  4 12  1 28 30.0000000  0  8G 6G20G 4G16G 5G12G24G 9
  -8864712.13344  -6907560.96744  22934657.7004   22934658.3124
 -19394089.08644 -15112269.48144  21289509.4344   21289512.1914
  -1218543.22444   -949496.00344  23818573.7234   23818574.2174
 -12114381.05244  -9439765.18344  22131545.0424   22131548.0724
 -26600549.65044 -20727686.17044  20197123.9024   20197125.3284
    111950.713 4     87234.128 4  24749899.556    24749894.286
 -16680508.95344 -12997778.86544  20998432.9844   20998434.6724
  10274806.25944   8006338.06744  23892308.1764   23892310.6914
 95  4 12  1 29  0.0000000  0  8G 6G20G 4G16G 5G12G24G 9
  -8930864.60244  -6959108.23344  22922068.9944   22922069.5764
 -19459904.86944 -15163554.49144  21276985.5794   21276987.4814
  -1122978.18944   -875029.78844  23836759.7894   23836762.3104
 -12188716.26844  -9497688.70344  22117399.4784   22117402.1974
 -26592574.85244 -20721472.05044  20198641.6084   20198642.6954
    223899.513 4    174466.870 4  24771203.156    24771198.155
 -16622806.57344 -12952815.97644  21009413.3214   21009415.0354
  10365619.08844   8077101.25944  23909589.5484   23909591.5884
 95  4 12  1 29 30.0000000  0  8G 6G20G 4G16G 5G12G24G 9
  -8996961.85744  -7010612.56944  22909491.0714   22909493.1224
 -19525323.04844 -15214529.68844  21264536.9624   21264538.7264
  -1027373.42444   -800532.59644  23854953.1944   23854954.0194
 -12262729.47144  -9555361.30644  22103314.9134   22103317.7454
 -26584032.86544 -20714815.96544  20200267.2194   20200268.4534
    335856.510 4    261706.025 4  24792507.903    24792503.480
 -16564821.03444 -12907632.45344  21020447.3724   21020449.4154
  10456453.28344   8147881.10044  23926873.6864   23926875.5304
 95  4 12  1 30  0.0000000  0  7G 6G20G 4G16G 5G24G 9
  -9062986.52344  -7062060.33244  22896927.0734   22896929.4834
 -19590310.14544 -15265168.97844  21252169.8034   21252172.4324
   -931702.60944   -725983.93444  23873157.7054   23873160.9384
 -12336393.47744  -9612761.79944  22089297.1214   22089299.3914
 -26574913.05544 -20707709.63044  20202002.4124   20202003.5894
 -16506537.56944 -12862216.78144  21031538.3124   21031540.3564
  10547334.33344   8218697.47744  23944168.6554   23944171.8404
 95  4 12  1 30 30.0000000  0  7G 6G20G 4G16G 5G24G 9
  -9128968.83344  -7113475.11544  22884371.0484   22884372.2934
 -19654887.18244 -15315488.73644  21239881.0444   21239883.4914
   -835988.47844   -651401.55244  23891372.1104   23891373.3164
 -12409716.40544  -9669896.52444  22075344.1484   22075346.8344
 -26565272.39344 -20700197.43544  20203837.0334   20203838.5654
 -16447980.66444 -12816588.03044  21042681.6584   21042683.3954
  10638228.32544   8289523.91144  23961464.5874   23961466.2524
 95  4 12  1 31  0.0000000  0  7G 6G20G 4G16G 5G24G 9
  -9194976.69044  -7164909.79744  22871810.3834   22871812.3574
 -19719101.93144 -15365526.20944  21227662.0054   21227664.1344
   -740282.10744   -576825.16844  23909584.4344   23909586.4674
 -12482728.32344  -9726788.90144  22061450.8184   22061453.2534
 -26555163.46444 -20692320.36144  20205760.8134   20205761.9404
 -16389201.72344 -12770786.26744  21053866.6724   21053868.7564
  10729067.80344   8360307.88744  23978751.4734   23978754.6134
 95  4 12  1 31 30.0000000  0  7G 6G20G 4G16G 5G24G 9
  -9260972.25544  -7216334.91344  22859251.7344   22859254.0354
 -19782890.66244 -15415231.70344  21215523.0244   21215525.2514
   -644530.36844   -502213.41544  23927805.2844   23927806.3014
 -12555347.69644  -9783375.40244  22047631.7574   22047634.1654
 -26544520.09244 -20684026.83344  20207786.0194   20207787.3774
 -16330130.25844 -12724756.57044  21065107.6504   21065109.4294
  10819922.41044   8431103.63844  23996040.3664   23996044.5884
 95  4 12  1 32  0.0000000  0  7G 6G20G 4G16G 5G24G 9
  -9326917.93244  -7267721.13244  22846702.3824   22846703.7384
 -19846206.17844 -15464568.46144  21203474.8924   21203476.8964
   -548699.61344   -427540.12544  23946041.4164   23946043.0174
 -12627529.23844  -9839620.73744  22033896.5514   22033898.6144
 -26533315.76744 -20675296.20044  20209918.4634   20209919.5344
 -16270735.62044 -12678475.04244  21076410.4524   21076412.1004
  10910828.10944   8501939.18844  24013339.2024   24013342.9524
 95  4 12  1 32 30.0000000  0  7G 6G20G 4G16G 5G24G 9
  -9392847.97144  -7319095.17544  22834156.1264   22834158.1634
 -19909086.72944 -15513566.28944  21191509.1064   21191510.8194
   -452836.53344   -352841.66044  23964284.0104   23964285.0704
 -12699313.79744  -9895556.73444  22020235.9944   22020238.8804
 -26521576.66144 -20666148.85144  20212152.2104   20212153.5444
 -16211065.17744 -12631978.60944  21087765.0254   21087766.8964
  11001741.27044   8572780.56644  24030638.8764   24030642.0684
 95  4 12  1 33  0.0000000  0  7G 6G20G 4G16G 5G24G 9
  -9458758.25144  -7370453.81844  22821613.8294   22821616.0414
 -19971539.11844 -15562230.48044  21179624.5794   21179626.6574
   -356963.77444   -278135.64544  23982527.2004   23982530.8194
 -12770713.99544  -9951193.22744  22006648.6834   22006651.5154
 -26509289.16444 -20656574.18944  20214490.4404   20214491.7344
 -16151137.38044 -12585281.63544  21099169.1194   21099170.6984
  11092665.57244   8643630.65044  24047941.8434   24047943.8204
 95  4 12  1 33 30.0000000  0  7G 6G20G 4G16G 5G24G 9
  -9524584.79344  -7421747.21144  22809087.2854   22809089.9194
 -20033510.57744 -15610519.91944  21167831.9374   21167833.9094
   -261039.31044   -203389.34844  24000781.1794   24000784.2624
 -12841695.35944 -10006503.35844  21993141.4724   21993144.6224
 -26496424.34344 -20646549.66144  20216938.3274   20216939.6664
 -16090919.98344 -12538358.99544  21110627.9624   21110629.8084
  11183646.27344   8714524.64844  24065255.2424   24065257.7154
 95  4 12  1 34  0.0000000  0  7G 6G20G 4G16G 5G24G 9
  -9590378.70444  -7473015.17344  22796567.0164   22796568.9204
 -20095093.69144 -15658506.75444  21156112.9074   21156114.7784
   -165139.89644   -128662.57544  24019029.9634   24019033.7304
 -12912338.59244 -10061550.01244  21979698.4044   21979701.4864
 -26483061.84144 -20636137.33244  20219481.1724   20219482.4584
 -16030517.79644 -12491292.37344  21122121.9434   21122123.7204
  11274601.69844   8785398.95244  24082564.1394   24082566.1844
 95  4 12  1 34 30.0000000  0  7G 6G20G 4G16G 5G24G 9
  -9656055.70744  -7524192.05444  22784068.7284   22784070.9854
 -20156220.80544 -15706138.26844  21144480.8844   21144483.2184
    -69183.69844    -53891.52544  24037290.3854   24037293.0104
 -12982562.36744 -10116269.81144  21966335.0684   21966338.1004
 -26469108.61444 -20625264.69744  20222136.4924   20222137.5434
 -15969840.61444 -12444011.46544  21133668.6044   21133670.7424
  11365616.23044   8856319.32244  24099882.0174   24099883.4164
 95  4 12  1 35  0.0000000  0  7G 6G20G 4G16G 5G24G 9
  -9721661.16644  -7575313.17744  22771584.4794   22771586.0004
 -20216939.54944 -15753451.56244  21132926.1114   21132928.4674
     26796.33644     20898.07944  24055554.3894   24055556.5554
 -13052402.86944 -10170690.96344  21953044.8684   21953047.9074
 -26454627.49844 -20613980.72344  20224892.1764   20224893.3784
 -15908916.93144 -12396538.48244  21145262.0044   21145263.9144
  11456642.75144   8927249.03044  24117204.0654   24117207.9314
 95  4 12  1 35 30.0000000  0  7G 6G20G 4G16G 5G24G 9
  -9787223.03244  -7626400.33044  22759108.4194   22759110.1754
 -20277278.58344 -15800468.98944  21121444.4774   21121446.5664
    122789.52644     95697.93844  24073821.0574   24073822.8764
 -13121879.78244 -10224828.79444  21939823.8554   21939826.5604
 -26439650.29044 -20602310.18244  20227742.1494   20227743.4024
 -15847761.74944 -12348885.10844  21156899.5374   21156901.3754
  11547660.62044   8998172.01444  24134524.8114   24134527.4784
 95  4 12  1 36  0.0000000  0  7G 6G20G 4G16G 5G24G 9
  -9852792.71344  -7677493.57044  22746630.6334   22746633.2714
 -20337280.46844 -15847223.69744  21110026.4954   21110028.4484
    218749.98744    170472.32144  24092081.4984   24092084.6554
 -13191038.24344 -10278718.48344  21926663.7134   21926666.3374
 -26424197.96644 -20590269.42144  20230682.6624   20230684.0974
 -15786399.11944 -12301070.08744  21168576.3694   21168578.2824
  11638618.25444   9069048.03744  24151832.7314   24151838.8734
 95  4 12  1 36 30.0000000  0  7G 6G20G 4G16G 5G24G 9
  -9918305.61644  -7728542.57244  22734163.8684   22734166.4544
 -20396841.59744 -15893634.95744  21098692.1614   21098694.4604
    314762.73244    245287.40244  24110351.9234   24110354.5924
 -13259794.36144 -10332294.65544  21913579.7724   21913582.4684
 -26408190.40344 -20577796.00744  20233728.6824   20233730.0864
 -15724730.54044 -12253016.66344  21180311.4284   21180313.2534
  11729582.46144   9139929.16044  24169143.2854   24169145.8484
 95  4 12  1 37  0.0000000  0  7G 6G20G 4G16G 5G24G 9
  -9983795.10444  -7779573.32044  22721702.1144   22721704.9904
 -20455979.86944 -15939716.72044  21087438.4164   21087441.2544
    410792.53344    320115.77344  24128626.1434   24128627.6734
 -13328166.88144 -10385571.91944  21900568.9304   21900571.1394
 -26391664.88144 -20564918.98644  20236873.7294   20236875.0454
 -15662805.27244 -12204763.22344  21192095.5184   21192097.4594
  11820518.61944   9210788.49044  24186447.8794   24186450.9964
 95  4 12  1 37 30.0000000  0  7G 6G20G 4G16G 5G24G 9
 -10049234.84444  -7830565.31744  22709249.1484   22709250.3804
 -20514648.48544 -15985432.51344  21076274.1184   21076276.0564
    506855.74144    394970.17944  24146906.6314   24146909.5804
 -13396123.41744 -10438525.03244  21887637.1624   21887639.9454
 -26374566.80244 -20551595.81944  20240127.2204   20240128.4114
 -15600595.66244 -12156288.21544  21203933.6484   21203935.6454
  11911461.33544   9281652.92944  24203753.0184   24203754.6544
 95  4 12  1 38  0.0000000  0  7G 6G20G 4G16G 5G24G 9
 -10114684.46644  -7881565.00844  22696794.8944   22696796.5844
 -20572887.73344 -16030813.74844  21065191.5764   21065193.5224
    602883.59544    469797.08544  24165179.7764   24165182.0554
 -13463707.76144 -10491188.13444  21874776.3644   21874779.1904
 -26356935.53744 -20537857.18044  20243482.3074   20243483.6484
 -15538166.96144 -12107642.48544  21215813.5284   21215815.3684
  12002334.95344   9352463.47344  24221045.5634   24221048.6104
 95  4 12  1 38 30.0000000  0  7G 6G20G 4G16G 5G24G 9
 -10180122.33344  -7932555.54644  22684343.2284   22684345.0124
 -20630670.65244 -16075839.38544  21054196.1124   21054198.3364
    698891.21244    544608.15844  24183448.8644   24183452.0264
 -13530876.64344 -10543527.50344  21861994.2874   21861997.0874
 -26338751.31744 -20523687.66944  20246942.6704   20246944.1534
 -15475518.29544 -12058825.35344  21227735.2324   21227737.1064
  12093178.82544   9423250.85244  24238333.2944   24238339.1474
 95  4 12  1 39  0.0000000  0  8G 6G20G 4G16G 5G17G24G 9
 -10245567.18044  -7983551.52544  22671889.0944   22671890.8384
 -20688030.30944 -16120535.21244  21043280.9474   21043282.9884
    794832.63044    619367.66744  24201706.4504   24201708.4494
 -13597663.22944 -10595568.97644  21849285.4084   21849288.0274
 -26320048.67744 -20509114.19544  20250501.8314   20250503.1104
         0.07154                  25506052.7684
 -15412688.64644 -12009867.19344  21239691.2974   21239693.2094
  12183966.25944   9493994.28144  24255610.4484   24255612.3454
 95  4 12  1 39 30.0000000  0  8G 6G20G 4G16G 5G17G24G 9
 -10310998.70244  -8034537.11044  22659437.5564   22659440.4394
 -20744956.91444 -16164893.60244  21032447.9394   21032450.2834
    890711.86744    694078.76544  24219952.1774   24219953.8424
 -13664073.09544 -10647316.90644  21836648.1194   21836650.4464
 -26300814.44644 -20494126.49444  20254161.9934   20254163.2214
   -100101.92244                  25487004.5124
 -15349667.81144 -11960760.06544  21251683.6754   21251685.5384
  12274692.13944   9564689.76744  24272875.2644   24272878.3164
 95  4 12  1 40  0.0000000  0  7G 6G20G 4G16G 5G24G 9
 -10376321.03044  -8085437.60244  22647007.6304   22647009.8314
 -20801370.68744 -16208852.38044  21021712.6614   21021714.9314
    986630.04844    768820.16944  24238205.6604   24238207.3834
 -13730021.79544 -10698705.48244  21824098.5804   21824101.0904
 -26280977.67644 -20478669.28344  20257936.6034   20257937.8394
 -15286375.40944 -11911441.32044  21263728.0524   21263729.5504
  12365435.39644   9635398.73044  24290141.9064   24290146.4714
 95  4 12  1 40 30.0000000  0  7G 6G20G 4G16G 5G24G 9
 -10441500.06744  -8136226.42444  22634604.2604   22634606.0404
 -20857246.25544 -16252391.77444  21011079.9934   21011082.4034
   1082633.04144    843627.70044  24256474.1564   24256473.6884
 -13795480.87944 -10749712.55144  21811642.0464   21811644.0754
 -26260532.59144 -20462738.06344  20261827.3574   20261828.4014
 -15222768.70944 -11861877.66644  21275831.9164   21275833.7764
  12456243.15944   9706157.94844  24307422.5434   24307425.2394
 95  4 12  1 41  0.0000000  0  7G 6G20G 4G16G 5G24G 9
 -10506606.46344  -8186958.72044  22622215.2694   22622216.4574
 -20912667.28044 -16295576.98344  21000533.8174   21000535.8904
   1178647.24444    918443.97144  24274745.2674   24274746.4534
 -13860540.63144 -10800408.43044  21799261.5554   21799263.5254
 -26239578.39144 -20446410.12644  20265814.7854   20265815.8904
 -15158915.05244 -11812121.57944  21287983.0464   21287984.5734
  12547009.28944   9776884.79344  24324694.7264   24324699.0124
 95  4 12  1 41 30.0000000  0  7G 6G20G 4G16G 5G24G 9
 -10571672.30344  -8237659.35344  22609833.5234   22609835.0934
 -20967668.90944 -16338435.39144  20990067.4754   20990069.3454
   1274662.95744    993261.37344  24293017.0014   24293017.0574
 -13925216.75244 -10850805.38144  21786954.1224   21786956.1144
 -26218117.57844 -20429687.42744  20269898.5104   20269899.9134
 -15094839.17944 -11762192.33944  21300176.2314   21300178.0584
  12637708.06244   9847559.12344  24341953.0914   24341957.9794
 95  4 12  1 42  0.0000000  0  8G 6G20G 4G16G 5G17G24G 9
 -10636685.69444  -8288319.12044  22597461.3404   22597463.4164
 -21022226.74344 -16380947.98244  20979685.4414   20979687.4644
   1370712.03244   1068104.74244  24311294.8174   24311295.8864
 -13989464.08244 -10900868.21344  21774728.2534   21774730.2304
 -26196123.08144 -20412548.86844  20274084.1524   20274085.3584
        -0.65954                  25392146.9714
 -15030504.10044 -11712061.11944  21312418.7334   21312420.4854
  12728377.04244   9918210.20744  24359206.5604   24359213.3934
 95  4 12  1 42 30.0000000  0  8G 6G20G 4G16G 5G17G24G 9
 -10701653.22544  -8338943.15144  22585098.3504   22585100.8124
 -21076350.05944 -16423121.98644  20969385.6794   20969388.0344
   1466772.68544   1142957.17944  24329573.3264   24329571.6164
 -14053289.67144 -10950602.41044  21762582.5854   21762585.1214
 -26173589.22344 -20394990.03244  20278372.0424   20278373.3904
    -99346.53144                  25373243.9384
 -14965925.81844 -11661740.39144  21324707.5784   21324709.4344
  12818994.42144   9988821.07344  24376452.6024   24376455.0354
 95  4 12  1 43  0.0000000  0  8G 6G20G 4G16G 5G17G24G 9
 -10766560.06744  -8389519.89844  22572746.6574   22572749.6964
 -21130021.10644 -16464943.57544  20959172.6604   20959174.6854
   1562851.74644   1217824.01744  24347857.8934   24347857.0684
 -14116684.07644 -11000000.62744  21750518.9654   21750521.2264
 -26150478.40644 -20376981.61244  20282769.8224   20282771.1544
   -198584.39244   -154740.59844  25354361.2164
 -14901111.58844 -11611235.80644  21337041.4004   21337042.9614
  12909556.37644  10059388.76844  24393686.1404   24393689.4694
 95  4 12  1 43 30.0000000  0  8G 6G20G 4G16G 5G17G24G 9
 -10831432.92944  -8440070.17144  22560402.0094   22560404.9214
 -21183254.05944 -16506423.79244  20949042.7354   20949044.5894
   1658934.62144   1292693.78744  24366140.7464   24366140.7274
 -14179649.42044 -11049064.51744  21738536.9624   21738539.0464
 -26126784.28744 -20358518.67544  20287278.7724   20287279.9804
   -297746.18544   -232009.39744  25335490.7824   25335496.2874
 -14836095.65844 -11560574.04544  21349413.3284   21349415.1264
  13000055.93344  10129907.83844  24410907.2434   24410910.9514
 95  4 12  1 44  0.0000000  0  8G 6G20G 4G16G 5G17G24G 9
 -10896268.42944  -8490591.33244  22548063.9764   22548066.6144
 -21236037.96344 -16547554.10044  20938998.1204   20938999.9584
   1755002.28544   1367551.64744  24384421.6284   24384423.3184
 -14242192.47444 -11097799.33844  21726635.3054   21726637.7604
 -26102538.57444 -20339625.92344  20291892.6174   20291893.8244
   -396842.43644   -309227.17344  25316633.2194   25316635.1984
 -14770892.69144 -11509766.55044  21361820.9804   21361822.6524
  13090482.53144  10200370.10144  24428115.4204   24428118.1044
 95  4 12  1 44 30.0000000  0  8G 6G20G 4G16G 5G17G24G 9
 -10961044.55244  -8541066.22344  22535737.1764   22535739.3824
 -21288344.61644 -16588312.52744  20929044.8424   20929047.1304
   1851071.91544   1442411.05844  24402703.9914   24402705.0124
 -14304301.31344 -11146195.81644  21714816.5794   21714818.8174
 -26077738.15944 -20320300.93844  20296612.1004   20296613.2354
   -495839.96444   -386368.00444  25297793.0964   25297794.3444
 -14705507.68244 -11458817.20044  21374263.4104   21374265.2294
  13180841.84144  10270779.92344  24445308.9344   24445311.7324
 95  4 12  1 45  0.0000000  0  7G 6G 4G20G16G 5G24G 9
 -11025794.07944  -8591520.38744  22523415.9874   22523418.8394
   1947120.87944   1517254.37744  24420982.2794   24420982.4284
 -21340180.20344 -16628703.88444  20919180.8394   20919183.2444
 -14365969.17944 -11194248.68044  21703081.5714   21703083.9184
 -26052417.96644 -20300570.93244  20301430.2014   20301431.5224
 -14639958.26744 -11407739.74944  21386736.6974   21386739.0984
  13271125.54544  10341130.79244  24462489.7134   24462490.0724
 95  4 12  1 45 30.0000000  0  7G 6G20G 4G16G 5G24G 9
 -11090514.99044  -8641952.25244  22511099.8934   22511102.8074
 -21391540.10844 -16668724.58744  20909407.2054   20909409.1844
   2043130.33944   1592066.91044  24439252.0404   24439254.4424
 -14427187.19844 -11241951.01144  21691432.0014   21691434.6874
 -26026590.88244 -20280445.94644  20306345.0944   20306346.3584
 -14574221.88844 -11356516.60844  21399246.5024   21399248.3944
  13361334.47244  10411423.40444  24479655.2304   24479659.3704
 95  4 12  1 46  0.0000000  0  7G 6G20G 4G16G 5G24G 9
 -11155175.39444  -8692336.96344  22498796.2814   22498798.6894
 -21442388.93944 -16708347.04744  20899731.0894   20899733.1894
   2139124.30344   1666867.37644  24457517.8474   24457519.4244
 -14487937.22944 -11289288.67244  21679871.8214   21679873.9814
 -26000242.08244 -20259914.42644  20311359.1774   20311360.2974
 -14508258.94744 -11305116.92744  21411798.5844   21411800.5784
  13451488.57444  10481673.30444  24496811.1164   24496813.2084
 95  4 12  1 46 30.0000000  0  8G 6G20G 4G16G 5G17G24G 9
 -11219756.51044  -8742659.89444  22486507.1504   22486508.9994
 -21492705.39144 -16747554.66344  20890156.1884   20890158.0904
   2235120.93644   1741669.87444  24475785.4644   24475788.2874
 -14548190.14944 -11336238.97944  21668405.8434   21668408.1084
 -25973336.61744 -20238949.14244  20316479.0344   20316480.2574
        -0.42154                  25222638.4714
 -14442052.28344 -11253527.32944  21424397.4544   21424399.6424
  13541600.30644  10551890.21744  24513958.7134   24513961.8544
 95  4 12  1 47  0.0000000  0  8G 6G20G 4G16G 5G17G24G 9
 -11284309.95844  -8792961.27344  22474222.7524   22474224.6084
 -21542559.71744 -16786402.17944  20880669.2614   20880671.2464
   2331044.67944   1816415.63144  24494038.9184   24494042.0344
 -14608016.05044 -11382856.54144  21657021.4904   21657023.6404
 -25945922.17144 -20217587.24944  20321695.6894   20321697.0734
    -98421.47944    -76691.27244  25203910.4554
 -14375642.14544 -11201779.18144  21437034.4664   21437036.4754
  13631614.62744  10622031.20544  24531088.1904   24531093.2744
 95  4 12  1 47 30.0000000  0  8G 6G20G 4G16G 5G17G24G 9
 -11348744.80544  -8843170.21744  22461960.7194   22461962.8614
 -21591888.76144 -16824840.39344  20871282.2684   20871284.5304
   2426988.11644   1891176.72144  24512296.5464   24512298.8894
 -14667367.20644 -11429104.17144  21645727.2434   21645729.5314
 -25917911.86544 -20195761.05244  20327025.8644   20327027.4204
   -196658.97344   -153239.89944  25185216.7784   25185213.6794
 -14308964.80844 -11149822.82444  21449723.1814   21449724.7394
  13721609.89344  10692157.28944  24548214.1144   24548218.9894
 95  4 12  1 48  0.0000000  0  8G 6G20G 4G16G 5G17G24G 9
 -11413119.91844  -8893332.63044  22449710.8934   22449712.5814
 -21640737.07344 -16862904.00944  20861986.6214   20861988.6034
   2522918.67844   1965927.82044  24530552.2864   24530554.1554
 -14726288.59844 -11475016.92144  21634515.0334   21634517.2624
 -25889351.26944 -20173506.05444  20332460.9564   20332462.1594
   -294759.44944   -229681.76444  25166549.7014   25166547.2464
 -14242098.38044 -11097719.12844  21462447.1464   21462449.1384
  13811548.52444  10762239.29944  24565328.8114   24565331.8844
 95  4 12  1 48 30.0000000  0  8G 6G20G 4G16G 5G17G24G 9
 -11477452.69744  -8943462.05444  22437468.5294   22437471.3144
 -21689121.47644 -16900606.13344  20852779.6154   20852781.5344
   2618811.50544   2040649.52444  24548800.0354   24548802.8114
 -14784788.48444 -11520601.22644  21623382.9554   21623385.2534
 -25860255.65144 -20150834.15844  20337997.6674   20337999.0214
   -392746.32944   -306035.12144  25147904.2944   25147901.9374
 -14175056.16744 -11045478.45644  21475204.8704   21475206.9044
  13901423.78944  10832271.92344  24582432.5014   24582435.4424
 95  4 12  1 49  0.0000000  0  8G 6G20G 4G16G 5G17G24G 9
 -11541772.40144  -8993581.28444  22425228.6704   22425230.8394
 -21737052.97944 -16937955.35144  20843658.4644   20843660.4904
   2714658.22444   2115335.25344  24567038.4434   24567041.8814
 -14842881.67244 -11565868.62444  21612328.4784   21612330.2814
 -25830640.51744 -20127757.44744  20343633.5944   20343634.7754
   -490625.10044   -382304.20544  25129276.5624   25129277.1354
 -14107837.06444 -10993099.94444  21487996.6964   21487998.6134
  13991223.84044  10902245.94244  24599520.1714   24599524.9874
 95  4 12  1 49 30.0000000  0  8G 6G20G 4G16G 5G17G24G 9
 -11606080.86944  -9043691.76444  22412991.0114   22412993.5014
 -21784510.95344 -16974935.58744  20834627.3904   20834629.5104
   2810471.71344   2189995.11344  24585271.7064   24585271.7974
 -14900527.71544 -11610787.59844  21601358.3364   21601360.6264
 -25800500.18744 -20104271.49144  20349368.7964   20349369.9204
   -588383.12844   -458479.20544  25110671.7634   25110676.8674
 -14040442.54844 -10940584.75144  21500821.1024   21500823.3034
  14080944.62544  10972158.16844  24616594.0884   24616599.1354
 95  4 12  1 50  0.0000000  0  8G 6G20G 4G16G 5G17G24G 9
 -11670355.59844  -9093775.96144  22400760.1584   22400762.5014
 -21831439.01644 -17011502.90344  20825697.0794   20825699.3924
   2906259.61744   2264635.01244  24603497.6854   24603501.4374
 -14957671.13644 -11655314.91444  21590484.4124   21590486.4474
 -25769810.83044 -20080357.72044  20355208.6814   20355209.9784
   -685995.44444   -534540.65044  25092094.8814   25092099.2774
 -13972811.88544 -10887885.55144  21513690.7424   21513692.9204
  14170608.03144  11042025.70044  24633655.6004   24633660.8084
 95  4 12  1 50 30.0000000  0  8G 6G16G20G 4G 5G17G24G 9
 -11734599.54444  -9143836.16944  22388535.0094   22388536.8554
 -15014333.80144 -11699467.62144  21579701.7604   21579703.8374
 -21877861.42844 -17047676.20644  20816863.3754   20816865.4174
   3001995.89244   2339234.66444  24621715.3824   24621715.1124
 -25738587.42744 -20056027.81144  20361150.0964   20361151.4954
   -783485.62344   -610506.89444  25073537.9184
 -13904949.23444 -10835005.57744  21526604.6984   21526606.7424
  14260163.68344  11111809.23244  24650697.5634   24650702.6744
 95  4 12  1 51  0.0000000  0  8G 6G20G 4G16G 5G17G24G 9
 -11798788.05644  -9193853.16844  22376320.8534   22376322.2244
 -21923765.69944 -17083445.76544  20808127.9544   20808130.2744
   3097712.81144   2413819.30644  24639930.4934   24639932.4324
 -15070493.03244 -11743228.03644  21569014.7714   21569017.2424
 -25706811.43044 -20031267.30844  20367197.0834   20367198.3634
   -880841.77844                  25055011.5474
 -13836853.91844 -10781944.30644  21539562.8314   21539564.7444
  14349617.14144  11181513.12144  24667719.6674   24667724.8504
 95  4 12  1 51 30.0000000  0  8G 6G20G 4G16G 5G17G24G 9
 -11862931.60744  -9243835.14244  22364114.2944   22364116.3234
 -21969181.44744 -17118834.65344  20799485.9494   20799488.0024
   3193385.22944   2488369.21544  24658137.0914   24658140.3864
 -15126174.50044 -11786616.17344  21558419.1444   21558421.2524
 -25674520.25744 -20006105.37044  20373341.9954   20373343.2524
   -978103.99544   -762157.38444  25036506.8944
 -13768580.17144 -10728743.99344  21552555.0484   21552557.0764
  14438941.85544  11251116.81244  24684718.3544   24684718.0134
 95  4 12  1 52  0.0000000  0  8G 6G16G20G 4G 5G17G24G 9
 -11926967.30244  -9293733.07344  22351928.9274   22351930.4074
 -15181348.32644 -11829608.74444  21547920.2194   21547922.2464
 -22014061.26144 -17153805.93644  20790945.3054   20790947.2024
   3289069.64344   2562928.43144  24676345.4894   24676345.2514
 -25641665.37944 -19980504.18644  20379594.1024   20379595.3664
  -1075234.20144   -837843.20844  25018026.6524   25018029.5954
 -13700095.14244 -10675379.04944  21565587.3114   21565589.4154
  14528189.12744  11320660.10644  24701701.4884   24701706.6554
 95  4 12  1 52 30.0000000  0  8G 6G16G20G 4G 5G17G24G 9
 -11990930.28644  -9343574.34044  22339757.3304   22339758.9534
 -15236059.38444 -11872240.71644  21537508.6904   21537510.9874
 -22058461.26744 -17188403.34044  20782496.5794   20782498.6124
   3384736.40544   2637473.96144  24694549.4924   24694552.4794
 -25608289.41244 -19954496.95644  20385945.2384   20385946.6584
  -1172264.55644   -913451.25044  24999563.7204   24999568.1184
 -13631467.03744 -10621902.62744  21578646.6424   21578648.4584
  14617311.87644  11390106.34044  24718660.7434   24718663.1724
 95  4 12  1 53  0.0000000  0  8G 6G16G20G 4G 5G17G24G 9
 -12054813.28044  -9393353.27744  22327600.8144   22327602.3464
 -15290271.90344 -11914484.21544  21527192.3524   21527194.6684
 -22102344.29044 -17222597.89944  20774145.2874   20774147.3904
   3480402.02844   2712018.56344  24712753.7834   24712755.0124
 -25574376.57244 -19928071.38544  20392398.5394   20392400.0434
  -1269167.39644   -988959.93444  24981123.4774   24981127.1554
 -13562680.76844 -10568302.96044  21591736.4744   21591738.4304
  14706366.66644  11459499.57144  24735607.4354   24735610.8704
 95  4 12  1 53 30.0000000  0  8G 6G16G20G 4G 5G17G24G 9
 -12118624.39644  -9443076.21644  22315457.5754   22315460.3364
 -15343994.09844 -11956345.64244  21516969.4494   21516971.6584
 -22145707.91744 -17256387.73744  20765894.1284   20765895.9024
   3576036.22844   2786538.71644  24730952.0924   24730953.8714
 -25539933.25344 -19901232.45444  20398953.0234   20398954.4424
  -1365933.06644  -1064361.68444  24962709.7664   24962709.3724
 -13493736.07744 -10514579.83944  21604856.2164   21604857.6634
  14795347.33544  11528835.13544  24752539.9804   24752545.1644
 95  4 12  1 54  0.0000000  0  8G 6G16G24G20G 4G 5G17G 9
 -12182386.00244  -9492760.56544  22303323.6524   22303326.0264
 -15397252.91044 -11997845.99244  21506834.4874   21506836.8684
 -13424631.38644 -10460732.03544  21618006.4434   21618007.9484
 -22188577.87744 -17289792.90044  20757736.1874   20757738.2574
   3671594.24844   2860999.51144  24749135.8774   24749136.1684
 -25504968.71544 -19873987.37944  20405606.6074   20405607.9144
  -1462564.97244  -1139659.31644  24944320.4184   24944326.1124
  14884226.09444  11598091.23944  24769453.5964   24769457.1814
 95  4 12  1 54 30.0000000  0  8G 6G16G24G20G 4G 5G17G 9
 -12246095.25044  -9542404.12644  22291200.2024   22291202.7184
 -15450048.11244 -12038985.08844  21496787.8444   21496789.9254
 -13355353.18844 -10406749.03244  21631189.4354   21631191.2484
 -22230957.29044 -17322815.81744  20749671.4354   20749673.5934
   3767067.48944   2935394.25244  24767303.6954   24767305.1054
 -25469478.23044 -19846332.47444  20412360.3324   20412361.6834
  -1559045.42144  -1214838.83844  24925959.2914
  14973006.10544  11667270.40344  24786346.7334   24786352.2914
 95  4 12  1 55  0.0000000  0  8G 6G16G24G20G 4G 5G17G 9
 -12309703.65744  -9591969.09644  22279095.9374   22279098.2234
 -15502347.61144 -12079737.91944  21486835.4234   21486837.7264
 -13285862.03944 -10352600.10644  21644412.9664   21644415.3494
 -22272799.17444 -17355419.88644  20741709.3734   20741711.4454
   3862504.20744   3009760.54044  24785466.4174   24785468.8024
 -25433411.91344 -19818228.86944  20419223.2994   20419224.7114
  -1655334.55744  -1289869.21344  24907633.1924
  15061730.54444  11736406.21644  24803231.9484   24803235.6604
 95  4 12  1 55 30.0000000  0  8G 6G16G24G20G 4G 5G17G 9
 -12373228.42044  -9641468.89344  22267007.9624   22267010.1104
 -15554190.52844 -12120134.97544  21476970.1464   21476972.4524
 -13216183.77044 -10298305.37144  21657672.8284   21657674.5234
 -22314138.87944 -17387632.63844  20733842.8264   20733844.8234
   3957894.89144   3084090.97044  24803619.5514   24803622.5154
 -25396790.03644 -19789692.35544  20426192.2514   20426193.6884
  -1751460.57544  -1364772.42944  24889340.1224
  15150342.76244  11805454.63444  24820094.4274   24820099.2894
 95  4 12  1 56  0.0000000  0  8G 6G16G24G20G 4G 5G17G 9
 -12436676.00644  -9690908.55244  22254934.5374   22254936.9004
 -15605577.19344 -12160176.51244  21467191.5414   21467193.6784
 -13146328.05944 -10243872.37044  21670965.4864   21670967.5114
 -22354975.84544 -17419453.65044  20726071.6334   20726073.6134
   4053258.89344   3158400.57944  24821766.5614   24821769.2174
 -25359606.94544 -19760718.53244  20433268.2324   20433269.4344
  -1847441.59944  -1439562.80344  24871077.9394   24871085.3554
  15238846.23344  11874418.32744  24836935.2934   24836937.0464
 95  4 12  1 56 30.0000000  0  8G 6G16G24G20G 4G 5G17G 9
 -12500074.46644  -9740309.92844  22242870.0914   22242871.4834
 -15656499.50544 -12199856.21144  21457501.4294   21457503.8264
 -13076316.96744 -10189318.29044  21684288.5744   21684290.3074
 -22395304.68844 -17450878.71844  20718397.0984   20718399.2954
   4148624.87144   3232711.75544  24839915.1454   24839914.2474
 -25321870.88144 -19731313.82244  20440448.9544   20440450.4094
  -1943292.40044  -1514251.68944  24852838.8824   24852839.9794
  15327232.56944  11943290.74444  24853754.4094   24853755.0584
 95  4 12  1 57  0.0000000  0  8G 6G16G24G20G 4G 5G17G 9
 -12563502.71544  -9789734.52244  22230799.7724   22230801.6864
 -15706994.38744 -12239202.85644  21447892.2614   21447894.1954
 -13006210.50144 -10134689.88344  21697628.9554   21697630.8794
 -22435177.94344 -17481948.78444  20710809.5754   20710811.6404
   4243933.81044   3306978.45844  24858051.2394   24858052.7214
 -25283646.70644 -19701528.76744  20447722.7984   20447724.2694
  -2039082.10544  -1588892.93344  24834612.3384   24834614.4564
  15415428.24544  12012014.60644  24870538.3204   24870540.0914
 95  4 12  1 57 30.0000000  0  8G 6G16G20G 4G 5G17G24G 9
 -12626955.01844  -9839177.84644  22218725.1734   22218727.8934
 -15757022.06444 -12278185.43844  21438372.6494   21438374.6744
 -22474579.61044 -17512651.38244  20703311.7044   20703313.6134
   4339179.70344   3381196.02444  24876174.9284   24876177.1204
 -25244919.98444 -19671352.11544  20455092.3834   20455093.7594
  -2134787.37444  -1663468.41544  24816399.9284   24816400.2324
 -12935987.97444 -10079971.04044  21710991.9944   21710993.6784
  15503452.01244  12080604.47344  24887287.7914   24887291.2564
 95  4 12  1 58  0.0000000  0  8G 6G16G24G20G 4G 5G17G 9
 -12690361.02744  -9888585.10944  22206659.3674   22206661.2894
 -15806486.25744 -12316728.94744  21428959.7114   21428961.7974
 -12865574.72844 -10025103.59544  21724391.3674   21724393.1664
 -22513420.64644 -17542917.11944  20695920.7804   20695922.9474
   4434413.78544   3455404.40044  24894296.3214   24894299.4414
 -25205629.95844 -19640736.52344  20462569.1504   20462570.5974
  -2230331.88644  -1737918.62044  24798219.4584   24798222.6334
  15591377.60644  12149117.85544  24904019.9064   24904022.2954
 95  4 12  1 58 30.0000000  0  8G 6G16G24G20G 4G 5G17G 9
 -12753711.32244  -9937948.95844  22194604.3044   22194606.4074
 -15855373.72744 -12354823.06144  21419656.7734   21419658.7904
 -12794963.32644  -9970081.73944  21737827.8184   21737830.2914
 -22551689.15744 -17572736.73544  20688638.1324   20688640.0274
   4529621.28844   3529592.08144  24912413.4224
 -25165801.34044 -19609701.24844  20470148.3324   20470149.6134
  -2325709.32244  -1812238.67544  24780069.2524   24780071.8974
  15679181.45844  12217536.33144  24920727.9714   24920730.1494
 95  4 12  1 59  0.0000000  0  8G 6G16G24G20G 4G 5G17G 9
 -12816981.76544  -9987250.58244  22182564.0634   22182566.2724
 -15903702.79344 -12392482.05344  21410460.3404   21410462.5234
 -12724169.84844  -9914918.00944  21751299.4684   21751302.0024
 -22589394.33644 -17602117.38744  20681463.2144   20681465.2904
   4624754.12844   3603721.54044  24930516.1684
 -25125461.77344 -19578267.83444  20477824.5744   20477825.7224
  -2420931.81544  -1886437.93244  24761948.7304   24761951.9114
  15766852.00344  12285850.95244  24937411.9414   24937416.0734
 95  4 12  1 59 30.0000000  0  8G 6G16G24G20G 4G 5G17G 9
 -12880146.58744 -10036469.89844  22170544.5114   22170546.8474
 -15951485.29144 -12429715.15244  21401367.3604   21401369.3624
 -12653200.74844  -9859617.42644  21764804.6214   21764806.5274
 -22626518.90544 -17631045.62144  20674398.6664   20674400.6394
   4719822.40344                  24948608.0854
 -25084602.62444 -19546429.55144  20485599.4624   20485601.0814
  -2515987.24044  -1960507.02344  24743857.3104   24743865.9974
  15854396.70044  12354067.52744  24954071.8484   24954076.9994
 95  4 12  2  0  0.0000000  0  8G 6G16G24G20G 4G 5G17G 9
 -12943226.74144 -10085623.25044  22158540.7214   22158542.8354
 -15998784.56544 -12466571.71244  21392366.3444   21392368.7144
 -12582097.21444  -9804212.09144  21778335.1944   21778337.1514
 -22663098.10944 -17659548.89644  20667437.8614   20667439.9454
   4814799.56144                  24966682.7334
 -25043271.57344 -19514223.55744  20493464.8754   20493466.2744
  -2610916.93544  -2034478.15044  24725793.1034   24725800.2044
  15941753.68744  12422137.78444  24970695.4094   24970702.4254
 95  4 12  2  0 30.0000000  0  8G 6G16G24G20G 4G 5G17G 9
 -13006203.28044 -10134695.87244  22146556.7524   22146558.3874
 -16045625.73944 -12503071.30644  21383452.8114   21383455.3614
 -12510875.06744  -9748714.33244  21791888.3914   21791890.1334
 -22699155.36944 -17687645.45544  20660576.6784   20660578.8254
   4909690.79644                  24984740.2514
 -25001458.59144 -19481642.03044  20501421.4894   20501423.0594
  -2705709.83144  -2108342.65244  24707754.8804   24707758.0504
  16028929.70044  12490067.02944  24987283.2364   24987286.9264
 95  4 12  2  1  0.0000000  0  8G 6G16G20G 4G 5G17G24G 9
 -13068984.17044 -10183616.03044  22134609.7624   22134611.8924
 -16091929.01344 -12539151.76344  21374641.7824   21374644.1344
 -22734610.80944 -17715273.07144  20653829.4654   20653831.3904
   5004594.45344                  25002800.8414
 -24959042.38544 -19448590.45944  20509493.1574   20509494.6024
  -2800264.34444  -2182021.44744  24689761.5044   24689769.1234
 -12439446.73744  -9693055.91444  21805480.5184   21805482.8054
  16116040.76644  12557945.69544  25003861.0054   25003862.3314
 95  4 12  2  1 30.0000000  0  8G 6G16G20G 4G 5G17G24G 9
 -13131606.39744 -10232412.55144  22122693.3114   22122695.2674
 -16137700.28644 -12574817.66944  21365931.7624   21365933.8894
 -22769481.89944 -17742445.34544  20647193.4624   20647195.2744
   5099516.48344                  25020862.4514
 -24916026.98144 -19415071.98344  20517678.5464   20517680.2374
  -2894595.40144  -2255526.11444  24671808.8524   24671814.3794
 -12367812.09644  -9637236.73044  21819112.4104   21819114.2814
  16203079.54944  12625768.00644  25020423.7684   25020427.1524
 95  4 12  2  2  0.0000000  0  8G 6G16G24G20G 4G 5G17G 9
 -13194155.56844 -10281152.14644  22110790.2754   22110792.9094
 -16182987.73744 -12610106.57244  21357313.6184   21357315.8704
 -12296018.83544  -9581293.93744  21832774.1254   21832775.9564
 -22803848.01144 -17769224.12844  20640653.9924   20640655.9444
   5194385.37644                  25038916.0204
 -24872490.79044 -19381147.70244  20525963.4744   20525965.0434
  -2988775.78844  -2328913.35044  24653887.0764
  16289990.75344  12693490.98444  25036961.5924   25036967.5044
 95  4 12  2  2 30.0000000  0  8G 6G16G24G20G 4G 5G17G 9
 -13256677.75944 -10329870.72344  22098892.9034   22098894.9654
 -16227775.92144 -12645006.43744  21348790.8344   21348793.1384
 -12224075.97444  -9525234.58244  21846464.5744   21846467.1174
 -22837721.80744 -17795619.29044  20634207.9414   20634210.2104
   5289188.77244                  25056958.0584
 -24828440.82344 -19346823.07344  20534346.0084   20534347.3274
  -3082826.05244  -2402199.21244  24635991.2254
  16376783.15344  12761121.27444  25053477.6834   25053483.9444
 95  4 12  2  3  0.0000000  0  8G 6G16G24G20G 4G 5G17G 9
 -13319287.34944 -10378657.40244  22086978.5504   22086980.2654
 -16272122.87544 -12679562.48544  21340351.9784   21340354.2354
 -12152051.71244  -9469111.79844  21860170.5254   21860172.1214
 -22871168.09244 -17821681.33044  20627843.4474   20627845.5854
   5383849.24644                  25074970.6724
 -24783961.37144 -19312163.77944  20542810.0934   20542811.4664
  -3176840.89944  -2475457.48744  24618101.7734   24618103.6354
  16463361.22244                  25069954.4174
 95  4 12  2  3 30.0000000  0  8G 6G16G20G 4G 5G17G24G 9
 -13381898.50644 -10427445.30244  22075064.2464   22075066.1544
 -16315933.16944 -12713700.35744  21332015.0944   21332017.3674
 -22904090.37644 -17847335.05844  20621578.7734   20621580.6124
   5478451.58044   4268940.60744  25092971.5134
 -24738985.91944 -19277117.99244  20551368.6444   20551370.1484
  -3270736.25644  -2548622.66344  24600234.7624   24600237.5354
 -12079854.13244  -9412853.96044  21873909.0754   21873910.9354
  16549792.96244  12895933.94544  25086400.3764   25086406.0294
 95  4 12  2  4  0.0000000  0  8G 6G16G20G 4G 5G17G24G 9
 -13444538.51844 -10476255.68444  22063144.1814   22063146.1114
 -16359247.19944 -12747451.52944  21323772.7724   21323774.9814
 -22936521.24144 -17872605.86044  20615406.9034   20615409.1894
   5572946.74644                  25110953.5414
 -24693542.19644 -19241707.31544  20560016.3004   20560017.8464
  -3364538.92244  -2621715.63844  24582385.7604   24582388.0114
 -12007539.57344  -9356504.97544  21887670.0084   21887672.0774
  16636011.39244  12963116.99944  25102808.3954   25102811.4584
 95  4 12  2  4 30.0000000  0  8G 6G16G20G 4G 5G17G24G 9
 -13507099.78744 -10525004.70644  22051239.8074   22051241.3114
 -16401999.01944 -12780764.61344  21315637.4044   21315639.7974
 -22968369.32244 -17897422.54744  20609346.6704   20609348.3004
   5667407.02944                  25128924.8764
 -24647535.88744 -19205858.26144  20568770.8674   20568772.4194
  -3458159.93944  -2694667.02944  24564569.6354   24564570.4694
 -11935052.82044  -9300021.81044  21901463.7914   21901465.5674
  16722082.17244  13030184.95144  25119186.5904   25119188.3354
 95  4 12  2  5  0.0000000  0  8G 6G16G20G 4G 5G17G24G 9
 -13569592.96144 -10573700.67244  22039347.3504   22039348.8324
 -16444265.57044 -12813699.56744  21307594.1614   21307596.5104
 -22999679.54344 -17921820.12344  20603388.4144   20603390.3664
   5761775.34544                  25146883.5964
 -24601024.88944 -19169615.94244  20577621.5594   20577623.1394
  -3551644.07144  -2767511.75444  24546780.4404   24546782.9524
 -11862459.80944  -9243455.84244  21915277.6454   21915279.7454
  16807942.81544  13097089.27244  25135526.8554   25135531.0504
 95  4 12  2  5 30.0000000  0  7G 6G16G17G20G 5G24G 9
 -13631935.61344 -10622279.34644  22027484.0704   22027486.2694
 -16486000.00944 -12846219.89244  21299652.6824   21299654.6314
  -3644933.42844  -2840204.74344  24529027.9564   24529031.7214
 -23030402.33244 -17945759.95644  20597542.0794   20597544.0944
 -24553957.76944 -19132940.28344  20586578.1844   20586579.5874
 -11789730.48744  -9186783.65944  21929117.8604   21929120.0704
  16893651.83844  13163875.37944  25151835.8264
 95  4 12  2  6  0.0000000  0  7G 6G16G20G 5G17G24G 9
 -13694116.37544 -10670731.87144  22015651.1184   22015652.9464
 -16527182.05444 -12878309.78044  21291816.0634   21291817.9644
 -23060531.97244 -17969237.60044  20591808.7724   20591810.7394
 -24506313.07844 -19095814.57144  20595644.7214   20595646.1864
  -3738014.31644  -2912735.26744  24511315.9404   24511318.9704
 -11716877.14544  -9130014.83044  21942981.1584   21942983.1904
  16979226.05644  13230556.46044  25168120.6824   25168123.8374
 95  4 12  2  6 30.0000000  0  7G 6G16G17G20G 5G24G 9
 -13756231.71344 -10719133.41544  22003830.5144   22003832.8044
 -16567890.47844 -12910030.61044  21284069.2424   21284071.2554
  -3830991.34644  -2985184.88644  24493621.9994   24493624.7884
 -23090168.84844 -17992331.27044  20586169.1384   20586171.0304
 -24458201.07144 -19058324.71344  20604800.2644   20604801.6854
 -11643986.80444  -9073217.17944  21956851.6424   21956853.8614
  17064595.00244  13297077.55944  25184365.8414   25184370.3244
 95  4 12  2  7  0.0000000  0  7G 6G16G17G20G 5G24G 9
 -13818213.88944 -10767431.20044  21992035.8344   21992037.8274
 -16608020.73344 -12941300.92344  21276432.6464   21276434.5404
  -3923788.52044  -3057494.31444  24475962.4914   24475965.6484
 -23119244.67544 -18014987.75744  20580636.0464   20580638.0824
 -24409548.48644 -19020413.62544  20614058.7904   20614060.0094
 -11570971.14144  -9016321.85744  21970746.0394   21970748.2464
  17149844.82644  13363505.82944  25200587.5264   25200591.5694
 95  4 12  2  7 30.0000000  0  7G 6G16G17G24G20G 5G 9
 -13880125.52944 -10815674.02844  21980254.4824   21980256.4974
 -16647571.20644 -12972119.45044  21268906.2984   21268908.5574
  -4016432.76044  -3129684.60544  24458330.8724   24458336.4714
 -11497852.19744  -8959346.07544  21984660.4014   21984663.0684
 -23147786.07044 -18037227.80544  20575204.5114   20575206.6284
 -24360383.85544 -18982103.54244  20623414.4134   20623415.5684
  17234946.72444  13429818.85444  25216782.7314   25216788.3454
 95  4 12  2  8  0.0000000  0  7G 6G20G16G 5G17G24G 9
 -13941951.19344 -10863849.85344  21968489.5364   21968491.4324
 -23175748.28744 -18059016.54644  20569883.8484   20569885.8524
 -16686508.05144 -13002459.82844  21261497.0214   21261498.8994
 -24310672.94944 -18943367.79344  20632873.9074   20632875.4744
  -4108891.61744  -3201730.43644  24440734.8294   24440742.3574
 -11424563.85244  -8902238.28344  21998606.7174   21998609.0164
  17319932.72744                  25232954.7514
 95  4 12  2  8 30.0000000  0  7G 6G16G17G24G20G 5G 9
 -14003697.25744 -10911963.65844  21956739.8514   21956742.0464
 -16724848.79144 -13032335.71344  21254201.0724   21254203.1854
  -4201169.87644  -3273635.51244  24423175.3784   24423183.8184
 -11351096.81144  -8844991.24844  22012587.3094   22012589.7194
 -23203128.07144 -18080351.44344  20564673.3154   20564675.4854
 -24260431.11944 -18904218.33744  20642434.6104   20642436.0904
  17404789.47244  13562163.52744  25249103.7024
 95  4 12  2  9  0.0000000  0  7G 6G16G20G 5G17G24G 9
 -14065394.83744 -10960039.67644  21944999.1804   21945001.3834
 -16762644.61744 -13061786.99144  21247008.8974   21247010.8704
 -23229936.51944 -18101241.14044  20559572.2184   20559574.2454
 -24209684.94244 -18864675.88044  20652091.4604   20652092.9354
  -4293280.03444  -3345409.60344  24405649.0494   24405654.9954
 -11277487.94144  -8787633.70744  22026594.6064   22026596.0044
  17489465.53944  13628144.69544  25265216.0064   25265219.0484
 95  4 12  2  9 30.0000000  0  7G 6G16G17G24G20G 5G 9
 -14127071.42944 -11008099.33244  21933262.2734   21933264.4444
 -16799940.53044 -13090848.72244  21239911.2474   21239913.8274
  -4385240.97144  -3417067.43244  24388150.7884   24388153.9804
 -11203752.92044  -8730177.84444  22040626.4724   22040628.0244
 -23256178.60844 -18121689.52044  20554578.1034   20554580.2484
 -24158458.88144 -18824759.48944  20661839.3324   20661840.8614
  17573925.97644  13693957.88144  25281289.7204
 95  4 12  2 10  0.0000000  0  7G 6G16G20G 5G17G24G 9
 -14188684.22944 -11056109.28844  21921537.8294   21921539.5974
 -16836737.62044 -13119521.76144  21232909.0984   21232911.4094
 -23281834.70344 -18141681.28344  20549696.0854   20549698.1654
 -24106730.98444 -18784452.05744  20671682.9544   20671684.4614
  -4477032.24544  -3488593.08144  24370684.2814   24370687.4314
 -11129880.10744  -8672614.62044  22054683.4574   22054685.2054
  17658182.16244  13759611.89044  25297322.4904   25297328.0934
 95  4 12  2 10 30.0000000  0  7G 6G16G20G 5G17G24G 9
 -14250194.11344 -11104039.04244  21909832.8514   21909834.7044
 -16873017.70944 -13147791.94344  21226005.5604   21226007.3804
 -23306895.27944 -18161208.99944  20544927.3894   20544929.3344
 -24054494.09544 -18743748.00844  20681623.3764   20681624.8224
  -4568619.72544  -3559959.90744  24353256.3034   24353260.0134
 -11055878.81944  -8614951.28444  22068765.2654   22068767.3024
  17742249.59644  13825118.81744  25313320.6144   25313323.8154
 95  4 12  2 11  0.0000000  0  7G 6G20G16G 5G17G24G 9
 -14311633.32844 -11151913.73844  21898141.4864   21898143.2224
 -23331401.54644 -18180304.79144  20540263.8964   20540266.0194
 -16908810.37344 -13175682.31244  21219194.6684   21219196.4564
 -24001781.12744 -18702672.98844  20691653.9394   20691655.4054
  -4660038.34544  -3631195.13444  24335858.8944   24335864.0064
 -10981780.35044  -8557212.22544  22082865.6404   22082867.4274
  17826098.23144  13890455.27844  25329275.5034
 95  4 12  2 11 30.0000000  0  8G 6G20G25G16G 5G17G24G 9
 -14372915.92344 -11199666.39044  21886479.5734   21886481.2914
 -23355281.10844 -18198912.23544  20535719.9754   20535721.8654
        -0.21254        -4.59854  25077938.0584   25077938.2834
 -16944010.54044 -13203110.99744  21212495.9824   21212497.8284
 -23948506.92744 -18661160.64644  20701791.7454   20701793.3984
  -4751217.36944  -3702243.65944  24318508.8894   24318509.9434
 -10907490.36244  -8499323.93044  22097002.7354   22097004.3644
  17909823.23044  13955695.35344  25345208.9594   25345213.5924
 95  4 12  2 12  0.0000000  0  8G 6G20G25G16G 5G17G24G 9
 -14434080.80044 -11247327.30944  21874840.1794   21874842.3854
 -23378586.34744 -18217072.15844  20531284.6224   20531286.7884
    -21322.84844                  25073882.0184
 -16978645.31744 -13230099.12044  21205905.0214   21205907.0234
 -23894715.34744 -18619245.14644  20712028.4234   20712029.6864
  -4842196.73944  -3773136.67344  24301195.5424   24301197.4334
 -10833060.68144  -8441326.79344  22111166.2724   22111168.1024
  17993380.65544                  25361108.3844
 95  4 12  2 12 30.0000000  0  8G 6G20G25G16G 5G17G24G 9
 -14495223.10544 -11294970.64444  21863205.6444   21863207.8094
 -23401400.73844 -18234849.60244  20526943.6694   20526945.6654
    -42214.69744                  25069907.4554
 -17012770.57344 -13256690.21244  21199410.9864   21199413.2244
 -23840488.05144 -18576990.12944  20722347.3524   20722348.8864
  -4933056.14544  -3843936.17144  24283904.4524   24283907.6134
 -10758554.85544  -8383270.31744  22125343.9154   22125346.1314
  18076685.62744  14085717.57144  25376961.2594
 95  4 12  2 13  0.0000000  0  8G 6G20G25G16G 5G17G24G 9
 -14556331.77444 -11342587.77244  21851577.2244   21851579.1494
 -23423675.42344 -18252206.49944  20522704.5794   20522706.6484
    -62643.59844    -48819.15444  25066020.6134   25066024.9844
 -17046335.80944 -13282844.92644  21193023.9234   21193025.8724
 -23785792.02444 -18534369.86744  20732755.3144   20732756.8714
  -5023773.01044  -3914624.60144  24266642.4064   24266643.7034
 -10683940.92944  -8325129.61644  22139542.5304   22139544.5494
  18159765.87244                  25392772.5844
 95  4 12  2 13 30.0000000  0  8G 6G20G25G16G 5G17G24G 9
 -14617400.86844 -11390174.06144  21839956.0454   21839958.0474
 -23445394.38744 -18269130.36444  20518571.8534   20518574.0024
    -82606.83344    -64375.77344  25062223.2194   25062226.1254
 -17079329.28444 -13308554.10644  21186745.2814   21186747.5124
 -23730623.30044 -18491381.27244  20743253.8374   20743255.3844
  -5114341.39444  -3985197.28844  24249407.8054   24249411.3884
 -10609228.03344  -8266911.78644  22153760.1014   22153762.0944
  18242624.24444                  25408537.6904
 95  4 12  2 14  0.0000000  0  8G 6G20G25G16G 5G17G24G 9
 -14678421.78644 -11437722.81144  21828343.6964   21828345.7354
 -23466553.89044 -18285618.28844  20514545.0474   20514547.0474
   -102113.93244    -79576.94144  25058510.5714   25058515.0304
 -17111766.69744 -13333829.99444  21180572.5894   21180574.6084
 -23674993.75444 -18448033.59544  20753839.8384   20753841.4424
  -5204761.97644  -4055654.85944  24232200.1854   24232201.8944
 -10534443.17644  -8208637.88044  22167991.7834   22167993.9134
  18325255.63844                  25424264.4864
 95  4 12  2 14 30.0000000  0  8G 6G20G25G16G 5G17G24G 9
 -14739323.04444 -11485178.32644  21816754.2574   21816756.6024
 -23487091.08444 -18301621.29244  20510637.0304   20510639.0964
   -121091.29844    -94366.39844  25054897.9244   25054901.1584
 -17143594.98744 -13358631.24044  21174516.1844   21174517.9124
 -23618849.42044 -18404284.78644  20764523.8314   20764525.4024
  -5294978.68544  -4125953.55044  24215031.4384   24215034.3064
 -10459543.20644  -8150274.27444  22182244.0534   22182246.5374
  18407726.32744                  25439957.8794
 95  4 12  2 15  0.0000000  0  8G 6G20G25G16G 5G17G24G 9
 -14800130.08844 -11532560.42844  21805183.3204   21805185.3184
 -23507052.56944 -18317175.69644  20506838.6214   20506840.6594
   -139569.39244   -108767.31944  25051379.6624   25051380.5734
 -17174876.42144 -13383006.36444  21168563.6004   21168565.3654
 -23562228.45044 -18360164.56944  20775298.1824   20775299.9174
  -5385040.25744  -4196131.40344  24197893.6074   24197897.4824
 -10384590.85244  -8091869.85544  22196507.4064   22196510.1294
  18490002.12344                  25455614.6184
 95  4 12  2 15 30.0000000  0  7G 6G16G17G20G 5G24G 9
 -14860804.69444 -11579839.32444  21793637.3424   21793639.3844
 -17205602.46944 -13406948.71644  21162716.2984   21162718.5644
  -5474920.71244  -4266168.07044  24180790.7904   24180794.3284
 -23526435.20044 -18332279.04344  20503150.2004   20503152.2354
 -23505100.20344 -18315649.07544  20786169.2264   20786170.8414
 -10309554.95444  -8033400.34044  22210786.1074   22210788.6484
  18572103.39244                  25471237.9664
 95  4 12  2 16  0.0000000  0  7G 6G16G17G24G20G 5G 9
 -14921371.93144 -11627034.55644  21782112.3264   21782113.6934
 -17235803.68744 -13430482.11444  21156969.1664   21156971.4794
  -5564640.43344  -4336079.47844  24163716.9874   24163721.5194
 -10234453.16444  -7974879.47944  22225077.5734   22225079.5774
 -23545273.92744 -18346958.57644  20499565.4344   20499567.5604
 -23447486.85844 -18270755.57844  20797133.3124   20797134.8004
  18653997.68144                  25486821.4334
 95  4 12  2 16 30.0000000  0  7G 6G20G16G 5G17G24G 9
 -14981839.57844 -11674152.18644  21770605.5134   21770607.0884
 -23563563.42144 -18361210.12644  20496084.9074   20496086.7904
 -17265467.32244 -13453596.61644  21151324.4014   21151326.4354
 -23389370.21444 -18225469.89944  20808192.4214   20808193.9494
  -5654178.40844  -4405849.25844  24146676.9974   24146683.0204
 -10159256.40044  -7916284.60844  22239386.8744   22239388.7874
  18735688.32444                  25502366.9684
 95  4 12  2 17  0.0000000  0  8G 6G20G25G16G 5G17G24G 9
 -15042194.27544 -11721181.80144  21759120.3424   21759121.9464
 -23581267.26144 -18375005.32844  20492716.0474   20492718.0424
        -0.16654        -1.31954  25038278.5594   25038280.8704
 -17294568.63244 -13476272.94444  21145786.3134   21145788.5024
 -23330723.64744 -18179771.29944  20819352.4934   20819353.9784
  -5743504.30544  -4475453.79744  24129680.0124   24129683.1004
 -10083921.96744  -7857582.46544  22253722.4534   22253725.1954
  18817189.52944                  25517875.5224
 95  4 12  2 17 30.0000000  0  8G 6G20G25G16G 5G17G24G 9
 -15102483.48544 -11768160.39144  21747647.5884   21747649.0414
 -23598401.51444 -18388356.69444  20489455.5174   20489457.6694
    -16012.21844    -12477.48944  25035235.6694   25035238.8204
 -17323135.45144 -13498532.78544  21140350.6274   21140352.6234
 -23271586.89344 -18133690.72744  20830605.7574   20830607.4124
  -5832646.07144  -4544914.87544  24112717.7364   24112720.7934
 -10008480.24644  -7798796.72744  22268078.8304   22268081.1134
  18898465.86244                  25533342.6664
 95  4 12  2 18  0.0000000  0  8G 6G20G25G16G 5G17G24G 9
 -15162676.49144 -11815064.02644  21736193.2294   21736194.5174
 -23614908.16044 -18401219.02244  20486314.3244   20486316.5534
    -31525.70744    -24565.44544  25032290.6394   25032292.6384
 -17351119.68844 -13520338.66844  21135025.8864   21135027.5264
 -23211925.60744 -18087201.43544  20841958.7794   20841960.2894
  -5921570.35944  -4614206.50744  24095794.9414   24095800.8924
  -9932898.92144  -7739902.20644  22282461.0434   22282463.1554
  18979550.16844                  25548773.8784
 95  4 12  2 18 30.0000000  0  8G 6G20G25G16G 5G17G24G 9
 -15222699.52544 -11861835.20244  21724771.5784   21724773.5914
 -23630713.01544 -18413534.49444  20483306.8224   20483308.8724
    -46472.12944    -36209.04444  25029445.7654   25029447.5854
 -17378441.75544 -13541628.57044  21129826.0794   21129827.7864
 -23151679.47944 -18040256.42144  20853423.4034   20853424.9534
  -6010222.48544  -4683286.00244  24078927.2224   24078929.0764
  -9857117.72244  -7680851.94444  22296882.2344   22296883.9654
  19060506.29944                  25564178.2784
 95  4 12  2 19  0.0000000  0  7G 6G25G16G20G 5G17G24
 -15282720.87844 -11908605.07044  21713349.5814   21713351.5434
    -61019.52644    -47538.87744  25026665.6934   25026667.5864
 -17405258.91544 -13562525.04244  21124723.0094   21124724.9764
 -23645985.55944 -18425435.18244  20480400.3954   20480402.4164
 -23091034.37544 -17993000.51744  20864963.7154   20864965.1224
  -6098790.08244  -4752299.69944  24062072.9754   24062075.2834
  -9781319.87644  -7621788.70144  22311306.0404   22311308.0584
 95  4 12  2 19 30.0000000  0  7G 6G25G16G17G24G20G 5
 -15342747.53444 -11955379.06944  21701926.4014   21701928.1244
    -75163.44244    -58550.50344  25023973.1734   25023975.1014
 -17431582.25944 -13583036.72144  21119713.6444   21119715.5994
  -6187288.78244  -4821259.72044  24045231.7774   24045234.7844
  -9705533.50044  -7562734.39344  22325727.6424   22325729.5114
 -23660742.74144 -18436934.28644  20477592.5794   20477594.7274
 -23030004.37344 -17945444.69444  20876577.5624   20876578.6774
 95  4 12  2 20  0.0000000  0  6G 6G16G17G24G20G 5
 -15402615.63844 -12002029.53044  21690534.0544   21690535.5684
 -17457256.69244 -13603042.75544  21114827.9624   21114829.8144
  -6275574.12344  -4890053.44744  24028431.5504   24028435.7044
  -9629614.03744  -7503576.38144  22340174.6184   22340176.9854
 -23674849.72344 -18447926.74444  20474908.0454   20474909.9454
 -22968447.46944 -17897478.29144  20888291.3584   20888293.0964
 95  4 12  2 20 30.0000000  0  7G 6G25G16G17G24G20G 5
 -15462453.60644 -12048656.50244  21679147.1574   21679149.3204
         0.20854        10.87854  25018876.5554   25018878.5624
 -17482425.87044 -13622655.08244  21110038.6084   21110040.5754
  -6363778.89144  -4958784.39244  24011646.7494   24011647.4304
  -9553703.36944  -7444425.22644  22354620.0314   22354622.2794
 -23688454.43744 -18458527.82544  20472319.1384   20472321.0914
 -22906504.91744 -17849211.39044  20900078.7114   20900080.3824
 95  4 12  2 21  0.0000000  0  7G 6G25G16G17G24G20G 5
 -15522126.95644 -12095155.19344  21667791.8984   21667793.8904
    -12630.38544     -9806.04544  25016474.6424   25016476.8364
 -17506962.22344 -13641774.30044  21105369.3274   21105371.1744
  -6451748.98444  -5027332.50744  23994907.3344   23994908.0864
  -9477666.18044  -7385175.48644  22369089.5164   22369091.9024
 -23701426.96344 -18468636.28744  20469850.3734   20469852.6074
 -22844038.45744 -17800536.24544  20911965.5824   20911967.1614
 95  4 12  2 21 30.0000000  0  7G 6G25G16G17G24G20G 5
 -15581608.88844 -12141504.73344  21656472.9724   21656474.5184
    -24704.50844    -19170.51144  25014179.1224   25014181.2014
 -17530857.09444 -13660393.66544  21100822.6804   21100824.4204
  -6539461.71544  -5095680.07944  23978215.6984   23978217.4814
  -9401483.28944  -7325812.20744  22383586.5594   22383588.3174
 -23713747.29644 -18478236.55044  20467506.0514   20467508.1394
 -22781011.22244 -17751424.13144  20923959.3334   20923960.9054
 95  4 12  2 22  0.0000000  0  7G 6G25G16G17G24G20G 5
 -15640916.93644 -12187718.78144  21645186.9714   21645188.9254
    -36245.19044    -28128.66844  25011985.1544   25011987.3244
 -17554128.03544 -13678526.84744  21096394.0814   21096395.8614
  -6626938.07044  -5163843.42544  23961568.7154   23961572.3574
  -9325168.97844  -7266346.51544  22398108.5154   22398110.6024
 -23725444.81844 -18487351.50544  20465280.0274   20465282.1224
 -22717451.33444 -17701896.96744  20936054.4954   20936056.1694
 95  4 12  2 22 30.0000000  0  7G 6G25G16G17G20G 5G24
 -15700098.63544 -12233834.36644  21633924.9954   21633926.7234
    -47275.63744    -36705.77344  25009887.3654   25009889.3804
 -17576819.58244 -13696208.55344  21092076.1114   21092077.9604
  -6714199.94744  -5231839.66344  23944963.2444   23944967.9624
 -23736556.63044 -18496010.06644  20463165.5644   20463167.5134
 -22653397.24144 -17651984.70444  20948243.4364   20948245.1104
  -9248765.02044  -7206810.97244  22412648.0934   22412649.9654
 95  4 12  2 23  0.0000000  0  7G 6G25G16G17G24G20G 5
 -15759184.50844 -12279875.28244  21622681.1744   21622683.0524
    -57808.01544    -44911.05944  25007885.2574   25007887.1374
 -17598938.26244 -13713443.87544  21087866.7264   21087868.7264
  -6801263.31244  -5299681.22544  23928396.2624   23928397.3914
  -9172289.41144  -7147219.59544  22427200.5574   22427201.9584
 -23747096.78144 -18504223.17044  20461160.0784   20461161.9484
 -22588875.46644 -17601708.01544  20960521.3774   20960523.0754
 95  4 12  2 23 30.0000000  0  7G 6G25G16G17G20G 5G24
 -15818178.66544 -12325844.73444  21611455.0524   21611456.4294
    -67830.63244    -52736.09144  25005977.8504   25005979.8694
 -17620475.56544 -13730226.17644  21083768.6244   21083770.2104
  -6888128.90844  -5367368.70044  23911865.6194   23911868.6704
 -23757051.34444 -18511979.98044  20459265.4744   20459267.6134
 -22523900.70144 -17551078.35044  20972885.7074   20972887.4684
  -9095736.06444  -7087567.64744  22441768.0834   22441770.2214
 95  4 12  2 24  0.0000000  0  7G 6G20G25G16G 5G17G24
 -15877109.85544 -12371765.12644  21600240.6744   21600242.5334
 -23766453.70144 -18519306.49044  20457476.5044   20457478.2464
    -77379.04144    -60199.29044  25004161.4864   25004163.6164
 -17641459.98044 -13746577.65144  21079775.1044   21079777.1714
 -22458526.53344 -17500137.46244  20985326.1774   20985327.8874
  -6974815.08144  -5434916.33744  23895369.8624   23895373.8664
  -9019130.09344  -7027874.68644  22456346.1524   22456347.7904
 95  4 12  2 24 30.0000000  0  7G 6G20G25G16G 5G17G24
 -15935972.99144 -12417632.48644  21589039.3094   21589041.2134
 -23775284.89644 -18526187.94144  20455795.9304   20455797.6624
    -86450.04044    -67276.43644  25002432.9614   25002435.3034
 -17661873.38044 -13762484.17844  21075890.8934   21075892.7464
 -22392727.22644 -17448865.29944  20997847.5434   20997849.2044
  -7061296.38644  -5502304.31644  23878912.5514   23878915.7574
  -8942451.00844  -6968124.74744  22470937.6804   22470939.2784
 95  4 12  2 25  0.0000000  0  7G 6G20G25G16G 5G17G24
 -15994755.74644 -12463437.21144  21577853.8914   21577855.2904
 -23783528.83944 -18532611.79344  20454227.1514   20454229.2934
    -95056.31044                  25000796.2204
 -17681708.39944 -13777940.02144  21072116.0614   21072118.1364
 -22326495.99444 -17397256.56644  21010450.8014   21010452.3294
  -7147570.14644  -5569530.60644  23862495.1014   23862499.0774
  -8865684.35244  -6908306.58044  22485546.1024   22485547.1904
 95  4 12  2 25 30.0000000  0  7G 6G20G25G16G 5G17G24
 -16053412.04044 -12509143.39544  21566691.7654   21566693.5124
 -23791156.94144 -18538555.77344  20452775.2404   20452777.3254
   -103181.20844    -80315.64344  24999249.4514   24999255.3004
 -17700960.77544 -13792941.85844  21068452.7134   21068454.5454
 -22259795.04244 -17345281.82144  21023143.8114   21023145.4214
  -7233613.97444  -5636577.70944  23846122.0004   23846126.7064
  -8788805.38044  -6848400.89244  22500175.1944   22500177.1654
 95  4 12  2 26  0.0000000  0  7G 6G20G25G16G 5G17G24
 -16111944.93044 -12554753.42744  21555553.1444   21555554.5564
 -23798200.36644 -18544044.15844  20451435.0514   20451437.2154
   -110852.48144    -86294.16244  24997790.1884   24997792.8854
 -17719655.00744 -13807508.77244  21064895.2504   21064897.1594
 -22192620.61944 -17292938.13144  21035926.5914   21035928.2174
  -7319444.86944  -5703458.93944  23829788.3324   23829792.7934
  -8711842.03744  -6788429.45844  22514820.6414   22514822.8364
 95  4 12  2 26 30.0000000  0  7G 6G20G25G16G 5G17G24
 -16170427.15244 -12600323.97544  21544424.1744   21544426.2554
 -23804722.44944 -18549126.30344  20450194.0154   20450195.9864
   -118118.45544    -91958.32344  24996407.9064   24996410.2784
 -17737861.03544 -13821695.27244  21061430.9004   21061432.7634
 -22125038.90044 -17240277.07044  21048787.0184   21048788.8014
  -7405142.91344  -5770236.60744  23813480.0784   23813485.9064
  -8634876.89244  -6728456.61244  22529466.9304   22529469.4134
 95  4 12  2 27  0.0000000  0  7G 6G20G25G16G 5G17G24
 -16228814.49944 -12645820.58644  21533313.0064   21533315.0054
 -23810689.36944 -18553775.85544  20449058.5404   20449060.4704
   -124932.62344    -97270.82344  24995107.3494   24995108.5484
 -17755546.57444 -13835476.19444  21058065.4544   21058067.1594
 -22057028.58444 -17187282.03844  21061729.1714   21061731.0034
  -7490693.14644  -5836899.04944  23797201.0624   23797205.5374
  -8557885.98144  -6668463.70844  22544117.9304   22544120.3764
 95  4 12  2 27 30.0000000  0  7G 6G20G25G16G 5G17G24
 -16287059.48244 -12691206.26944  21522230.1414   21522231.7624
 -23816058.81044 -18557959.83844  20448036.8444   20448038.7534
   -131239.08544   -102184.32344  24993907.2484   24993907.7824
 -17772652.92144 -13848805.79744  21054810.0844   21054811.8164
 -21988547.30944 -17133920.02544  21074760.3684   21074762.1784
  -7576062.55144  -5903420.64344  23780957.3424   23780960.2654
  -8480825.17944  -6608416.34744  22558782.1124   22558783.9934
 95  4 12  2 28  0.0000000  0  7G 6G20G25G16G 5G17G24
 -16345179.14444 -12736494.30544  21511170.3004   21511171.7044
 -23820833.02244 -18561680.00744  20447128.4474   20447130.3554
   -137033.37644   -106699.28944  24992803.7874   24992804.4794
 -17789156.48044 -13861665.69644  21051669.6504   21051671.4574
 -21919611.23344 -17080203.62244  21087878.3944   21087880.2174
  -7661250.32844  -5969800.73044  23764746.1694   23764747.5674
  -8403704.31144  -6548322.15544  22573458.2864   22573460.3014
 95  4 12  2 28 30.0000000  0  7G 6G20G25G16G 5G17G24
 -16403176.12744 -12781686.74644  21500133.6854   21500135.5724
 -23824984.80944 -18564915.16544  20446338.3354   20446340.4614
   -142307.38544   -110808.89844  24991798.4924   24991798.5844
 -17805037.29444 -13874040.34244  21048647.4244   21048649.6294
 -21850222.76544 -17026134.70844  21101082.6664   21101084.4034
  -7746255.46444  -6036038.45644  23748570.9434   23748573.7894
  -8326509.61944  -6488170.45544  22588147.0694   22588149.7254
 95  4 12  2 29  0.0000000  0  7G 6G20G25G16G 5G17G24
 -16461084.56644 -12826810.18344  21489114.1674   21489115.7954
 -23828557.23744 -18567698.87544  20445658.2764   20445660.2244
   -147132.39844   -114568.52644  24990879.6104   24990880.2254
 -17820336.95144 -13885962.13644  21045735.9554   21045737.8424
 -21780423.77744 -16971745.90644  21114364.5744   21114366.6544
  -7831111.87044  -6102160.34544  23732422.8864   23732425.3054
  -8249277.46744  -6427989.56144  22602843.9014   22602846.2224
 95  4 12  2 29 30.0000000  0  7G 6G20G25G16G 5G17G24
 -16518853.90044 -12871825.23444  21478120.7594   21478122.5324
 -23831494.35144 -18569987.53544  20445099.6424   20445101.6534
   -151472.77144   -117949.49644  24990051.7924   24990052.9024
 -17835005.07244 -13897391.82044  21042944.6854   21042946.6864
 -21710166.82644 -16917000.24944  21127734.1874   21127736.0114
  -7915757.59844  -6168118.02544  23716315.3994   23716317.6724
  -8171964.04944  -6367745.34944  22617555.9754   22617557.5244
 95  4 12  2 30  0.0000000  0  7G 6G20G25G16G 5G17G24
 -16576512.56444 -12916754.05044  21467148.7144   21467150.7784
 -23833824.75244 -18571803.43244  20444656.1094   20444658.2254
   -155361.86644   -120976.58144  24989314.7334   24989315.1434
 -17849069.84844 -13908351.36944  21040268.4664   21040270.2504
 -21639473.94344 -16861914.90644  21141186.5754   21141188.2444
  -8000206.12744  -6233922.04144  23700245.1514   23700248.1864
  -8094605.80844  -6307466.20344  22632276.9624   22632278.8724
 95  4 12  2 30 30.0000000  0  7G 6G20G25G16G 5G17G24
 -16634055.73244 -12961592.86444  21456198.4774   21456200.3934
 -23835553.92544 -18573150.84044  20444327.1134   20444329.1484
   -158804.72244   -123655.95144  24988658.9494   24988659.0164
 -17862541.45044 -13918848.70544  21037704.8504   21037706.5864
 -21568348.64944 -16806492.61144  21154721.9394   21154723.4284
  -8084464.11144  -6299577.61944  23684210.5994   23684214.1774
  -8017198.62444  -6247148.91444  22647007.3374   22647009.2854
 95  4 12  2 31  0.0000000  0  7G 6G20G25G16G 5G17G24
 -16691386.93344 -13006266.51044  21445288.9964   21445290.4404
 -23836606.09644 -18573970.71544  20444126.8714   20444128.8534
   -161695.07144                  24988112.1374
 -17875332.28044 -13928815.56944  21035270.5314   21035272.4164
 -21496707.48244 -16750668.33644  21168354.6564   21168356.0974
  -8168431.27344  -6365006.55744  23668231.9004   23668237.4694
  -7939658.54244  -6186728.05944  22661762.5644   22661764.9214
 95  4 12  2 31 30.0000000  0  7G 6G20G25G16G 5G17G24
 -16748615.10844 -13050859.87744  21434398.7974   21434400.2344
 -23837081.51844 -18574341.17444  20444036.3164   20444038.3654
   -164115.42544   -127790.25244  24987651.1144   24987653.2554
 -17887542.22844 -13938329.80044  21032946.9674   21032949.0074
 -21424655.66344 -16694524.07944  21182065.7924   21182067.4194
  -8252210.17044  -6430288.79944  23652289.5184   23652294.1924
  -7862095.01744  -6126288.94944  22676522.5874   22676524.5294
 95  4 12  2 32  0.0000000  0  7G 6G20G25G16G 5G17G24
 -16805748.05944 -13095379.04444  21423526.7384   21423528.4424
 -23836991.08244 -18574270.70644  20444053.4284   20444055.6694
   -166062.00344   -129303.05944  24987279.7804   24987281.9894
 -17899178.19044 -13947396.77044  21030733.1974   21030734.8864
 -21352200.80844 -16638065.77044  21195853.4034   21195854.8884
  -8335806.92244  -6495429.11144  23636381.1314   23636386.6344
  -7784511.15144  -6065833.98144  22691286.4354   22691288.6284
 95  4 12  2 32 30.0000000  0  7G 6G20G25G16G 5G17G24
 -16862733.80644 -13139783.50344  21412682.9654   21412684.2774
 -23836280.24144 -18573716.80644  20444188.8344   20444191.0194
   -167477.18944   -130402.30244  24987010.0804   24987011.8324
 -17910205.57544 -13955989.52944  21028634.3454   21028636.1224
 -21279293.71744 -16581255.06944  21209727.0874   21209729.0124
  -8419170.01144  -6560387.33544  23620516.8484   23620523.4994
  -7706848.22044  -6005317.42244  22706065.3534   22706067.7954
 95  4 12  2 33  0.0000000  0  7G 6G20G25G16G 5G17G24
 -16919590.34644 -13184087.28944  21401863.2324   21401864.7464
 -23834969.68944 -18572695.59244  20444438.2244   20444440.2334
   -168380.94844   -131104.61244  24986840.1364
 -17920649.94344 -13964127.98144  21026647.2254   21026648.9864
 -21205946.27344 -16524101.23644  21223684.3844   21223686.2954
  -8502302.84844  -6625166.16044  23604697.5894   23604702.4434
  -7629121.04644  -5944750.79544  22720855.6624   22720857.6544
 95  4 12  2 33 30.0000000  0  7G 6G20G25G16G 5G17G24
 -16976338.66844 -13228306.74244  21391064.2204   21391066.0174
 -23833068.60644 -18571214.23244  20444799.9894   20444802.0064
   -168806.29844                  24986758.3524
 -17930530.25444 -13971826.91444  21024766.9734   21024768.3604
 -21132155.64544 -16466602.06144  21237726.4254   21237728.1524
  -8585228.45344  -6689783.47644  23588918.0734   23588921.2934
  -7551338.17444  -5884140.75744  22735657.2234   22735658.7634
 95  4 12  2 34  0.0000000  0  7G 6G20G25G16G 5G17G24
 -17033020.00244 -13272473.99744  21380278.4654   21380279.6264
 -23830609.01844 -18569297.67444  20445267.8844   20445270.0414
   -168790.12144   -131422.12344  24986762.3704   24986761.9274
 -17939874.33544 -13979108.00144  21022988.7194   21022990.4914
 -21057945.72744 -16408776.17144  21251847.8514   21251849.9894
  -8667981.47444  -6754266.33844  23573171.0644   23573174.2464
  -7473530.07244  -5823511.06344  22750463.5074   22750465.4414
 95  4 12  2 34 30.0000000  0  7G 6G20G25G16G 5G17G24
 -17089619.25944 -13316577.30144  21369507.5524   21369509.0914
 -23827572.07544 -18566931.22844  20445846.0744   20445848.0514
   -168318.55444   -131054.66744  24986851.0644   24986852.8744
 -17948656.95644 -13985951.58544  21021317.4184   21021319.0184
 -20983298.68044 -16350609.65944  21266052.6584   21266054.6014
  -8750546.95744  -6818603.04244  23557458.8084   23557463.3744
  -7395678.12844  -5762847.21744  22765278.3214   22765281.5164
 95  4 12  2 35  0.0000000  0  7G 6G20G25G16G 5G17G24
 -17146099.28444 -13360587.69444  21358759.9984   21358761.3644
 -23823923.02744 -18564087.81344  20446540.4524   20446542.4514
   -167367.84044   -130313.86744  24987030.6034   24987032.3214
 -17956826.31444 -13992317.30344  21019762.9344   21019764.8104
 -20908193.48044 -16292086.14844  21280345.0094   21280346.9114
  -8832898.01944  -6882772.66244  23541788.4024   23541791.4884
  -7317761.42044  -5702132.91444  22780105.6774   22780107.9484
 95  4 12  2 35 30.0000000  0  7G 6G20G25G16G 5G17G24
 -17202454.14244 -13404500.55144  21348036.1154   21348037.4824
 -23819644.20344 -18560753.67044  20447354.5264   20447356.5414
   -165939.62444   -129200.93744  24987302.1434   24987304.2284
 -17964375.46844 -13998199.75044  21018326.2414   21018328.1124
 -20832645.48744 -16233217.59644  21294721.3714   21294723.0574
  -8915050.87544  -6946787.85144  23526156.2654   23526157.9724
  -7239797.79244  -5641382.03744  22794942.3044   22794943.2674
 95  4 12  2 36  0.0000000  0  7G 6G20G25G16G 5G17G24
 -17258712.55444 -13448338.26344  21337330.2904   21337331.9734
 -23814782.96144 -18556965.68944  20448279.6054   20448281.6074
   -164080.69344   -127752.45744  24987656.6704   24987658.5334
 -17971351.61244 -14003635.68844  21016998.8794   21017000.5174
 -20756728.12144 -16174061.22544  21309168.1004   21309169.4774
  -8997049.56544  -7010682.90544  23510551.7214   23510553.8824
  -7161843.17044  -5580638.16744  22809776.3814   22809777.8494
 95  4 12  2 36 30.0000000  0  7G 6G20G25G16G 5G17G24
 -17314813.60744 -13492053.34944  21326654.5764   21326656.2634
 -23809305.97344 -18552697.90944  20449321.7774   20449323.7904
   -161767.27944   -125949.88244  24988097.8054   24988101.7504
 -17977731.64744 -14008607.12844  21015784.6874   21015786.3664
 -20680416.47244 -16114597.61744  21323689.4594   21323691.2394
  -9078863.73044  -7074434.15544  23494983.2124   23494985.5234
  -7083859.44544  -5519871.63144  22824615.7194   22824617.6214
 95  4 12  2 37  0.0000000  0  7G 6G20G25G16G 5G17G24
 -17370744.78744 -13535636.07744  21316011.2444   21316012.7884
 -23803196.29844 -18547937.12844  20450484.3744   20450486.4534
   -158983.84044   -123780.99844  24988624.9594   24988628.0454
 -17983519.60444 -14013117.21044  21014683.1124   21014684.8954
 -20603699.32644 -16054818.04544  21338288.3044   21338290.0254
  -9160477.72444  -7138029.42044  23479451.5604   23479454.4234
  -7005837.37044  -5459075.22044  22839463.0624   22839465.2044
 95  4 12  2 37 30.0000000  0  7G 6G20G25G16G 5G17G24
 -17426536.55444 -13579110.17044  21305394.4514   21305396.0614
 -23796487.18344 -18542709.25044  20451761.2684   20451763.4024
   -155753.71744   -121264.88344  24989238.5374   24989238.2424
 -17988746.47844 -14017190.08244  21013688.3294   21013690.0644
 -20526598.50844 -15994739.50944  21352960.3764   21352962.4384
  -9241918.49344  -7201489.68944  23463954.7414   23463956.8844
  -6927793.79844  -5398262.04044  22854313.9444   22854316.3164
 95  4 12  2 38  0.0000000  0  7G 6G20G25G16G 5G17G24
 -17482163.52344 -13622455.84744  21294808.8854   21294810.5444
 -23789173.03944 -18537009.91844  20453153.0604   20453154.7974
   -152050.58344   -118379.43044  24989943.4304   24989946.1974
 -17993374.85944 -14020796.59844  21012807.6884   21012809.5164
 -20449085.85244 -15934340.05544  21367710.1144   21367711.9664
  -9323143.09444  -7264781.53544  23448496.6564   23448499.3374
  -6849683.85944  -5337397.14344  22869177.5334   22869179.6524
 95  4 12  2 38 30.0000000  0  7G 6G20G25G16G 5G17G24
 -17537591.18244 -13665646.21144  21284261.1974   21284262.8304
 -23781210.84944 -18530805.61644  20454668.0784   20454669.8894
   -147829.92644   -115090.58044  24990747.3454   24990750.7184
 -17997353.45544 -14023896.78844  21012050.6214   21012052.5824
 -20371120.87044 -15873588.13744  21382546.6224   21382548.6464
  -9404097.54744  -7327862.87744  23433091.7104   23433095.1754
  -6771460.80344  -5276443.98844  22884063.1004   22884064.4684
 95  4 12  2 39  0.0000000  0  7G 6G20G25G16G 5G17G24
 -17592846.56444 -13708702.33744  21273746.8144   21273748.1214
 -23772622.74344 -18524113.59144  20456302.3654   20456304.3194
   -143100.52944   -111405.37744  24991646.9634
 -18000680.09044 -14026488.95844  21011417.5874   21011419.3664
 -20292732.33944 -15812506.18244  21397463.5204   21397465.5874
  -9484784.42444  -7390735.70744  23417737.3014   23417741.8864
  -6693149.55644  -5215422.45844  22898965.5504   22898967.9124
 95  4 12  2 39 30.0000000  0  7G 6G20G25G16G 5G17G24
 -17647984.14444 -13751666.67244  21263254.2454   21263255.6594
 -23763478.83944 -18516988.47644  20458042.6504   20458044.5284
   -137942.25444                  24992627.8324
 -18003402.61144 -14028610.38844  21010899.4734   21010901.1704
 -20213991.50744 -15751149.71244  21412447.5824   21412449.5934
  -9565267.36744  -7453449.63244  23402422.9934   23402427.1754
  -6614812.17944  -5154380.29544  22913872.4634   22913874.7484
 95  4 12  2 40  0.0000000  0  7G 6G20G25G16G 5G17G24
 -17702993.73344 -13794531.27044  21252786.2664   21252787.8574
 -23753778.38044 -18509429.67644  20459888.1714   20459890.3144
   -132361.07644                  24993689.4424
 -18005524.12444 -14030263.50544  21010495.6704   21010497.4984
 -20134901.26944 -15689520.97344  21427498.0254   21427500.3284
  -9645531.04744  -7515992.69144  23387149.4964   23387153.4064
  -6536450.00444  -5093318.86144  22928784.6864   22928786.2004
 95  4 12  2 40 30.0000000  0  7G 6G20G25G16G 5G17G24
 -17757826.42444 -13837258.03344  21242351.7134   21242353.4674
 -23743451.82944 -18501383.01944  20461853.3874   20461855.5764
   -126302.41644    -98316.99344  24994844.3514
 -18007012.65844 -14031423.39144  21010212.6324   21010214.2934
 -20055396.03344 -15627568.86344  21442627.0614   21442628.9774
  -9725533.47644  -7578332.18544  23371925.4024   23371928.5154
  -6458030.35344  -5032212.64044  22943707.4084   22943709.2144
 95  4 12  2 41  0.0000000  0  7G 6G20G25G16G 5G17G24
 -17812556.70644 -13879904.99544  21231937.0004   21231938.6494
 -23732570.11844 -18492903.76644  20463924.0614   20463926.2644
   -119838.60544    -93280.17044  24996073.7054   24996078.2684
 -18007952.10444 -14032155.41544  21010033.8014   21010035.4034
 -19975530.84444 -15565336.26744  21457824.9384   21457826.6764
  -9805362.10144  -7640536.25544  23356734.3804   23356736.8624
  -6379642.14744  -4971130.92144  22958624.2194   22958626.1174
 95  4 12  2 41 30.0000000  0  7G 6G20G25G16G 5G17G24
 -17867157.37244 -13922450.95244  21221547.2504   21221548.4954
 -23721102.20844 -18483967.73244  20466106.6794   20466108.5804
   -112944.63644    -87908.21544  24997386.7514   24997392.0214
 -18008334.93344 -14032453.71044  21009961.0014   21009962.8264
 -19895270.04844 -15502795.40744  21473098.2184   21473100.1564
  -9884996.70044  -7702589.14144  23341580.3284   23341583.4154
  -6301259.66044  -4910053.65444  22973540.2204   22973541.3834
 95  4 12  2 42  0.0000000  0  7G 6G20G25G16G 5G17G24
 -17921600.10044 -13964873.83444  21211186.8244   21211188.4504
 -23709007.87544 -18474543.58144  20468408.2324   20468409.9624
   -105569.60744    -82161.42544  24998790.6664   24998793.0604
 -18008136.88444 -14032299.37644  21009998.5644   21010000.4014
 -19814575.10044 -15439916.24144  21488454.0714   21488455.9164
  -9964401.13544  -7764462.66844  23326469.4694   23326474.1984
  -6222864.14944  -4848966.25544  22988457.7174   22988459.9754
 95  4 12  2 42 30.0000000  0  7G 6G20G25G16G 5G17G24
 -17975865.99844 -14007158.93344  21200860.2484   21200861.6944
 -23696261.11944 -18464611.04844  20470833.6354   20470835.8034
    -97680.62244                  25000292.6284
 -18007332.37744 -14031672.47644  21010151.5684   21010153.2564
 -19733427.13444 -15376684.07644  21503895.8664   21503897.6544
 -10043574.76244  -7826156.33244  23311403.4154   23311407.2704
  -6144443.05144  -4787858.93344  23003380.9104   23003383.5894
 95  4 12  2 43  0.0000000  0  7G 6G20G25G16G 5G17G24
 -18029976.47144 -14049322.92544  21190563.3524   21190565.0184
 -23682915.35844 -18454211.76244  20473373.3144   20473375.5394
    -89319.85744    -69499.30244  25001884.4564   25001884.0544
 -18005944.66944 -14030591.13144  21010415.5544   21010417.4104
 -19651878.97844 -15313140.07544  21519414.0334   21519416.0984
 -10122544.42944  -7887691.06844  23296375.0504   23296378.2134
  -6066008.34944  -4726740.98144  23018306.0544   23018308.1944
 95  4 12  2 43 30.0000000  0  7G 6G20G25G16G 5G17G24
 -18083970.23844 -14091395.97244  21180288.5524   21180290.2064
 -23669014.38544 -18443379.83644  20476018.1944   20476020.3964
    -80521.52644    -62643.54744  25003558.4634   25003560.2264
 -18004012.40444 -14029085.45844  21010783.4704   21010785.2644
 -19569989.20644 -15249329.87644  21534997.1094   21534998.8124
 -10201344.94544  -7949094.03344  23281380.6024   23281382.2404
  -5987571.10544  -4665621.04444  23033232.5704   23033234.0934
 95  4 12  2 44  0.0000000  0  7G 6G20G25G16G 5G17G24
 -18137772.20644 -14133319.56844  21170050.7894   21170052.1964
 -23654492.78844 -18432064.30844  20478781.8104   20478783.8304
    -71219.31044    -55395.00744  25005327.2874   25005332.6994
 -18001463.15144 -14027099.01044  21011268.6274   21011270.3284
 -19487687.21844 -15185198.47544  21550658.6794   21550660.6144
 -10279914.84244  -8010317.30644  23266429.3744   23266431.7324
  -5909056.68744  -4604440.98144  23048173.5314   23048174.7924
 95  4 12  2 44 30.0000000  0  7G 6G20G25G16G 5G17G24
 -18191414.13344 -14175118.45944  21159843.0074   21159844.3294
 -23639391.43044 -18420297.01644  20481655.7874   20481657.3284
    -61466.19244    -47795.19044  25007183.9354   25007187.3434
 -17998332.46544 -14024659.49644  21011864.1104   21011866.0964
 -19405018.90244 -15120781.62844  21566390.1244   21566391.8414
 -10358295.96044  -8071393.43944  23251513.5414   23251517.4904
  -5830488.77144  -4543219.23144  23063123.6554   23063126.6244
 95  4 12  2 45  0.0000000  0  7G 6G20G25G16G 5G17G24
 -18244860.98344 -14216765.33444  21149672.1044   21149673.9154
 -23623661.13244 -18408039.64344  20484649.0344   20484650.9724
    -51226.78944    -39816.42044  25009134.4604   25009137.6054
 -17994579.16944 -14021734.84044  21012578.6284   21012580.3204
 -19321942.49344 -15056046.77944  21582198.5104   21582200.8834
 -10436425.55944  -8132273.57544  23236645.7734   23236650.2524
  -5751821.82144  -4481920.33644  23078094.1764   23078095.4314
 95  4 12  2 45 30.0000000  0  7G 6G20G25G16G 5G17G24
 -18298170.24744 -14258305.00444  21139527.5704   21139529.2324
 -23607330.54444 -18395314.51744  20487756.4474   20487758.4554
    -40538.94044    -31488.19044  25011167.8594   25011169.5354
 -17990244.57244 -14018357.22144  21013403.2494   21013405.0324
 -19238494.27944 -14991022.21844  21598078.7714   21598080.5294
 -10514353.67344  -8192996.75344  23221817.8334   23221819.4794
  -5673117.62244  -4420592.39444  23093071.0514   23093073.1184
 95  4 12  2 46  0.0000000  0  7G 6G20G25G16G 5G17G24
 -18351332.76044 -14299730.32744  21129411.0894   21129412.6484
 -23590391.35644 -18382115.15444  20490980.1404   20490982.1044
    -29417.05344    -22821.77644  25013284.5224   25013286.1474
 -17985308.82944 -14014511.17044  21014342.5824   21014344.2004
 -19154674.81244 -14925708.36544  21614028.7044   21614030.5294
 -10592069.47744  -8253554.48744  23207029.1134   23207030.9894
  -5594398.76144  -4359253.02544  23108051.0924   23108053.3384
 95  4 12  2 46 30.0000000  0  7G 6G20G25G16G 5G17G24
 -18404341.57544 -14341035.88244  21119324.0564   21119325.5664
 -23572825.88944 -18368427.78344  20494322.6364   20494324.6564
    -17856.56544    -13813.59444  25015485.3854   25015487.4924
 -17979757.21544 -14010185.22544  21015398.9894   21015400.7104
 -19070479.80344 -14860101.88444  21630050.5784   21630052.4374
 -10669551.25944  -8313929.86244  23192284.8224   23192287.2944
  -5515657.36744  -4297896.13844  23123035.3084   23123037.3254
 95  4 12  2 47  0.0000000  0  7G 6G20G25G16G 5G17G24
 -18457234.72144 -14382251.30244  21109259.1524   21109260.6414
 -23554677.35344 -18354286.06744  20497776.2694   20497778.2714
     -5884.19844     -4484.46944  25017762.5514   25017762.3744
 -17973621.41144 -14005404.06444  21016566.5684   21016568.2634
 -18985942.66744 -14794228.80344  21646137.7344   21646139.7324
 -10746839.89444  -8374154.72344  23177576.2584   23177579.2844
  -5436926.78444  -4236547.63844  23138016.9374   23138019.3564
 95  4 12  2 47 30.0000000  0  7G 6G20G25G16G 5G17G24
 -18509978.64944 -14423350.45344  21099221.9434   21099223.4984
 -23535948.11744 -18339691.86044  20501340.2684   20501342.1174
      6504.62444      5169.14244  25020119.7954   25020121.7284
 -17966881.01844 -14000151.79744  21017849.2274   21017850.7964
 -18901059.14444 -14728085.81444  21662290.5694   21662292.6664
 -10823927.71244  -8434223.09644  23162907.1484   23162909.6914
  -5358191.73344  -4175195.64644  23152999.5014   23153001.2354
 95  4 12  2 48  0.0000000  0  7G 6G20G25G16G 5G17G24
 -18562565.60344 -14464327.28244  21089214.8644   21089216.5574
 -23516643.58644 -18324649.37144  20505013.8134   20505015.5944
     19309.38244     15146.90344  25022556.1534   25022555.3414
 -17959539.51344 -13994431.13244  21019246.1744   21019248.0184
 -18815830.32344 -14661673.76544  21678508.8844   21678510.7144
 -10900804.55044  -8494127.07944  23148277.8014   23148282.1384
  -5279455.84044  -4113842.98944  23167982.4264   23167984.6914
 95  4 12  2 48 30.0000000  0  7G 6G20G25G16G 5G17G24
 -18614987.17644 -14505175.24544  21079239.8364   21079241.1654
 -23496760.10044 -18309155.74944  20508797.5044   20508799.4574
     32554.47744     25467.73144  25025075.3874   25025079.7664
 -17951604.48744 -13988247.98444  21020756.2324   21020757.8024
 -18730240.39544 -14594980.34244  21694796.2234   21694798.0774
 -10977456.95844  -8553856.18844  23133691.5914   23133694.4044
  -5200710.78244  -4052483.20444  23182966.6054   23182969.3254
 95  4 12  2 49  0.0000000  0  7G 6G20G25G16G 5G17G24
 -18667258.95444 -14545906.48544  21069292.7014   21069293.9674
 -23476324.96844 -18293232.27944  20512685.9914   20512688.0644
     46227.96344                  25027677.2604
 -17943095.87344 -13981617.88444  21022375.3974   21022377.0514
 -18644317.24144 -14528027.25144  21711146.6734   21711148.6464
 -11053905.80444  -8613426.69444  23119143.1404   23119145.4524
  -5121986.47344  -3991139.58544  23197948.0364   23197949.5984
 95  4 12  2 49 30.0000000  0  7G 6G20G25G16G 5G17G24
 -18719349.83344 -14586496.76444  21059380.1924   21059381.3584
 -23455303.30644 -18276851.76944  20516686.4704   20516688.3624
     60343.63544     47121.62544  25030365.4324   25030367.8904
 -17934002.40944 -13974532.05544  21024105.4934   21024107.1694
 -18558045.50244 -14460802.53544  21727563.9344   21727566.0984
 -11130114.97444  -8672810.40044  23104640.7504   23104643.9024
  -5043281.40244  -3929810.97344  23212925.2644   23212927.3584
 95  4 12  2 50  0.0000000  0  7G 6G20G25G16G 5G17G24
 -18771294.04144 -14626972.75144  21049495.2124   21049496.8774
 -23433706.21344 -18260022.87244  20520796.2184   20520798.3544
     74880.11244     58448.72044  25033131.4734   25033131.5864
 -17924366.92044 -13967023.86544  21025939.5044   21025940.9144
 -18471445.28844 -14393321.87944  21744042.9504   21744044.8404
 -11206120.32044  -8732035.30844  23090178.5634   23090181.1244
  -4964630.66044  -3868524.70644  23227891.7294   23227894.0454
 95  4 12  2 50 30.0000000  0  7G 6G20G25G16G 5G17G24
 -18823020.18244 -14667278.82044  21039652.1854   21039653.5794
 -23411458.39644 -18242686.91544  20525029.8844   20525031.7804
     89903.06144                  25035989.0844
 -17914121.58844 -13959040.48244  21027888.8254   21027890.2474
 -18384453.72944 -14325536.26844  21760596.8564   21760598.6864
 -11281870.18644  -8791061.13344  23075763.5204   23075766.5314
  -4885952.72744  -3807217.25144  23242863.9214   23242866.1204
 95  4 12  2 51  0.0000000  0  7G 6G20G25G16G 5G17G24
 -18874556.42544 -14707436.91644  21029845.2994   21029846.4304
 -23388589.73344 -18224867.18544  20529381.5344   20529383.6674
    105378.92644                  25038932.6064
 -17903285.51644 -13950596.77844  21029951.1084   21029952.6264
 -18297107.11544 -14257473.98044  21777218.5244   21777220.4224
 -11357403.76444  -8849918.41744  23061388.8394   23061394.1174
  -4807253.33544  -3745893.04244  23257840.1194   23257841.0464
 95  4 12  2 51 30.0000000  0  7G 6G20G25G16G 5G17G24
 -18925905.37144 -14747449.06644  21020073.7954   21020075.0274
 -23365103.40444 -18206566.15444  20533850.6494   20533852.5304
    121300.51644     94620.51644  25041959.7074
 -17891854.94644 -13941689.83244  21032126.3874   21032128.1214
 -18209397.91044 -14189129.16444  21793908.9854   21793910.9704
 -11432716.93144  -8908603.93944  23047057.8104   23047060.9654
  -4728516.19344  -3684539.44344  23272823.0854   23272824.4884
 95  4 12  2 52  0.0000000  0  7G 6G20G25G16G 5G17G24
 -18977070.67044 -14787318.11144  21010337.2544   21010338.8494
 -23341016.07344 -18187796.80844  20538434.6314   20538436.6644
    137672.61444    107377.97344  25045074.6184
 -17879803.95644 -13932299.43644  21034419.2914   21034421.2074
 -18121319.26144 -14120496.46244  21810670.3364   21810672.1094
 -11507816.02244  -8967122.66344  23032766.5744   23032769.6874
  -4649717.34144  -3623137.75044  23287818.5184   23287821.5544
 95  4 12  2 52 30.0000000  0  7G 6G20G25G16G 5G17G24
 -19028049.04444 -14827041.50144  21000636.5294   21000637.8894
 -23316341.80844 -18168570.11544  20543129.8824   20543131.8334
    154483.49844                  25048273.3254
 -17867121.10444 -13922416.68444  21036832.8764   21036834.1944
 -18032887.69144 -14051588.76644  21827497.8814   21827499.8804
 -11582687.92544  -9025464.38744  23018519.8524   23018523.8094
  -4570849.93844  -3561682.64644  23302825.3164   23302828.5314
 95  4 12  2 53  0.0000000  0  7G 6G20G25G16G 5G17G24
 -19078831.61244 -14866612.32344  20990972.8474   20990973.8694
 -23291088.42144 -18148892.15944  20547935.5904   20547937.6634
    171730.86744                  25051556.5334
 -17853805.40644 -13912040.80244  21039366.6584   21039368.3124
 -17944106.10044 -13982408.32244  21844392.4554   21844395.1304
 -11657319.44644  -9083618.79144  23004317.5594   23004319.8054
  -4491924.47944  -3500182.29944  23317844.7914   23317846.1404
 95  4 12  2 53 30.0000000  0  7G16G25G 5G17G24G 6G20
 -17839918.75544 -13901220.02544  21042009.2844   21042010.7294
    189344.16844    147641.62644  25054908.2474
 -17855029.90744 -13912998.32644  21861343.1164   21861345.6644
 -11731769.10244  -9141631.47044  22990149.8934   22990153.3354
  -4413031.56844  -3438707.30144  23332857.7494   23332860.9294
 -19129469.92744 -14906070.73844  20981336.6134   20981338.0164
 -23265309.28544 -18128804.53044  20552841.0824   20552843.2944
 95  4 12  2 54  0.0000000  0  7G16G25G 5G17G24G 6G20
 -17825484.40244 -13889972.46644  21044755.7084   21044757.5844
    207315.70344    161645.37244  25058329.8644   25058334.3234
 -17765685.59544 -13843379.40244  21878344.5694   21878347.1594
 -11806052.92444  -9199514.91644  22976013.8374   22976017.5374
  -4334197.10844  -3377277.87744  23347859.5004   23347861.3134
 -19179975.95044 -14945426.06944  20971725.8954   20971727.1584
 -23239003.21844 -18108306.30044  20557847.0224   20557849.0844
 95  4 12  2 54 30.0000000  0  7G16G25G 5G17G24G 6G20
 -17810400.52844 -13878218.78544  21047626.2494   21047627.8104
    225778.86044    176032.16944  25061843.0384   25061847.7554
 -17675942.45444 -13773449.69944  21895422.0234   21895424.5144
 -11880035.72344  -9257163.79844  22961935.8994   22961938.4464
  -4255310.09544  -3315807.51844  23362870.8034   23362873.2504
 -19230216.50544 -14984574.53644  20962165.1244   20962166.6864
 -23212025.92944 -18087285.03544  20562980.6654   20562982.6134
 95  4 12  2 55  0.0000000  0  7G16G25G 5G17G24G 6G20
 -17794734.55044 -13866011.51844  21050607.5574   21050609.3274
    244679.18544    190759.64044  25065438.4814   25065440.7124
 -17585848.44044 -13703246.59344  21912566.6934   21912568.5624
 -11953784.43244  -9314630.29544  22947901.5444   22947904.5574
  -4176438.96444  -3254349.48144  23377879.8704   23377881.0034
 -19280271.32044 -15023578.27244  20952640.0934   20952641.4164
 -23184439.90944 -18065789.43944  20568230.0674   20568232.1064
 95  4 12  2 55 30.0000000  0  7G16G25G 5G17G24G 6G20
 -17778494.99744 -13853357.30944  21053697.8234   21053699.3194
    264011.87744    205824.12644  25069118.9194   25069122.1344
 -17495421.05744 -13632783.71144  21929774.8774   21929776.3514
 -12027300.04344  -9371915.15344  22933912.3514   22933914.9824
  -4097575.66644  -3192897.56044  23392887.1934   23392888.1844
 -19330157.96944 -15062450.96844  20943146.8964   20943148.4544
 -23156244.09544 -18043818.67944  20573595.3904   20573597.5714
 95  4 12  2 56  0.0000000  0  7G16G25G 5G17G24G 6G20
 -17761694.49044 -13840265.99444  21056894.6914   21056896.3354
    283780.46044    221228.12944  25072880.8374   25072883.9684
 -17404672.32444 -13562070.42844  21947043.8804   21947045.1684
 -12100586.88944  -9429021.73544  22919966.0574   22919969.5414
  -4018709.46644  -3131443.38844  23407894.9714   23407896.7264
 -19379886.87044 -15101200.74744  20933683.7124   20933685.2224
 -23127446.88544 -18021379.29744  20579075.4414   20579077.6384
 95  4 12  2 56 30.0000000  0  7G16G25G 5G17G 6G20G24
 -17744359.39444 -13826758.11944  21060193.6124   21060195.2324
    303950.26544    236944.86444  25076719.5284   25076722.6664
 -17313616.43244 -13491117.79944  21964370.7274   21964372.6914
 -12173668.54544  -9485968.44544  22906059.7514   22906062.3164
 -19429467.86644 -15139835.27344  20924248.6534   20924250.1364
 -23098080.62044 -17998496.50244  20584663.5954   20584665.7324
  -3939860.72444  -3070002.80744  23422899.5294   23422901.6974
 95  4 12  2 57  0.0000000  0  7G16G25G 5G17G24G 6G20
 -17726452.33544 -13812804.55544  21063600.8354   21063602.6504
    324528.96044    252979.94644  25080634.1054   25080636.3184
 -17222250.47344 -13419923.55744  21981757.3934   21981759.0644
 -12246517.04744  -9542733.47544  22892197.0524   22892200.2874
  -3860999.12044  -3008552.23444  23437906.7724   23437908.3934
 -19478869.72144 -15178330.21044  20914847.8594   20914849.0124
 -23068135.68044 -17975162.78544  20590362.0274   20590363.9564
 95  4 12  2 57 30.0000000  0  7G16G25G 5G17G 6G20G24
 -17708006.30744 -13798431.02144  21067111.1254   21067112.7234
    345479.33844                  25084621.8394
 -17130624.88644 -13348527.01944  21999192.3354   21999195.0594
 -12319169.34744  -9599345.61044  22878371.4874   22878374.5524
 -19528097.94444 -15216689.84944  20905480.6544   20905481.7604
 -23037651.46444 -17951408.85344  20596163.0304   20596164.9784
  -3782158.83544  -2947118.25344  23452908.9344   23452911.1534
 95  4 12  2 58  0.0000000  0  7G16G25G 5G17G24G 6G20
 -17688966.08044 -13783594.46944  21070734.4754   21070736.0654
    366854.95444    285959.09944  25088690.7284
 -17038661.57644 -13276867.32844  22016693.1134   22016695.3104
 -12391573.63044  -9655764.49544  22864593.4244   22864596.2624
  -3703302.53944  -2885671.81444  23467914.2094   23467918.0824
 -19577079.26344 -15254857.09244  20896159.1804   20896160.9274
 -23006582.11144 -17927198.97044  20602075.2214   20602077.1624
 95  4 12  2 58 30.0000000  0  7G16G25G 5G17G 6G20G24
 -17669345.89144 -13768306.00044  21074468.2794   21074469.8044
    388622.73244    302919.11144  25092833.9084   25092835.5594
 -16946377.93844 -13204958.01544  22034254.0384   22034256.4654
 -12463747.08344  -9712003.52344  22850858.9094   22850861.9924
 -19625827.66044 -15292842.83744  20886882.2584   20886883.8244
 -22974959.93744 -17902558.32144  20608092.6184   20608094.8514
  -3624458.07244  -2824234.58844  23482918.2254   23482920.7524
 95  4 12  2 59  0.0000000  0  7G16G25G 5G17G24G 6G20
 -17649154.76644 -13752572.65144  21078310.2824   21078311.9674
    410768.09444    320172.96244  25097047.6484   25097049.0984
 -16853806.91744 -13132824.78044  22051869.6364   22051871.7774
 -12535711.97044  -9768080.00544  22837164.1084   22837167.3254
  -3545654.75844  -2762829.40244  23497913.8564   23497916.1524
 -19674376.06944 -15330672.75344  20877644.3514   20877645.3374
 -22942809.01744 -17877505.66044  20614210.8434   20614213.0074
 95  4 12  2 59 30.0000000  0  7G16G25G 5G17G 6G20G24
 -17628349.42544 -13736360.68944  21082269.6584   21082271.0534
    433344.99944    337763.43744  25101344.3794   25101343.8794
 -16760889.88344 -13060421.91344  22069551.2844   22069553.1954
 -12607435.58144  -9823968.49244  22823516.4004   22823518.8634
 -19722692.99144 -15368322.28944  20868450.0164   20868451.0034
 -22910075.15744 -17851998.76144  20620439.7834   20620441.8244
  -3466855.05344  -2701427.02744  23512909.7844   23512911.8064
 95  4 12  3  0  0.0000000  0  7G16G25G 5G17G24G 6G20
 -17606958.23544 -13719692.21944  21086339.8604   21086341.5924
    456325.99744    355669.16144  25105718.7174   25105721.6854
 -16667647.33544 -12987765.40844  22087294.9474   22087296.9744
 -12678933.31044  -9879680.97344  22809910.2694   22809913.3264
  -3388083.46944  -2640046.59844  23527899.4554   23527900.3724
 -19770815.35644 -15405820.22044  20859292.5324   20859293.9554
 -22876763.60944 -17826041.71544  20626779.0974   20626780.8684
 95  4 12  3  0 30.0000000  0  7G16G25G 5G17G 6G20G24
 -17584939.56044 -13702534.80644  21090530.1084   21090531.6714
    479748.74944                  25110175.6054
 -16574065.66244 -12914844.63844  22105102.8064   22105104.2524
 -12750157.11244  -9935179.99344  22796356.4534   22796360.3124
 -19818707.35644 -15443138.64444  20850178.8334   20850180.2844
 -22842815.27744 -17799588.47244  20633238.9414   20633240.7784
  -3309283.51344  -2578644.08144  23542894.5584   23542895.9744
 95  4 12  3  1  0.0000000  0  7G16G 5G25G17G24G 6G20
 -17562392.10344 -13684965.35144  21094820.6184   21094822.1324
 -16480266.03444 -12841754.02644  22122952.4494   22122954.3464
    503521.23144    392445.08144  25114698.3354   25114698.4744
 -12821213.22544  -9990548.36544  22782835.2564   22782837.3124
  -3230541.40644  -2517286.59944  23557878.4904   23557879.4764
 -19866474.62044 -15480359.88044  20841088.9024   20841090.4104
 -22808320.52444 -17772709.44944  20639803.1544   20639805.3074
 95  4 12  3  1 30.0000000  0  7G16G25G 5G17G 6G20G24
 -17539277.64744 -13666954.08244  21099219.2324   21099220.6364
    527684.46444    411273.65244  25119295.3374   25119295.7134
 -16386203.25044 -12768458.37244  22140851.9984   22140853.9784
 -12892053.65844 -10045748.65144  22769354.5224   22769357.9434
 -19914059.95444 -15517439.34544  20832033.9944   20832035.1874
 -22773217.53244 -17745356.47944  20646483.0744   20646485.1614
  -3151799.12444  -2455928.97644  23572862.5504   23572865.6654
 95  4 12  3  2  0.0000000  0  7G16G25G 5G17G24G 6G20
 -17515572.70244 -13648482.68944  21103730.0734   21103731.6694
    552259.92044    430423.95544  25123970.8294   25123972.2244
 -16291855.27444 -12694940.48844  22158805.4604   22158807.5234
 -12962647.99244 -10100757.19444  22755920.7114   22755923.8024
  -3073020.54144  -2394543.06044  23587852.9164   23587855.2634
 -19961424.76644 -15554346.97644  20823021.0144   20823021.9824
 -22737484.01344 -17717512.18444  20653283.1294   20653285.2554
 95  4 12  3  2 30.0000000  0  7G16G25G 5G17G 6G20G24
 -17491273.46644 -13629548.21244  21108354.1404   21108355.6524
    577244.95344    449896.15444  25128725.9104   25128727.0404
 -16197224.25344 -12621202.04644  22176813.5234   22176815.4764
 -13033011.08544 -10155585.54144  22742531.2304   22742534.1024
 -20008573.97144 -15591086.60744  20814048.4604   20814049.7744
 -22701158.10844 -17689206.28944  20660195.6454   20660197.8884
  -2994215.53544  -2333136.57444  23602849.6714   23602850.2394
 95  4 12  3  3  0.0000000  0  6G16G 5G17G24G 6G20
 -17466363.92944 -13610138.18144  21113094.2704   21113095.9484
 -16102283.00344 -12547221.87544  22194879.6634   22194881.7014
 -13103140.91944 -10210232.12144  22729186.1874   22729189.6494
  -2915389.70444  -2271713.84344  23617849.6314   23617849.8834
 -20055508.22344 -15627658.73744  20805116.6994   20805118.1724
 -22664259.28444 -17660453.96244  20667217.0704   20667219.3564
 95  4 12  3  3 30.0000000  0  6G16G 5G17G24G 6G20
 -17440869.00744 -13590271.99544  21117945.5674   21117947.1824
 -16007025.30244 -12472995.11344  22213007.6094   22213009.1374
 -13173044.71544 -10264702.58044  22715884.3674   22715887.3194
  -2836568.51844  -2210294.75544  23632849.1314   23632849.8214
 -20102232.26344 -15664067.06644  20796226.0554   20796227.1274
 -22626810.98644 -17631273.47844  20674343.3664   20674345.4634
 95  4 12  3  4  0.0000000  0  7G16G 5G23G17G24G 6G20
 -17414831.73844 -13569983.20944  21122900.2564   21122901.9964
 -15911486.00644 -12398548.92244  22231187.5424   22231189.4604
        -1.13854        -0.96754  25284627.3074
 -13242761.63844 -10319027.41744  22702617.6304   22702620.2254
  -2757793.07744  -2148911.30244  23647840.4894   23647841.1314
 -20148789.56444 -15700345.47044  20787366.7374   20787367.8074
 -22588877.35144 -17601714.80844  20681561.9664   20681563.8884
 95  4 12  3  4 30.0000000  0  7G16G 5G23G17G 6G20G24
 -17388216.16244 -13549243.79144  21127965.2004   21127966.9834
 -15815644.15044 -12323866.96544  22249426.2124   22249428.3624
   -107602.11444                  25264150.7884
 -13312253.39844 -10373176.80844  22689393.9174   22689396.2694
 -20195143.37144 -15736465.31244  20778545.4714   20778546.8424
 -22550417.79244 -17571746.32944  20688880.4494   20688882.5414
  -2679032.19744  -2087539.23044  23662826.8134   23662830.4764
 95  4 12  3  5  0.0000000  0  7G16G 5G23G17G24G 6G20
 -17361030.56444 -13528060.20144  21133138.4254   21133140.2414
 -15719501.65144 -12248950.75744  22267721.2164   22267723.5604
   -215179.76044   -167672.15544  25243680.7794   25243685.5154
 -13381506.41044 -10427140.16644  22676214.7404   22676217.8094
  -2600259.68544  -2026158.03644  23677816.4034   23677819.6574
 -20241263.84544 -15772403.33344  20769769.1044   20769770.3084
 -22511385.91844 -17541331.89044  20696308.1504   20696310.0534
 95  4 12  3  5 30.0000000  0  7G16G23G 5G17G24G 6G20
 -17333324.38844 -13506470.96444  21138410.7354   21138412.3334
   -322759.94944   -251500.66444  25223208.1484
 -15623106.31644 -12173837.52144  22286064.4404   22286066.0264
 -13450544.33344 -10480935.91644  22663077.7414   22663081.3614
  -2521501.00344  -1964787.63144  23692804.0564   23692807.0694
 -20287153.51044 -15808161.50644  20761036.6664   20761037.9864
 -22471790.14944 -17510478.04944  20703843.1044   20703844.8384
 95  4 12  3  6  0.0000000  0  6G23G 5G17G24G 6G20
   -430331.33344                  25202736.3994
 -15526482.30344 -12098546.10344  22304451.2834   22304453.6654
 -13519367.74144 -10534564.50644  22649980.4004   22649983.6014
  -2442756.53344  -1903428.27944  23707789.3134   23707790.8734
 -20332814.70144 -15843741.63844  20752347.3614   20752348.8134
 -22431631.38444 -17479185.51244  20711484.9504   20711486.8594
 95  4 12  3  6 30.0000000  0  6G23G 5G 6G20G17G24
   -537886.14744                  25182269.9194
 -15429646.65044 -12023089.76344  22322878.8504   22322881.7674
 -20378249.54844 -15879145.40144  20743701.5194   20743702.7424
 -22390904.45844 -17447450.25244  20719234.6964   20719236.9484
 -13587982.67644 -10588030.66044  22636923.1544   22636926.2114
  -2364031.00844  -1842083.73344  23722770.9214   23722773.4164
 95  4 12  3  7  0.0000000  0  6G 5G23G17G24G 6G20
 -15332616.80444 -11947482.09244  22341343.0404   22341344.8514
   -645464.85344   -502958.32744  25161798.6004
 -13656413.15744 -10641353.08444  22623902.1654   22623905.2084
  -2285361.10244  -1780782.49144  23737741.2424   23737743.8604
 -20423491.40144 -15914398.78444  20735092.3254   20735093.5854
 -22349652.59944 -17415305.95244  20727084.8514   20727087.2934
 95  4 12  3  7 30.0000000  0  7G16G23G 5G 6G20G17G24
        -1.12854        -0.84754  21160506.0814   21160507.7094
   -752989.69044                  25141335.6964
 -15235300.26444 -11871651.04844  22359862.4104   22359864.8464
 -20468470.96244 -15949447.78344  20726532.8234   20726534.1504
 -22307812.34144 -17382703.16444  20735046.2824   20735048.6814
 -13724566.32844 -10694459.42044  22610932.6094   22610935.5864
  -2206672.39244  -1719466.60244  23752714.5114   23752716.2014
 95  4 12  3  8  0.0000000  0  7G16G23G 5G17G24G 6G20
     30460.39244     23735.40944  21166302.5274   21166304.4604
   -860496.96244   -670515.42444  25120877.4234
 -15137723.15344 -11795616.95644  22378429.8164   22378431.7104
 -13792478.34044 -10747377.83644  22598009.6174   22598013.1854
  -2127996.45344  -1658160.68944  23767685.6824   23767688.0834
 -20513240.78544 -15984333.35144  20718013.5484   20718014.7424
 -22265427.98644 -17349676.40044  20743112.3964   20743114.2964
 95  4 12  3  8 30.0000000  0  7G16G23G 5G17G 6G20G24
     61504.39844     47925.55644  21172210.0014   21172211.6584
   -968019.34344   -754298.96344  25100417.8044
 -15039885.08944 -11719379.50844  22397047.6754   22397049.4764
 -13860168.81744 -10800123.62344  22585128.5754   22585130.9114
 -20557814.53744 -16019066.12644  20709531.1654   20709532.6874
 -22222519.22044 -17316241.00044  20751278.0004   20751279.6064
  -2049369.88044  -1596893.23044  23782648.2284   23782649.0144
 95  4 12  3  9  0.0000000  0  7G16G23G 5G17G24G 6G20
     93117.80844     72559.38644  21178226.0774   21178227.7194
  -1075551.95144   -838090.39344  25079955.5824   25079964.2704
 -14941773.73244 -11642929.12644  22415718.0804   22415720.4574
 -13927629.52044 -10852690.38244  22572291.1924   22572293.5044
  -1970804.16644  -1535673.18844  23797598.2854   23797599.5834
 -20602177.80344 -16053634.88544  20701089.5024   20701090.6364
 -22179082.86844 -17282394.49544  20759543.1434   20759545.1834
 95  4 12  3  9 30.0000000  0  7G16G23G 5G17G24G 6G20
    125312.33744     97646.04244  21184352.6264   21184354.1774
  -1183069.24144   -921869.91544  25059495.3044   25059498.4124
 -14843378.98944 -11566257.92944  22434441.5674   22434443.8154
 -13994850.54744 -10905070.37044  22559499.5254   22559502.4844
  -1892275.82144  -1474482.27344  23812540.9574   23812543.9714
 -20646295.66144 -16088012.42644  20692694.0364   20692695.4284
 -22135094.28844 -17248117.68744  20767914.0254   20767916.0744
 95  4 12  3 10  0.0000000  0  7G16G23G 5G17G 6G20G24
    158074.08844    123174.68144  21190586.9874   21190588.7504
  -1290573.55744  -1005639.36844  25039037.9324
 -14744704.63544 -11489368.83744  22453218.6034   22453220.5864
 -14061840.83044 -10957270.54844  22546751.1074   22546754.2064
 -20690151.10644 -16122185.49144  20684348.6034   20684349.7104
 -22090546.73544 -17213405.31544  20776391.2184   20776393.2964
  -1813789.72744  -1413324.28944  23827477.1694   23827480.3594
 95  4 12  3 10 30.0000000  0  7G16G23G 5G17G24G 6G20
    191386.24144    149132.20944  21196925.8294   21196927.5364
  -1398072.37844  -1089404.51444  25018580.8044
 -14645764.15344 -11412272.37444  22472046.6504   22472048.4784
 -14128606.72044 -11009295.89344  22534045.9454   22534048.5714
  -1735346.91744  -1352200.02344  23842403.7784   23842404.5164
 -20733743.99344 -16156153.95944  20676053.2394   20676054.1644
 -22045438.46244 -17178256.01544  20784974.9144   20784977.0404
 95  4 12  3 11  0.0000000  0  7G16G23G 5G 6G20G17G24
    225246.04844    175516.47744  21203369.1914   21203370.5584
  -1505549.46844  -1173152.67244  24998129.2634   24998132.4704
 -14546557.44844 -11334968.46844  22490924.8174   22490927.0844
 -20777067.59244 -16189912.59844  20667808.6784   20667809.9264
 -21999755.10744 -17142658.60344  20793668.2064   20793670.2984
 -14195128.13044 -11061130.72144  22521387.2324   22521389.8664
  -1656903.74344  -1291075.47144  23857331.4234   23857332.8564
 95  4 12  3 11 30.0000000  0  7G16G23G 5G17G 6G20G24
    259676.00444    202345.02044  21209921.2324   21209922.8254
  -1612990.50644  -1256872.78444  24977684.7684   24977687.0124
 -14447071.64944 -11257447.07244  22509856.3334   22509857.8154
 -14261386.50644 -11112760.58644  22508778.6054   22508782.0774
 -20820107.12844 -16223449.88644  20659618.9444   20659620.2164
 -21953481.41544 -17106601.18744  20802473.9124   20802476.0394
  -1578420.01444  -1229919.34044  23872266.7904   23872268.9524
 95  4 12  3 12  0.0000000  0  7G16G23G 5G 6G20G17G24
    294658.53244    229604.13644  21216578.1544   21216579.7844
  -1720419.24044  -1340583.30744  24957240.8574   24957244.0054
 -14347349.56344 -11179741.56444  22528832.6894   22528835.1104
 -20862916.99844 -16256808.21344  20651472.5114   20651473.4704
 -21906656.35144 -17070114.13544  20811384.0814   20811386.1984
 -14327415.30944 -11164211.56744  22496213.5374   22496216.2634
  -1499927.20144  -1168756.10644  23887204.0014   23887204.6464
 95  4 12  3 12 30.0000000  0  7G16G23G 5G17G24G 6G20
    330173.61844    257278.23744  21223336.0934   21223337.9444
  -1827840.71144  -1424288.20444  24936798.3734
 -14247412.68644 -11101868.69244  22547850.1674   22547852.6394
 -14393226.33244 -11215492.85344  22483690.6294   22483692.8564
  -1421438.09244  -1107595.75244  23902140.1434   23902141.9764
 -20905530.53244 -16290013.55444  20643363.1814   20643364.4264
 -21859307.48644 -17033218.92344  20820394.3934   20820396.3864
 95  4 12  3 13  0.0000000  0  7G16G23G 5G 6G20G17G24
    366288.78444    285419.92844  21230208.6584   21230210.6094
  -1935159.15244  -1507912.75744  24916376.8214   24916382.6644
 -14147185.02544 -11023769.23044  22566922.9184   22566925.0484
 -20947855.51344 -16322994.04844  20635309.0394   20635310.0384
 -21811366.04344 -16995861.95844  20829517.5254   20829519.5464
 -14458747.83244 -11266548.53444  22471222.2674   22471224.7484
  -1342884.02044  -1046384.80644  23917087.3774   23917090.2704
 95  4 12  3 13 30.0000000  0  7G16G23G 5G17G 6G20G24
    402929.64344    313971.25044  21237181.0174   21237182.7424
  -2042443.34544  -1591510.70344  24895960.1104
 -14046758.64744 -10945514.91944  22586033.5964   22586035.7814
 -14524086.52944 -11317461.77844  22458788.5184   22458791.3214
 -20989976.14044 -16355815.31044  20627293.5844   20627294.8064
 -21762917.59744 -16958109.93244  20838737.0824   20838738.9784
  -1264374.09744   -985208.23144  23932028.4484   23932031.5774
 95  4 12  3 14  0.0000000  0  7G16G23G 5G17G 6G20G24
    440112.30244    342944.75644  21244256.6924   21244258.5634
  -2149675.31544  -1675067.85944  24875552.9884
 -13946123.85844 -10867098.22744  22605184.0554   22605186.6204
 -14589217.29344 -11368212.98944  22446395.1004   22446397.6014
 -21031880.84544 -16388468.31344  20619319.6554   20619320.5024
 -21713956.96544 -16919958.79844  20848053.8514   20848055.8324
  -1185909.49044   -924066.99244  23946959.6774   23946961.4744
 95  4 12  3 14 30.0000000  0  7G16G23G 5G17G 6G20G24
    477807.13644    372317.35544  21251429.9784   21251431.7944
  -2256868.34644  -1758594.67944  24855155.8284   24855160.1284
 -13845277.76644 -10788516.86844  22624374.0924   22624376.9554
 -14654127.82744 -11418792.59044  22434042.3934   22434045.5204
 -21073550.34744 -16420938.04744  20611390.1244   20611391.0544
 -21664492.48044 -16881415.05244  20857466.7394   20857468.8564
  -1107498.18444   -862967.31844  23961879.9044   23961882.9754
 95  4 12  3 15  0.0000000  0  7G16G23G 5G 6G20G17G24
    516051.80444    402118.39844  21258707.4944   21258709.0234
  -2363999.66544  -1842073.40944  24834769.3264   24834773.9454
 -13744198.69744 -10709753.96344  22643609.1484   22643611.3014
 -21114945.21344 -16453193.77044  20603512.8654   20603514.2834
 -21614490.82544 -16842452.73344  20866981.6874   20866983.7754
 -14718796.56444 -11469183.79044  22421736.8754   22421739.3724
  -1029109.24244   -801885.00544  23976795.9954   23976797.6414
 95  4 12  3 15 30.0000000  0  7G16G23G 5G17G 6G20G24
    554791.10744    432304.87344  21266079.6494   21266081.1854
  -2471142.31744  -1925561.01944  24814381.4224
 -13642951.19444 -10630859.82944  22662875.9244   22662877.8424
 -14783268.31344 -11519421.48544  22409467.5044   22409470.6514
 -21156134.91444 -16485289.63044  20595674.8944   20595676.2384
 -21564016.13744 -16803121.81644  20876586.5724   20876588.7344
   -950807.63744   -740870.78244  23991696.3904   23991698.3264
 95  4 12  3 16  0.0000000  0  7G23G16G 6G20G 5G17G24
  -2578276.49444  -2009041.99344  24793993.9114   24793999.5314
    594048.82244    462895.30044  21273549.8824   21273551.7574
 -21197072.33444 -16517188.91144  20587884.5664   20587885.4654
 -21513032.54644 -16763394.34944  20886288.7804   20886290.8914
 -13541499.61144 -10551806.65644  22682181.3804   22682183.1284
 -14847481.99744 -11569458.08644  22397248.8514   22397251.9214
   -872548.34744   -679889.52344  24006589.6804   24006590.0564
 95  4 12  3 16 30.0000000  0  7G16G23G 5G17G 6G20G24
    633893.21044    493942.87944  21281132.0534   21281133.7834
  -2685324.99144  -2092456.24344  24773623.2334   24773628.1874
 -13439769.32844 -10472536.31144  22701540.0564   22701542.1384
 -14911399.95944 -11619264.25044  22385085.1584   22385088.3224
 -21237681.43744 -16548832.35744  20580157.0794   20580158.0364
 -21461452.32044 -16723201.97044  20896103.7454   20896106.0684
   -794257.53144   -618883.65644  24021487.9294   24021491.0944
 95  4 12  3 17  0.0000000  0  7G23G16G 5G 6G20G17G24
  -2792358.58944  -2175858.87144  24753255.3134   24753259.7954
    674250.57044    525390.17644  21288811.7714   21288813.2814
 -13337845.20744 -10393114.93244  22720935.3754   22720937.5524
 -21278054.14844 -16580291.59944  20572474.0724   20572475.7024
 -21409346.53944 -16682600.07244  20906018.8504   20906021.2914
 -14975115.30244 -11668912.53744  22372960.6254   22372963.5974
   -716014.92144   -557915.38644  24036377.1154   24036379.3394
 95  4 12  3 17 30.0000000  0  7G23G16G 5G17G 6G20G24
  -2899432.26244  -2259292.74444  24732879.8594   24732884.2904
    715059.58744    557189.41344  21296577.8914   21296579.3964
 -13235768.54844 -10313574.69544  22740360.2184   22740362.3254
 -15038666.52044 -11718432.93544  22360867.0774   22360870.2914
 -21318242.73844 -16611607.36944  20564826.6434   20564828.0194
 -21356771.20944 -16641632.28944  20916023.7354   20916025.9084
   -637875.38344   -497027.41644  24051247.5194   24051245.6654
 95  4 12  3 18  0.0000000  0  7G23G16G 5G 6G20G17G24
  -3006419.63144  -2342659.36744  24712521.9194   24712527.8154
    756444.65344    589437.52644  21304452.6004   21304454.3034
 -13133423.73444 -10233825.50944  22759835.5394   22759837.5074
 -21358128.10744 -16642686.86544  20557236.7544   20557238.0104
 -21303617.13444 -16600213.53944  20926139.0734   20926140.9324
 -15101955.10344 -11767748.68244  22348823.3644   22348825.8234
   -559711.53444   -436120.51444  24066121.5304   24066123.4224
 95  4 12  3 18 30.0000000  0  7G23G16G 5G17G 6G20G24
  -3113343.29244  -2425976.36144  24692173.0704   24692177.7684
    798369.45244    622106.20444  21312430.8334   21312432.4484
 -13030855.12544 -10153901.93944  22779354.3994   22779356.5584
 -15165030.70044 -11816898.45944  22336820.3424   22336823.3684
 -21397749.09944 -16673560.35644  20549696.8974   20549697.7474
 -21249931.98444 -16558380.95944  20936355.2154   20936357.0924
   -481562.17444   -375224.90844  24080992.3094   24080994.6884
 95  4 12  3 19  0.0000000  0  7G23G16G 6G20G 5G17G24
  -3220180.38044  -2509225.92044  24671842.6274   24671845.6784
    840852.75344    655210.08144  21320515.1674   21320516.9444
 -21437085.84744 -16704212.36244  20542211.5494   20542212.5434
 -21195713.40244 -16516132.71944  20946672.4704   20946674.4454
 -12928061.36844 -10073802.92844  22798915.5334   22798917.4564
 -15227846.57144 -11865845.85944  22324866.9944   22324869.5624
   -403410.22344   -314327.27744  24095863.5284   24095864.1394
 95  4 12  3 19 30.0000000  0  7G23G16G 5G17G 6G20G24
  -3326926.35544  -2592404.47444  24651530.5874   24651537.0434
    883885.25244    688741.90744  21328704.0644   21328705.8924
 -12825062.95144  -9993544.43144  22818514.6924   22818516.4674
 -15290416.07244 -11914601.27644  22312961.0074   22312963.8544
 -21476140.16444 -16734644.28344  20534779.7054   20534781.0764
 -21140978.43844 -16473482.10644  20957087.9804   20957090.0004
   -325265.44444   -253435.21644  24110733.4814   24110736.0404
 95  4 12  3 20  0.0000000  0  7G23G16G 5G 6G20G17G24
  -3433561.73744  -2675496.84444  24631238.9784   24631242.0124
    927459.09344    722695.55644  21336995.8434   21336997.7144
 -12721882.81044  -9913144.33744  22838149.2514   22838151.7394
 -21514920.30944 -16764862.56744  20527399.8194   20527401.2414
 -21085725.49344 -16430427.87444  20967602.0484   20967604.3794
 -15352748.27244 -11963171.79244  22301099.2024   22301101.7514
   -247132.38044   -192552.35644  24125601.2614   24125603.6794
 95  4 12  3 20 30.0000000  0  7G23G16G 5G 6G20G17G24
  -3540160.29944  -2758560.51744  24610954.1434   24610957.4004
    971479.61844    756997.26644  21345372.9044   21345374.2544
 -12618602.94244  -9832666.53144  22857802.9524   22857805.4104
 -21553505.80744 -16794929.17144  20520057.5514   20520058.5394
 -21030020.48644 -16387021.38644  20978202.7294   20978205.0514
 -15414908.30744 -12011608.13444  22289270.4884   22289273.0534
   -169100.04944   -131747.93844  24140448.6444   24140452.5444
 95  4 12  3 21  0.0000000  0  7G 6G20G23G16G 5G17G24
 -21591842.93244 -16824802.24544  20512762.4774   20512763.4854
 -20973802.22544 -16343214.96244  20988900.6544   20988902.5504
  -3646674.82244  -2841558.72644  24590684.4714   24590688.2944
   1016000.35544    791688.75544  21353844.4844   21353846.3304
 -12515160.65844  -9752062.16644  22877486.8424   22877489.6334
 -15476837.18544 -12059864.38244  22277485.6344   22277487.9514
    -91115.26444    -70980.65844  24155290.7904   24155292.9274
 95  4 12  3 21 30.0000000  0  7G 6G20G23G16G 5G17G24
 -21629917.32544 -16854470.59644  20505516.7554   20505517.9634
 -20917057.10044 -16298997.98944  20999698.7794   20999700.8334
  -3753105.18544  -2924491.32244  24570431.1154   24570435.1394
   1061021.05644    826769.82144  21362412.1504   21362413.6634
 -12411544.50744  -9671322.32744  22897204.9144   22897207.7994
 -15538529.01544 -12107935.90544  22265746.0214   22265749.2074
    -13170.67844    -10244.58144  24170123.2904   24170126.4344
 95  4 12  3 22  0.0000000  0  7G 6G20G23G16G 5G17G24
 -21667678.87744 -16883895.17044  20498330.9104   20498332.2334
 -20859760.34644 -16254351.17744  21010602.0974   21010604.1934
  -3859431.68644  -3007342.98444  24550197.6454   24550203.4354
   1106582.67644    862272.38444  21371081.8524   21371083.6244
 -12307706.24944  -9590409.42344  22916965.1144   22916966.9964
 -15599938.02544 -12155787.04644  22254060.0724   22254062.9644
     64767.45044     50486.42344  24184955.9044   24184957.1054
 95  4 12  3 22 30.0000000  0  7G 6G20G23G16G 5G17G24
 -21705170.69444 -16913109.55844  20491196.4434   20491197.5334
 -20801994.06244 -16209338.49844  21021594.6744   21021597.0754
  -3965735.34344  -3090176.84644  24529968.2964   24529971.8674
   1152619.90244    898145.54944  21379841.9984   21379844.0184
 -12203710.34444  -9509373.68244  22936754.4314   22936756.0184
 -15661138.97744 -12203476.06544  22242414.2054   22242417.1184
    142636.11044    111163.37844  24199774.6634   24199774.7164
 95  4 12  3 23  0.0000000  0  7G 6G20G23G16G 5G17G24
 -21742379.67044 -16942103.55244  20484115.6554   20484116.7974
 -20743762.71344 -16163963.43444  21032675.7284   21032677.8504
  -4072004.19044  -3172983.59844  24509745.6674   24509749.5204
   1199153.40944    934405.43144  21388697.5474   21388699.1934
 -12099544.15444  -9428205.23444  22956576.3774   22956578.3054
 -15722124.02544 -12250996.84644  22230809.2494   22230812.2614
    220460.59044    171805.85544  24214583.3614   24214580.5224
 95  4 12  3 23 30.0000000  0  7G 6G20G23G16G 5G17G24
 -21779278.81844 -16970856.12844  20477094.3494   20477095.3714
 -20685058.58944 -16118219.97244  21043846.9524   21043848.9634
  -4178203.41844  -3255736.16044  24489537.1154   24489541.2734
   1246213.52244    971075.65344  21397652.6854   21397654.7064
 -11995189.74844  -9346890.11244  22976434.0974   22976437.1734
 -15782880.32144 -12298339.37944  22219247.0644   22219249.9924
    298270.03844    232436.62244  24229389.4584   24229389.1494
 95  4 12  3 24  0.0000000  0  7G 6G20G23G16G 5G17G24
 -21815871.75744 -16999370.09644  20470130.7054   20470132.1814
 -20625884.24044 -16072110.10144  21055107.0834   21055109.5034
  -4284316.65444  -3338421.70644  24469344.8734   24469348.7684
   1293810.16344   1008163.94744  21406709.9834   21406711.6774
 -11890642.12744  -9265424.43744  22996328.7704   22996330.8924
 -15843412.48144 -12345507.26244  22207728.6474   22207731.2324
    376070.44444    293060.35444  24244193.8614   24244195.8084
 95  4 12  3 24 30.0000000  0  7G 6G20G23G16G 5G17G24
 -21852194.45944 -17027673.48944  20463218.7944   20463219.7464
 -20566243.17744 -16025636.55344  21066456.6414   21066458.9184
  -4390351.51744  -3421046.14844  24449166.7804   24449168.4804
   1341924.80244   1045655.87944  21415866.3524   21415867.7504
 -11785921.17544  -9183823.71244  23016256.8154   23016260.0254
 -15903740.04144 -12392515.72144  22196248.3384   22196251.5194
    453854.58144    353671.31044  24258995.6864   24259000.4914
 95  4 12  3 25  0.0000000  0  7G 6G20G23G16G 5G17G24
 -21888280.11144 -17055792.16844  20456352.0154   20456353.0034
 -20506140.84844 -15978803.58644  21077893.6964   21077895.7814
  -4496322.04044  -3503620.47344  24429002.0574   24429005.8424
   1390537.33244   1083535.77344  21425116.2114   21425117.9814
 -11681048.70744  -9102104.93844  23036212.8374   23036215.1104
 -15963877.16544 -12439375.79444  22184804.9324   22184808.0524
    531600.18844    414252.30844  24273787.4674   24273794.2054
 95  4 12  3 25 30.0000000  0  7G 6G20G23G16G 5G17G24
 -21924080.07644 -17083688.23544  20449539.5404   20449540.4854
 -20445523.81144 -15931569.54344  21089428.6364   21089430.6804
  -4602192.83144  -3586117.11944  24408854.4874   24408856.2504
   1439679.94344   1121828.71744  21434468.3184   21434469.7654
 -11576006.70844  -9020254.05444  23056202.2664   23056204.9064
 -16023788.23844 -12486059.71044  22173404.4854   22173407.3944
    609321.67044    474814.49044  24288579.9324   24288584.9184
 95  4 12  3 26  0.0000000  0  7G 6G20G23G16G 5G17G24
 -21959618.56044 -17111380.55144  20442776.9264   20442778.0584
 -20384407.01044 -15883946.07144  21101059.0454   21101060.7084
  -4707996.48444  -3668561.46744  24388720.5154   24388722.5044
   1489316.57144   1160506.60844  21443913.4954   21443915.1114
 -11470824.89444  -8938294.20344  23076218.3744   23076221.4764
 -16083480.01744 -12532572.76044  22162045.1804   22162048.6744
    686986.34044    535332.40144  24303359.0854   24303363.2144
 95  4 12  3 26 30.0000000  0  7G 6G20G23G16G 5G17G24
 -21994862.86044 -17138843.63144  20436069.8794   20436070.8244
 -20322769.11844 -15835916.55344  21112788.3914   21112790.3984
  -4813715.70744  -3750939.98744  24368602.1194   24368603.6184
   1539457.29644   1199577.30144  21453455.3194   21453456.7594
 -11365481.72444  -8856208.63444  23096264.1334   23096267.2474
 -16142927.75444 -12578895.64744  22150732.4584   22150735.0214
    764612.46544    595820.28144  24318130.6584   24318133.8164
 95  4 12  3 27  0.0000000  0  7G 6G20G23G16G 5G17G24
 -22029813.08844 -17166077.56744  20429418.9624   20429419.8864
 -20260628.61144 -15787495.39144  21124613.2874   21124615.5314
  -4919361.81144  -3833261.54544  24348498.6024   24348502.2834
   1590083.89744   1239026.60544  21463089.1124   21463090.8844
 -11260003.82144  -8774018.07244  23116335.0654   23116338.4064
 -16202145.45044 -12625039.28144  22139463.7544   22139466.7164
    842169.57844    656254.36544  24332890.4024   24332891.3574
 95  4 12  3 27 30.0000000  0  7G 6G20G23G16G 5G17G24
 -22064462.29144 -17193076.93544  20422825.5794   20422826.6874
 -20197987.46044 -15738684.11644  21136533.7104   21136535.7814
  -5024916.25444  -3915511.68544  24328411.5674   24328414.7134
   1641208.69744   1278864.11144  21472817.8144   21472819.6364
 -11154369.18844  -8691705.40244  23136437.1164   23136439.6344
 -16261112.69644 -12670987.75344  22128242.9924   22128245.4324
    919668.99144    716643.50144  24347638.7984   24347640.3234
 95  4 12  3 28  0.0000000  0  7G 6G20G23G16G 5G17G24
 -22098796.67544 -17219830.99044  20416291.9894   20416292.7824
 -20134838.99544 -15689477.53344  21148550.1544   21148552.7534
  -5130350.04644  -3997667.84344  24308348.9444   24308351.4654
   1692846.61844   1319101.45244  21482643.8714   21482645.8144
 -11048531.22044  -8609234.26944  23156577.2094   23156579.9874
 -16319804.21344 -12716721.38244  22117074.1264   22117076.4374
    997149.17444    777017.68044  24362382.7594   24362381.9794
 95  4 12  3 28 30.0000000  0  7G 6G20G23G16G 5G17G24
 -22132807.28344 -17246332.75344  20409819.9224   20409820.8144
 -20071190.97144 -15639881.68344  21160661.8824   21160664.3844
  -5235646.02244  -4079716.58444  24288311.6384   24288313.7944
   1745000.83444   1359741.10644  21492569.1324   21492570.3264
 -10942500.75044  -8526613.14544  23176754.4804   23176756.8804
 -16378226.24844 -12762245.01744  22105956.7094   22105959.1324
   1074622.37544    837386.42944  24377125.0644   24377123.7634
 95  4 12  3 29  0.0000000  0  7G 6G20G23G16G 5G17G24
 -22166533.09544 -17272612.59744  20403402.2524   20403403.2364
 -20007081.81844 -15589926.51244  21172861.8674   21172864.1874
  -5340837.60244  -4161683.98244  24268293.4544   24268296.6364
   1797647.65444   1400764.60544  21502587.0404   21502588.9604
 -10836330.24244  -8443882.89544  23196957.7554   23196959.9134
 -16436406.34744 -12807580.13644  22094885.2434   22094887.9974
   1152062.23444    897729.26744  24391861.7544   24391859.3854
 95  4 12  3 29 30.0000000  0  7G 6G20G23G16G 5G17G24
 -22199988.69744 -17298681.88644  20397035.8114   20397036.8434
 -19942541.67544 -15539635.50744  21185143.5524   21185145.6594
  -5445950.74844  -4243590.24444  24248290.9954   24248296.7104
   1850757.19444   1442148.66244  21512693.5864   21512695.2674
 -10730042.72244  -8361061.47044  23217184.2034   23217185.4484
 -16494371.88744 -12852748.06344  22083854.6644   22083857.0854
   1229461.36744    958040.29044  24406586.8274
 95  4 12  3 30  0.0000000  0  7G 6G20G23G16G 5G17G24
 -22233093.58244 -17324477.89344  20390736.3074   20390737.3014
 -19877516.07144 -15488966.22044  21197517.4164   21197519.2364
  -5550933.08144  -4325394.61844  24228313.9884   24228317.3164
   1904387.21944   1483938.29744  21522899.0854   21522900.5384
 -10623599.85144  -8278118.97144  23237440.6714   23237443.5094
 -16552073.05244 -12897709.98144  22072874.3424   22072877.2794
   1306882.35844   1018368.20544  24421316.8434
 95  4 12  3 30 30.0000000  0  8G 6G20G23G16G 5G17G24G26
 -22265837.36544 -17349992.51944  20384504.9024   20384506.0894
 -19811987.32244 -15437904.86744  21209987.1404   21209988.8944
  -5655774.90644  -4407089.49344  24208363.0514   24208366.2904
   1958554.78344   1526146.78944  21533206.6984   21533208.2104
 -10517005.84844  -8195058.72944  23257724.3334   23257726.2764
 -16609504.32444 -12942461.59944  22061946.0904   22061949.0644
   1384335.59344   1078721.36744  24436059.8804
  24436065.1534         -0.76454  24097300.8064
 95  4 12  3 31  0.0000000  0  8G 6G20G23G16G 5G17G24G26
 -22298271.62644 -17375265.96144  20378333.1024   20378334.0594
 -19745986.41144 -15386475.59644  21222546.3014   21222548.2294
  -5760515.53944  -4488705.49644  24188431.6074   24188436.8854
   2013218.21744   1568741.67944  21543608.9594   21543610.7064
 -10410278.21044  -8111894.35644  23278034.3114   23278036.4704
 -16666712.49644 -12987039.36844  22051059.4964   22051062.2034
   1461768.66744   1139058.79844  24450795.4284
  24450798.5104     -79425.22544  24082187.3114
 95  4 12  3 31 30.0000000  0  8G 6G20G23G16G 5G17G24G26
 -22330460.97544 -17400348.56244  20372207.8374   20372208.6844
 -19679588.74944 -15334737.16844  21235181.6054   21235183.6034
  -5865198.07444  -4570276.22644  24168510.6134   24168515.5374
   2068303.17044   1611665.02344  21554091.3584   21554092.8674
 -10303467.04644  -8028664.89244  23298359.6354   23298362.9364
 -16723769.05544 -13031499.00444  22040201.7654   22040204.0264
   1539099.88444   1199316.90244  24465513.4304
  24465516.3844    -158869.28444  24067068.3004
 95  4 12  3 32  0.0000000  0  8G 6G20G23G16G 5G17G24G26
 -22362380.99644 -17425221.29944  20366133.5804   20366134.4594
 -19612754.37144 -15282658.44644  21247899.5444   21247901.8084
  -5969763.78844  -4651755.95944  24148612.8354   24148616.3804
   2123854.67644   1654951.91044  21564662.1924   21564663.5894
 -10196532.24744  -7945339.10644  23318708.0104   23318710.6404
 -16780622.17544 -13075800.11244  22029383.1594   22029386.0464
   1616357.78444   1259517.83344  24480214.2884
  24480215.7724    -238295.74244  24051952.8464
 95  4 12  3 32 30.0000000  0  8G 6G20G23G16G 5G17G24G26
 -22394042.74544 -17449892.78744  20360108.6064   20360109.7064
 -19545483.27044 -15230239.41544  21260701.1164   21260703.0024
  -6074193.27744  -4733129.51144  24128740.9114   24128744.0784
   2179852.23344   1698586.37244  21575318.8134   21575320.0664
 -10089473.75544  -7861916.92444  23339080.9984   23339082.1574
 -16837264.60344 -13119937.04444  22018604.4174   22018607.1374
   1693536.30144   1319656.98644  24494900.9914
  24494902.4964    -317690.90744  24036846.0744
 95  4 12  3 33  0.0000000  0  8G 6G20G23G16G 5G17G24G26
 -22425437.55844 -17474356.27144  20354133.9624   20354134.9614
 -19477807.45344 -15177505.02244  21273579.4734   21273581.5414
  -6178497.87744  -4814405.75844  24108891.7594   24108894.9364
   2236280.70344   1742556.60644  21586056.4264   21586058.1514
  -9982312.49744  -7778414.65744  23359472.9274   23359475.4724
 -16893705.60944 -13163917.01444  22007864.5514   22007866.6764
   1770618.70444   1379721.17944  24509570.6604
  24509572.5994    -397043.74144  24021745.0654
 95  4 12  3 33 30.0000000  0  8G 6G20G23G16G 5G17G24G26
 -22456513.69344 -17498571.43344  20348220.6534   20348221.4114
 -19409704.87444 -15124438.09044  21286538.9024   21286541.0574
  -6282661.58744  -4895572.20744  24089070.3184   24089074.0874
   2293170.94644   1786886.67244  21596882.5244   21596883.8944
  -9875038.34344  -7694824.41644  23379886.0704   23379887.1194
 -16949911.14044 -13207713.51144  21997169.0714   21997170.9274
   1847645.71944                  24524227.6904
                   -476305.99944  24006660.4764
 95  4 12  3 34  0.0000000  0  8G 6G20G23G16G 5G17G24G26
 -22487214.59544 -17522494.20544  20342378.4914   20342379.3314
 -19341113.93244 -15070990.61544  21299591.0554   21299593.2354
  -6386664.69744  -4976613.52944  24069279.8344   24069283.1504
   2350560.97644   1831606.17644  21607803.1374   21607804.9104
  -9767611.71744  -7611115.37444  23400328.4424   23400330.4394
 -17005843.90444 -13251297.45944  21986525.3524   21986527.3884
   1924685.69944                  24538884.1944
                   -555418.66044  23991605.6644
 95  4 12  3 34 30.0000000  0  8G 6G20G23G16G 5G17G24G26
 -22517569.72844 -17546147.55244  20336602.0384   20336603.0754
 -19272084.75244 -15017201.65444  21312727.0874   21312729.3524
  -6490564.91244  -5057574.66144  24049508.5874   24049511.3674
   2408405.91344   1876680.15444  21618810.5974   21618812.3284
  -9660077.95744  -7527322.84544  23420791.7874   23420794.1714
 -17061558.68044 -13294711.54544  21975922.9474   21975925.7234
   2001708.95344                  24553540.6644
                   -634421.24844  23976576.1024
 95  4 12  3 35  0.0000000  0  8G 6G20G23G16G 5G17G24G26
 -22547667.23444 -17569600.14644  20330874.7164   20330875.7404
 -19202715.41844 -14963147.64444  21325927.5264   21325929.7964
  -6594470.73944  -5138540.14544  24029735.3474   24029737.4644
   2466627.56044   1922047.67244  21629889.8024   21629891.8424
  -9552531.62744  -7443520.52444  23441256.5094   23441257.9324
 -17117156.86444 -13338034.77644  21965342.9234   21965345.1714
   2078618.94844   1619721.36644  24568180.2794   24568182.9604
                   -713412.19344  23961539.8924
 95  4 12  3 35 30.0000000  0  8G 6G20G23G16G 5G17G24G26
 -22577415.12944 -17592780.31844  20325213.8444   20325214.6724
 -19132885.09644 -14908734.42544  21339216.1164   21339218.3384
  -6698263.51644  -5219417.56744  24009983.9374   24009985.3944
   2525322.50544   1967783.99744  21641059.0454   21641060.2904
  -9444861.37144  -7359621.65244  23461745.5734   23461748.4844
 -17172525.06044 -13381178.78844  21954806.6534   21954808.9094
   2155522.16944   1679645.95444  24582814.4714   24582815.8214
                   -792280.26244  23946532.3364
 95  4 12  3 36  0.0000000  0  8G 6G20G23G16G 5G17G24G26
 -22606770.48344 -17615654.61944  20319627.7264   20319628.4704
 -19062546.77344 -14853925.35344  21352601.0004   21352602.8174
  -6801877.66744  -5300155.78344  23990266.9944   23990270.0064
   2584535.50644   2013923.99844  21652326.8614   21652328.6624
  -9337013.76944  -7275584.58744  23482269.0644   23482270.6604
 -17227602.48444 -13424096.23544  21944325.6684   21944327.9634
   2232458.87744   1739596.65244  24597454.9524   24597456.6754
                   -870997.13244  23931554.1294
 95  4 12  3 36 30.0000000  0  8G 6G20G23G16G 5G17G24G26
 -22635776.71344 -17638256.87444  20314108.0464   20314108.9924
 -18991747.71944 -14798757.26944  21366073.4834   21366075.6974
  -6905334.22944  -5380771.19744  23970579.5504   23970582.7564
   2644235.50944   2060443.46844  21663687.3694   21663689.2954
  -9229036.69444  -7191446.62744  23502816.3964   23502819.1254
 -17282413.50544 -13466806.09744  21933895.4174   21933897.6794
   2309380.12044   1799535.26944  24612092.3964   24612094.2214
                   -949610.56144  23916594.7224
 95  4 12  3 37  0.0000000  0  8G 6G20G23G16G 5G17G24G26
 -22664527.72744 -17660660.25544  20308636.8934   20308637.9294
 -18920568.33944 -14743292.83144  21379618.4084   21379620.5314
  -7008718.49644  -5461330.26344  23950906.0154   23950908.8874
   2704327.97344   2107268.76644  21675122.8144   21675124.2204
  -9121029.31244  -7107285.06444  23523369.7014   23523372.7604
 -17337051.37644 -13509381.02644  21923498.4874   21923500.7644
   2386176.80544   1859376.85344  24626705.7784   24626707.5154
                  -1028206.02844  23901638.2404
 95  4 12  3 37 30.0000000  0  8G 6G20G23G16G 5G17G24G26
 -22692941.79944 -17682801.08944  20303229.9444   20303230.8634
 -18848910.57144 -14687455.62544  21393254.3734   21393256.7784
  -7111937.52744  -5541760.62344  23931263.7224   23931267.2844
   2764896.62744   2154465.11844  21686648.4084   21686649.9144
  -9012902.04344  -7023030.07344  23543945.6364   23543948.2934
 -17391436.48044 -13551759.00544  21913148.8434   21913151.3454
   2462937.76244   1919190.53844  24641312.5904
                  -1106696.64544  23886700.1594
 95  4 12  3 38  0.0000000  0  7G 6G20G23G16G 5G17G26
 -22721012.74144 -17704674.54644  20297888.0574   20297889.0394
 -18776774.45244 -14631245.68044  21406981.6864   21406983.6134
  -7214988.46944  -5622059.98244  23911654.1764   23911657.8584
   2825956.69444   2202044.39444  21698267.9114   21698269.4164
  -8904659.09544  -6938684.90844  23564543.5164   23564544.7764
 -17445574.42444 -13593944.38844  21902846.5754   21902848.3734
                  -1185093.68444  23871783.5824
 95  4 12  3 38 30.0000000  0  7G 6G20G23G16G 5G17G26
 -22748803.79244 -17726329.90144  20292599.8594   20292600.7984
 -18704229.77844 -14574717.37444  21420786.7584   21420788.5324
  -7317930.88944  -5702274.76944  23892065.0254   23892069.1604
   2887445.73544   2249957.92444  21709969.0824   21709970.6964
  -8796371.14844  -6854304.70244  23585150.7274   23585152.5394
 -17499535.82044 -13635992.20044  21892578.2774   21892580.6584
                  -1263436.47344  23856875.5364
 95  4 12  3 39  0.0000000  0  7G 6G20G23G16G 5G17G26
 -22776266.08544 -17747729.08444  20287373.8514   20287374.5334
 -18631246.28044 -14517847.13144  21434674.8264   21434676.9964
  -7420718.36144  -5782368.80644  23872504.8484   23872507.9254
   2949397.94344   2298232.35944  21721758.2184   21721759.5464
  -8687988.65944  -6769850.79544  23605775.0054   23605777.8174
 -17553269.31544 -13677862.43244  21882353.0014   21882355.9854
                  -1341675.25144  23841988.3194
 95  4 12  3 39 30.0000000  0  8G 6G20G23G16G 5G17G24G26
 -22803331.54044 -17768819.04444  20282223.3954   20282224.2984
 -18557778.04444 -14460599.16944  21448655.2294   21448657.6354
  -7523284.52944  -5862290.42744  23852987.7604   23852990.8294
   3011861.47044   2346905.23344  21733644.3604   21733645.5994
  -8579455.31644  -6685279.38144  23626427.4854   23626430.0244
 -17606695.43444 -13719493.14944  21872186.4934   21872188.8364
        -0.93654        -0.33454  24699645.6724   24699643.3344
                  -1419754.33944  23827127.5264
 95  4 12  3 40  0.0000000  0  8G 6G20G23G16G 5G17G24G26
 -22830048.80144 -17789637.68344  20277139.2894   20277140.2214
 -18483912.33644 -14403041.49144  21462711.3244   21462713.9754
  -7625689.66944  -5942086.58244  23833499.0524   23833502.7654
   3074761.52644   2395918.27144  21745613.8734   21745615.4934
  -8470848.70144  -6600650.86344  23647094.6434   23647094.0594
 -17659864.60644 -13760923.65044  21862068.8714   21862071.2314
     76542.60944     59644.01744  24714212.0814   24714211.1364
                  -1497728.37044  23812289.7714
 95  4 12  3 40 30.0000000  0  8G 6G20G23G16G 5G17G24G26
 -22856377.31344 -17810153.39944  20272129.0554   20272130.0064
 -18409634.30544 -14345162.52444  21476845.8384   21476848.2444
  -7727904.25644  -6021734.21544  23814047.9044   23814052.3654
   3138105.65844   2445277.33444  21757668.0024   21757669.9024
  -8362139.09644  -6515942.09844  23667781.9324   23667784.1264
 -17712747.70344 -13802131.23444  21852005.6534   21852007.8344
    153061.19244    119268.87544  24728772.5344   24728773.1784
                  -1575546.45044  23797482.6364
 95  4 12  3 41  0.0000000  0  7G 6G20G23G16G 5G17G26
 -22882338.63644 -17830382.99344  20267188.7624   20267189.7324
 -18334969.30644 -14286982.02244  21491054.2854   21491056.8054
  -7829951.21744  -6101251.25744  23794628.8974   23794631.5404
   3201865.15444   2494960.05044  21769800.9954   21769802.7194
  -8253349.99844  -6431171.39944  23688483.6174   23688485.5434
 -17765371.28944 -13843136.60644  21841991.5314   21841993.4544
                  -1653230.89544  23782699.2514
 95  4 12  3 41 30.0000000  0  7G 6G20G23G16G 5G17G26
 -22908011.00144 -17850387.42544  20262303.8144   20262304.6084
 -18259976.49644 -14228546.08344  21505325.0904   21505327.0334
  -7931903.73944  -6180694.72244  23775228.7974   23775231.4814
   3265982.22844   2544921.40444  21782002.2994   21782003.6754
  -8144552.25644  -6346393.94344  23709186.3274   23709187.6894
 -17817829.83344 -13884013.36544  21832008.9324   21832011.0684
                  -1730841.55544  23767930.9654
 95  4 12  3 42  0.0000000  0  7G 6G20G23G16G 5G17G26
 -22933382.23944 -17870157.21944  20257475.7524   20257476.7624
 -18184638.15144 -14169840.89644  21519661.4724   21519663.9404
  -8033742.05044  -6260049.19144  23755849.9464   23755853.0184
   3330491.78544   2595188.59344  21794277.8094   21794279.4114
  -8035715.44344  -6261586.06444  23729897.7744   23729899.1884
 -17870117.09944 -13924756.66444  21822058.6774   21822061.0684
                  -1808348.80944  23753181.3434
 95  4 12  3 42 30.0000000  0  7G 6G20G23G16G 5G17G26
 -22958422.92544 -17889669.43344  20252710.1944   20252711.3224
 -18108893.54344 -14110819.13444  21534075.3644   21534077.4514
  -8135423.94744  -6339281.76944  23736500.3894   23736503.8804
   3395450.31844   2645805.63044  21806638.8994   21806640.5324
  -7926780.39444  -6176701.63044  23750627.9024   23750629.8264
 -17922193.77344 -13965335.86844  21812149.0754   21812151.4674
                  -1885706.47244  23738460.6224
 95  4 12  3 43  0.0000000  0  7G 6G20G23G16G 5G17G26
 -22983163.98544 -17908948.17744  20248002.4374   20248003.3804
 -18032741.26244 -14051479.70344  21548566.7434   21548568.5424
  -8236970.36844  -6418408.79144  23717175.8844   23717177.0234
   3460850.66244   2696766.92744  21819084.2374   21819085.9104
  -7817767.06344  -6091756.18344  23771372.5654   23771374.9044
 -17974082.14044 -14005768.34744  21802275.0364   21802277.1364
                  -1962946.87944  23723763.0564
 95  4 12  3 43 30.0000000  0  7G 6G20G23G16G 5G17G26
 -23007574.82544 -17927969.61144  20243357.2164   20243358.1414
 -17956156.14444 -13991802.99544  21563140.5854   21563142.3154
  -8338355.09044  -6497409.83044  23697883.4514   23697886.7314
   3526699.68544   2748077.85044  21831614.9254   21831616.7934
  -7708668.70244  -6006744.49244  23792133.4034   23792136.4754
 -18025766.29644 -14046041.69344  21792440.0814   21792441.9894
                  -2040050.35244  23709089.1924
 95  4 12  3 44  0.0000000  0  7G 6G20G23G16G 5G17G26
 -23031670.25644 -17946745.26444  20238771.8324   20238772.9374
 -17879175.33844 -13931817.95644  21577789.5134   21577791.6214
  -8439601.43044  -6576302.98744  23678616.4674   23678620.7584
   3592938.15744   2799692.24144  21844219.6094   21844221.2764
  -7599535.49044  -5921705.64244  23812900.8484   23812903.2534
 -18077269.60344 -14086174.11244  21782639.1184   21782641.2124
  -2117048.51344  -1649647.45144  23694437.7604
 95  4 12  3 44 30.0000000  0  7G 6G20G23G16G 5G17G26
 -23055419.07844 -17965250.83344  20234252.7144   20234253.4934
 -17801769.28744 -13871501.56344  21592519.0564   21592521.1884
  -8540681.88344  -6655066.89944  23659381.6864   23659383.6884
   3659567.40744   2851611.14144  21856898.7784   21856900.1244
  -7490362.63244  -5836635.89744  23833675.2574   23833676.7494
 -18128569.92144 -14126148.36444  21772876.9384   21772879.4614
  -2193910.44144                  23679811.7784
 95  4 12  3 45  0.0000000  0  7G 6G20G23G16G 5G17G26
 -23078814.50844 -17983481.03344  20229800.7484   20229801.6064
 -17723966.92944 -13810876.36344  21607323.9244   21607326.4454
  -8641595.83044  -6733701.09044  23640178.1434   23640181.1814
   3726549.97344   2903805.34744  21869645.0944   21869646.9764
  -7381174.99444  -5751554.62544  23854453.7564   23854456.1444
 -18179672.98144 -14165968.91344  21763151.9184   21763154.4744
  -2270641.48344  -1769330.22744  23665211.0264
 95  4 12  3 45 30.0000000  0  7G 6G20G23G16G 5G17G26
 -23101790.95644 -18001384.75244  20225428.3954   20225429.3864
 -17645735.90544 -13749917.14044  21622210.9044   21622213.3484
  -8742288.86844  -6812163.12744  23621017.8754   23621020.9494
   3793937.73844   2956315.29044  21882468.9424   21882470.7114
  -7271917.29244  -5666418.78444  23875243.8634   23875245.7564
 -18230517.84544 -14205588.26444  21753476.9094   21753479.1054
  -2347169.30444                  23650648.2574
 95  4 12  3 46  0.0000000  0  7G 6G20G23G16G 5G17G26
 -23124309.55744 -18018931.70744  20221143.2484   20221144.2174
 -17567029.96244 -13688587.84644  21637188.4264   21637190.5684
  -8842720.60244  -6890421.54744  23601906.1234   23601909.0504
   3861805.48344   3009199.24344  21895383.3744   21895385.3544
  -7162524.07744  -5581177.31844  23896061.5644   23896064.2754
 -18281044.67344 -14244959.79444  21743862.0484   21743863.9524
  -2423443.89244  -1888396.99144  23636132.8524
 95  4 12  3 46 30.0000000  0  7G 6G20G23G16G 5G17G26
 -23146446.45344 -18036181.23244  20216930.9934   20216931.7564
 -17487929.49844 -13626951.13344  21652240.7404   21652242.8584
  -8942957.30844  -6968528.02444  23582831.9914   23582832.5664
   3930106.55444   3062420.84844  21908380.3884   21908382.1504
  -7053049.24944  -5495872.29144  23916893.7964   23916895.4724
 -18331307.27644 -14284125.43444  21734297.2624   21734299.8384
  -2499531.01444  -1947685.64244  23621654.0634
 95  4 12  3 47  0.0000000  0  7G 6G20G23G16G 5G17G26
 -23168214.87544 -18053143.63444  20212788.5254   20212789.3404
 -17408458.03244 -13565025.32544  21667363.7224   21667366.1774
  -9043007.91944  -7046489.48644  23563792.5514   23563794.5674
   3998845.79944   3115983.89644  21921461.1324   21921462.5804
  -6943508.10544  -5410515.55144  23937737.6274   23937741.3384
 -18381307.44144 -14323086.58044  21724782.4244   21724784.8844
  -2575447.08244  -2006840.94144  23607207.7164
 95  4 12  3 47 30.0000000  0  7G 6G20G23G16G 5G17G26
 -23189589.92544 -18069799.51244  20208720.8884   20208721.6374
 -17328572.54744 -13502776.90644  21682565.2194   21682567.5754
  -9142838.12744  -7124279.21244  23544795.9394   23544798.6934
   4068076.71644   3169930.05744  21934635.3144   21934636.7424
  -6833869.81644  -5325083.13844  23958601.1854   23958602.2584
 -18431014.45544 -14361819.29844  21715323.4494   21715326.0524
  -2651161.50744  -2065839.15244  23592798.5994   23592800.9264
 95  4 12  3 48  0.0000000  0  7G 6G20G23G16G 5G17G26
 -23210624.08044 -18086189.76344  20204718.2044   20204719.1914
 -17248324.02244 -13440245.59844  21697836.3004   21697838.4684
  -9242478.24144  -7201920.79044  23525834.0854   23525837.2924
   4137747.46644   3224218.94244  21947893.1404   21947895.1114
  -6724190.24444  -5239618.52444  23979473.1814   23979474.7264
 -18480466.89544 -14400353.64244  21705912.7674   21705915.4014
  -2726723.06044  -2124718.27044  23578420.6954   23578423.8944
 95  4 12  3 48 30.0000000  0  7G 6G20G23G16G 5G17G26
 -23231285.87244 -18102289.86044  20200786.3694   20200786.9984
 -17167700.49144 -13377422.07544  21713178.6194   21713180.8134
  -9341897.41444  -7279390.21644  23506914.2324   23506918.5264
   4207863.14444   3278854.53644  21961236.1344   21961237.2024
  -6614461.13644  -5154115.34544  24000353.8914   24000359.1904
 -18529650.45344 -14438678.46544  21696553.1644   21696555.4434
  -2802099.56244  -2183453.12144  23564077.2164
 95  4 12  3 49  0.0000000  0  7G 6G20G23G16G 5G17G26
 -23251638.65544 -18118149.17244  20196913.3024   20196914.1434
 -17086756.18144 -13314348.59544  21728581.6434   21728583.9324
  -9441169.20844  -7356744.81444  23488023.7524   23488026.9424
   4278345.00744   3333775.46944  21974648.1444   21974649.9734
  -6504754.69044  -5068629.81044  24021230.8474   24021234.0304
 -18578650.19444 -14476860.05244  21687228.7764   21687231.1094
  -2877355.23744  -2242093.87744  23549756.3904   23549759.4354
 95  4 12  3 49 30.0000000  0  7G 6G20G23G16G 5G17G26
 -23271702.89744 -18133783.64244  20193094.9884   20193096.1224
 -17005513.58644 -13251042.69244  21744041.5764   21744044.2734
  -9540323.97344  -7434008.20144  23469156.4324   23469159.6614
   4349157.70244   3388954.18944  21988123.6164   21988125.3924
  -6395080.61044                  24042101.3764
 -18627501.71844 -14514926.14944  21677932.9144   21677935.4704
  -2952504.03544  -2300651.33544  23535455.5194   23535456.6244
 95  4 12  3 50  0.0000000  0  8G 6G20G23G16G 5G17G22G26
 -23291451.96344 -18149172.52444  20189337.1174   20189337.9624
 -16923960.11844 -13187494.55044  21759560.3424   21759563.0224
  -9639349.36144  -7511170.79444  23450311.7834   23450314.8484
   4420315.25344   3444401.63744  22001664.3704   22001666.1354
  -6285419.87644                  24062965.8994
 -18676186.94744 -14552862.66444  21668668.5674   21668671.3594
         0.10554         0.16654  25031045.0834
  -3027519.43944  -2359104.88444  23521181.0804   23521184.2684
 95  4 12  3 50 30.0000000  0  8G 6G20G23G16G 5G17G22G26
 -23310843.34844 -18164282.69444  20185647.1214   20185647.7734
 -16842048.25344 -13123667.13644  21775148.1524   21775150.5814
  -9738211.46444  -7588206.15644  23431499.2704   23431501.7124
   4491848.28144   3500141.66344  22015276.5454   22015277.8734
  -6175736.15844                  24083840.2834
 -18724685.74544 -14590653.91844  21659439.6604   21659441.7624
    -82055.27544    -63939.04744  25015436.8814
  -3102373.77544  -2417432.89444  23506936.4284   23506939.4684
 95  4 12  3 51  0.0000000  0  8G 6G20G23G16G 5G17G22G26
 -23329900.11644 -18179132.11644  20182020.6224   20182021.2394
 -16759809.57744 -13059585.07044  21790797.4384   21790799.6444
  -9836933.38644  -7665132.27944  23412713.7184   23412716.1854
   4563723.36944   3556148.22844  22028954.0404   22028955.8474
  -6066052.80944                  24104715.2444
 -18773017.68944 -14628315.14444  21650242.3574   21650244.8034
   -163865.58844                  24999872.0604
  -3177095.73144  -2475657.76344  23492717.8794   23492716.2124
 95  4 12  3 51 30.0000000  0  7G 6G20G23G16G 5G17G26
 -23348608.54044 -18193710.10444  20178460.7004   20178461.2734
 -16677260.08844 -12995260.80644  21806506.0344   21806508.3654
  -9935499.28844  -7741936.84244  23393957.5044   23393959.4644
   4635938.08044   3612419.42444  22042696.2634   22042697.7864
  -5956384.51144                  24125580.8174
 -18821175.06644 -14665840.34744  21641077.9284   21641080.5444
  -3251675.98044  -2533772.16644  23478526.1434   23478525.3824
 95  4 12  3 52  0.0000000  0  7G 6G20G23G16G 5G17G26
 -23366877.72344 -18207945.82544  20174984.0134   20174985.0294
 -16594322.75244 -12930634.31844  21822288.5024   21822290.7434
 -10033816.14944  -7818547.33244  23375247.7204   23375250.0394
   4708573.06344   3669018.11044  22056518.3064   22056520.0284
  -5846664.34544                  24146459.6474
 -18869066.97944 -14703158.70544  21631964.3974   21631966.8064
  -3326030.14744  -2591710.43544  23464376.1144   23464377.4954
 95  4 12  3 52 30.0000000  0  7G 6G20G23G16G 5G17G26
 -23384730.53844 -18221857.10144  20171586.8664   20171587.7834
 -16511031.35244 -12865731.93844  21838138.7794   21838140.1464
 -10131904.48344  -7894979.75744  23356581.6434   23356583.4664
   4781593.37644   3725917.06244  22070413.3734   22070414.8994
  -5736922.65144                  24167344.2534
 -18916721.82144 -14740292.33144  21622896.3154   21622898.6584
  -3400172.68144  -2649483.80144  23450267.4414   23450267.1394
 95  4 12  3 53  0.0000000  0  7G 6G20G23G16G17G22G26
 -23402164.00644 -18235441.61744  20168269.4554   20168270.1384
 -16427398.61144 -12800563.56844  21854053.2234   21854054.9104
 -10229774.34744  -7971241.95144  23337957.7504   23337960.7404
   4854989.71744   3783109.02144  22084380.6214   22084382.1344
 -18964140.23044 -14777241.71844  21613872.6814   21613874.6554
        -0.55554        -0.24654  24938136.1364
  -3474087.66944  -2707079.84744  23436201.4374   23436200.1504
 95  4 12  3 53 30.0000000  0  7G 6G20G23G16G17G22G26
 -23419213.73544 -18248727.11344  20165024.7844   20165025.8224
 -16343438.07044 -12735139.77744  21870030.3914   21870032.2474
 -10327443.29844  -8047347.55944  23319371.3044   23319374.3384
   4928742.68244   3840578.86344  22098414.8974   22098416.5074
 -19011352.53744 -14814030.50544  21604888.4314   21604890.5214
    -80349.41944                  24922855.0284
  -3547802.09444  -2764519.60344  23422174.4024   23422173.7534
 95  4 12  3 54  0.0000000  0  6G 6G20G23G16G17G26
 -23435885.79544 -18261718.32344  20161852.3554   20161853.2304
 -16259127.39844 -12669443.16244  21886073.9364   21886076.7144
 -10424899.58144  -8123287.45944  23300826.5184   23300828.6964
   5002869.60944   3898340.10544  22112520.8594   22112522.5554
 -19058351.35844 -14850652.94344  21595944.9534   21595947.4934
  -3621313.70044  -2821801.37544  23408184.6224   23408187.0854
 95  4 12  3 54 30.0000000  0  7G 6G20G23G16G17G22G26
 -23452151.06144 -18274392.55044  20158756.9834   20158757.8794
 -16174429.37244 -12603444.71644  21902190.8454   21902193.9964
 -10522106.91644  -8199033.39944  23282329.2374   23282331.8264
   5077394.99244   3956411.82444  22126702.1944   22126704.1214
 -19105106.95044 -14887085.85144  21587047.8104   21587050.0304
        -1.04454                  24892455.6974
  -3694591.81344  -2878901.14044  23394240.1554   23394242.3354
 95  4 12  3 55  0.0000000  0  7G 6G20G23G16G17G22G26
 -23468030.45844 -18286766.10244  20155735.4194   20155736.0404
 -16089359.06944 -12537156.18944  21918379.1424   21918381.8854
 -10619074.44744  -8274592.45644  23263876.6844   23263879.2294
   5152309.32344   4014786.63144  22140958.2274   22140959.9714
 -19151625.67344 -14923334.18144  21578195.4004   21578197.7714
    -79315.05544    -61804.19744  24877365.7574
  -3767657.94344  -2935835.73944  23380337.0624   23380338.8714
 95  4 12  3 55 30.0000000  0  7G 6G20G23G16G17G22G26
 -23483548.70644 -18298858.24044  20152782.2124   20152783.0654
 -16003940.84144 -12470596.54544  21934634.3864   21934636.8014
 -10715824.23144  -8349981.85544  23245465.0784   23245468.6374
   5227613.98544   4073465.59444  22155288.1804   22155289.7684
 -19197920.96444 -14959408.41044  21569385.7664   21569388.1114
   -158273.20744   -123330.05344  24862339.3674   24862341.0934
  -3840537.49244  -2992624.96044  23366468.1994   23366469.2514
 95  4 12  3 56  0.0000000  0  7G 6G20G23G16G17G22G26
 -23498662.86544 -18310635.50244  20149906.1834   20149906.9634
 -15918170.64644 -12403762.63444  21950956.1734   21950958.3454
 -10812354.80344  -8425200.42644  23227096.2764   23227099.6224
   5303322.84544   4132459.51044  22169694.8914   22169696.5024
 -19243972.19144 -14995292.45744  21560622.5594   21560624.7214
   -236859.02744   -184565.66744  24847386.2594   24847386.1614
  -3913193.57844  -3049240.04244  23352642.0234   23352642.4484
 95  4 12  3 56 30.0000000  0  7G 6G20G23G16G17G22G26
 -23513354.37844 -18322083.42944  20147110.6404   20147111.4614
 -15832058.50244 -12336662.27544  21967343.1704   21967345.3734
 -10908668.35744  -8500249.90644  23208768.7944   23208770.8834
   5379427.52544   4191761.85244  22184177.3324   22184178.5424
 -19289768.01744 -15030977.49544  21551907.6654   21551909.9174
   -315074.32844                  24832502.8374
  -3985608.07444  -3105666.87544  23338862.2034   23338863.6334
 95  4 12  3 57  0.0000000  0  7G 6G20G23G16G17G22G26
 -23527664.89044 -18333234.47244  20144387.3164   20144388.0934
 -15745661.72944 -12269340.13244  21983783.6704   21983785.5274
 -11004802.51344  -8575159.57844  23190474.6794   23190476.8494
   5455893.80944   4251345.96744  22198728.8674   22198730.6304
 -19335356.42544 -15066500.90844  21543232.7514   21543234.8694
   -392961.87344                  24817680.9604
  -4057815.96244  -3161932.71544  23325121.9854   23325123.4524
 95  4 12  3 57 30.0000000  0  7G 6G20G23G16G17G22G26
 -23541576.14144 -18344074.40544  20141740.1644   20141740.9064
 -15658979.06244 -12201795.20644  22000278.8874   22000280.6364
 -11100746.75344  -8649921.27844  23172216.9044   23172218.8354
   5532712.43144   4311204.63344  22213346.3484   22213347.9104
 -19380741.57444 -15101865.93644  21534596.2694   21534598.0434
   -470513.80944                  24802924.6634
  -4129801.58344  -3218025.36544  23311423.6064   23311424.8214
 95  4 12  3 58  0.0000000  0  7G 6G20G23G16G17G22G26
 -23555100.97744 -18354613.24244  20139166.3854   20139167.3894
 -15572028.26044 -12134041.35344  22016824.7904   22016827.4534
 -11196494.68144  -8724530.00944  23153996.4404   23153998.6554
   5609832.81644   4371298.43544  22228021.5114   22228023.3204
 -19425933.89044 -15137080.70044  21525996.2104   21525998.2764
   -547759.89544                  24788222.6224
  -4201562.64844  -3273943.03744  23297767.5864   23297769.5894
 95  4 12  3 58 30.0000000  0  7G 6G20G23G16G17G22G26
 -23568204.12744 -18364823.48644  20136673.0224   20136673.7314
 -15484756.31944 -12066037.26144  22033432.0044   22033434.6794
 -11291968.05444  -8798924.80544  23135828.2384   23135831.1454
   5687306.48244   4431667.52544  22242765.0204   22242766.4254
 -19470881.06844 -15172104.45144  21517443.2744   21517445.1594
   -624638.76944                  24773596.1874
  -4273054.71844  -3329651.08744  23284162.9554   23284164.1364
 95  4 12  3 59  0.0000000  0  7G 6G20G23G16G17G22G26
 -23580907.12244 -18374721.92144  20134255.7254   20134256.4254
 -15397189.21244 -11997803.16744  22050095.0834   22050097.6724
 -11387191.75044  -8873125.04344  23117708.3034   23117710.8154
   5765111.66344   4492294.94344  22257570.5444   22257571.6564
 -19515607.42544 -15206956.12544  21508931.6734   21508934.0004
   -701172.73244   -546368.38444  24759031.2064
  -4344297.98444  -3385165.28144  23270605.7794   23270606.8134
 95  4 12  3 59 30.0000000  0  7G 6G20G23G16G17G22G26
 -23593226.32044 -18384321.29244  20131911.5624   20131912.3354
 -15309327.49044 -11929339.50844  22066815.5834   22066817.9514
 -11482188.88744  -8947148.73844  23099631.1004   23099633.2074
   5843222.35644   4553160.41544  22272434.5474   22272436.4174
 -19560116.68444 -15241638.63944  21500461.9794   21500464.2584
   -777382.13244                  24744528.0574
  -4415302.06544  -3440493.10544  23257094.0734   23257096.5364
 95  4 12  4  0  0.0000000  0  7G 6G20G23G16G17G22G26
 -23605160.80944 -18393620.89244  20129640.1454   20129640.9114
 -15221153.60444 -11860632.59344  22083594.3624   22083596.0674
 -11576949.99444  -9020988.50744  23081599.4484   23081600.2474
   5921661.34944   4614281.70144  22287360.9134   22287362.8974
 -19604389.01644 -15276136.53644  21492037.0724   21492039.4754
   -853251.71744                  24730087.5444
  -4486060.46644  -3495629.46544  23243629.0644   23243630.1264
 95  4 12  4  0 30.0000000  0  7G 6G20G23G16G17G22G26
 -23616737.79544 -18402641.91644  20127437.1384   20127437.9874
 -15132714.02744 -11791718.64544  22100423.4644   22100425.6294
 -11671529.64044  -9094686.90244  23063601.7154   23063603.9224
   6000405.73944   4675640.96944  22302345.3014   22302347.1004
 -19648470.71744 -15310485.89344  21483648.6934   21483650.9444
   -928801.13844                  24715710.5324
  -4556623.50944  -3550613.61644  23230201.3594   23230202.6364
 95  4 12  4  1  0.0000000  0  6G20G 6G23G16G17G26
 -15043961.97244 -11722561.22244  22117312.5654   22117315.1764
 -23627907.90444 -18411345.89244  20125311.7384   20125312.3644
 -11765884.84944  -9168210.39944  23045645.3434   23045647.4604
   6079491.55944   4737266.28944  22317394.7474   22317397.3504
 -19692315.86744 -15344650.91944  21475305.2774   21475307.4504
  -4626939.33944  -3605405.12044  23216820.6944   23216822.6024
 95  4 12  4  1 30.0000000  0  6G 6G20G23G16G17G26
 -23638654.74444 -18419720.05244  20123266.5524   20123267.1484
 -14954873.21944 -11653141.43344  22134265.6344   22134267.6244
 -11859975.13044  -9241527.45644  23027740.7954   23027742.8304
   6158936.81944   4799171.68444  22332513.0774   22332514.9014
 -19735920.43344 -15378628.48244  21467007.5824   21467009.8604
  -4696994.18144  -3659993.29644  23203489.2624   23203490.8704
 95  4 12  4  2  0.0000000  0  6G 6G20G23G16G17G26
 -23648971.37444 -18427758.98644  20121303.3484   20121304.3334
 -14865472.28344 -11583478.37144  22151277.8094   22151279.9814
 -11953789.20044  -9314629.30144  23009888.0044   23009890.4744
   6238745.31544   4861360.11944  22347699.7544   22347701.6534
 -19779306.64944 -15412435.89944  21458751.6134   21458753.7774
  -4766798.30644  -3714386.07244  23190205.5184   23190206.6074
 95  4 12  4  2 30.0000000  0  6G 6G20G23G16G17G26
 -23658874.97944 -18435476.07444  20119418.9494   20119419.7044
 -14775801.96544 -11513605.40944  22168341.4474   22168343.8864
 -12047350.83244  -9387534.43144  22992083.4564   22992086.9574
   6318873.19444   4923797.43144  22362948.3034   22362949.4394
 -19822517.48644 -15446106.66044  21450529.0754   21450531.3504
  -4836371.80944  -3768599.15744  23176966.9724   23176968.3414
 95  4 12  4  3  0.0000000  0  7G 6G20G23G16G22G17G26
 -23668352.10744 -18442860.85144  20117615.2924   20117616.0244
 -14685831.93344 -11443498.91044  22185462.3704   22185464.6964
 -12140625.46744  -9460215.91344  22974334.2434   22974337.5724
   6399342.14444   4986500.50644  22378260.6094   22378261.8204
         0.19154         0.45554  24644876.1914
 -19865533.22644 -15479625.39944  21442343.2374   21442345.3054
  -4905687.52744  -3822611.35844  23163776.9894   23163777.5504
 95  4 12  4  3 30.0000000  0  7G 6G20G23G16G22G17G26
 -23677410.13144 -18449919.04644  20115891.7764   20115892.5714
 -14595579.92744 -11373172.68244  22202637.2844   22202638.9614
 -12233635.32644  -9532691.07744  22956634.5924   22956637.4104
   6480153.09744   5049470.07644  22393638.3814   22393640.3794
    -73407.34744    -57200.22944  24630906.7914
 -19908353.85444 -15512992.10544  21434194.6844   21434196.7804
  -4974757.10344  -3876431.76644  23150632.6684   23150633.9514
 95  4 12  4  4  0.0000000  0  6G20G 6G23G16G17G26
 -14505046.76244 -11302627.36744  22219864.7714   22219866.8814
 -23686045.49844 -18456647.89944  20114248.6694   20114249.2214
 -12326391.03044  -9604968.20744  22938984.1304   22938986.8814
   6561302.53644   5112703.39444  22409080.4394   22409082.7944
 -19950941.19844 -15546177.03144  21426090.4394   21426092.5884
  -5043552.53344  -3930038.55944  23137541.8604   23137543.5424
 95  4 12  4  4 30.0000000  0  6G 6G20G23G16G17G26
 -23694271.18844 -18463057.52444  20112683.3604   20112683.9534
 -14414234.20444 -11231864.34844  22237145.9344   22237148.2974
 -12418918.10544  -9677067.18844  22921377.5114   22921379.6694
   6642770.91144   5176185.23644  22424583.4574   22424585.6894
 -19993280.43844 -15579168.62344  21418033.6504   21418035.5604
  -5112078.57844  -3983435.44844  23124501.6194   23124502.3804
 95  4 12  4  5  0.0000000  0  7G 6G20G23G16G22G17G26
 -23702088.77744 -18469149.15044  20111195.7444   20111196.5254
 -14323125.26144 -11160870.37544  22254483.5474   22254485.5634
 -12511218.31744  -9748989.39244  22903813.4654   22903815.7744
   6724577.55844   5239930.67644  22440151.2074   22440152.5254
        -0.51154        -0.48254  24589376.4034
 -20035354.52744 -15611953.60644  21410027.1134   21410029.0164
  -5180324.35344  -4036613.93644  23111514.9324   23111515.1304
 95  4 12  4  5 30.0000000  0  7G 6G20G23G16G22G17G26
 -23709532.62344 -18474949.54944  20109778.9464   20109779.6634
 -14231770.22144 -11089684.64444  22271867.8464   22271869.9544
 -12603328.64044  -9820763.64644  22886285.6584   22886287.1984
   6806672.93944   5303901.08844  22455773.1444   22455774.4754
    -72051.50244    -56144.19544  24575667.5734
 -20077199.03744 -15644559.69844  21402064.3624   21402066.3244
  -5248312.93544  -4089592.01744  23098577.3114   23098578.2594
 95  4 12  4  6  0.0000000  0  7G 6G20G23G16G22G17G26
 -23716593.57644 -18480451.59044  20108435.4904   20108436.0544
 -14140170.61744 -11018308.34244  22289298.9754   22289301.0524
 -12695236.00944  -9892379.75144  22868795.3354   22868797.5654
   6889049.77144   5368090.82644  22471449.1854   22471450.7154
   -143734.86844   -112001.32144  24562028.0464   24562029.7454
 -20118831.10744 -15677000.25644  21394142.1544   21394144.4244
  -5316027.82844  -4142356.82944  23085690.6754   23085691.6434
 95  4 12  4  6 30.0000000  0  7G 6G20G23G16G22G17G26
 -23723224.64544 -18485618.65344  20107173.4744   20107174.3044
 -14048287.91344 -10946711.43444  22306783.3034   22306785.5714
 -12786896.24844  -9963803.28044  22851352.9074   22851356.0584
   6971756.07544   5432537.28544  22487187.1434   22487188.5564
   -214976.57044   -167514.26544  24548471.4584   24548475.5564
 -20160241.80644 -15709268.31244  21386261.6484   21386264.0314
  -5383436.88044  -4194883.34044  23072863.9864   23072865.0214
 95  4 12  4  7  0.0000000  0  7G 6G20G23G16G22G17G26
 -23729431.88944 -18490455.46744  20105992.5624   20105993.1444
 -13956128.14344 -10874898.63144  22324320.4034   22324323.2664
 -12878289.52944 -10035018.78244  22833960.4964   22833963.3184
   7054785.96844   5497235.89944  22502987.4524   22502988.8854
   -285781.69944   -222687.12244  24534998.9174   24535001.1924
 -20201449.86544 -15741378.46344  21378419.9424   21378422.4344
  -5450527.46644  -4247161.68544  23060096.2994   23060098.1814
 95  4 12  4  7 30.0000000  0  7G 6G20G23G16G22G17G26
 -23735204.50644 -18494953.60744  20104893.7184   20104894.5334
 -13863701.84244 -10802878.14044  22341908.7134   22341911.0134
 -12969402.79944 -10106016.09944  22816622.6084   22816625.3954
   7138121.76544   5562172.88044  22518844.8664   22518847.3724
   -356171.13944   -277536.03944  24521603.6954   24521606.8224
 -20242451.66344 -15773327.90044  21370617.6194   21370619.8534
  -5517301.07844  -4299193.03644  23047389.8244   23047390.8464
 95  4 12  4  8  0.0000000  0  7G 6G20G23G16G22G17G26
 -23740585.22644 -18499146.37544  20103869.8654   20103870.5524
 -13771051.02044 -10730682.70244  22359539.0524   22359541.6344
 -13060296.57544 -10176842.39744  22799326.2854   22799328.7674
   7221719.91544   5627314.27344  22534753.4754   22534755.2524
   -426196.52044   -332101.25344  24508277.9844   24508281.7104
 -20283298.82944 -15805156.84044  21362844.3794   21362846.9914
  -5583825.87344  -4351030.49644  23034731.1164   23034731.6354
 95  4 12  4  8 30.0000000  0  7G 6G20G23G16G22G17G26
 -23745550.49144 -18503015.41444  20102925.1004   20102925.9114
 -13678151.74044 -10658293.66544  22377217.7534   22377219.4884
 -13150939.16044 -10247472.95844  22782077.4324   22782079.3964
   7305593.60344   5692670.39744  22550714.3284   22550715.9244
   -495850.50744   -386377.08044  24495022.2294   24495026.4174
 -20323959.36444 -15836840.35444  21355107.0584   21355109.4764
  -5650089.56044  -4402664.50544  23022121.3994   23022122.2774
 95  4 12  4  9  0.0000000  0  7G 6G20G23G16G22G17G26
 -23750102.15044 -18506562.16144  20102059.0994   20102059.6354
 -13585013.80444 -10585718.65744  22394941.7424   22394943.3114
 -13241329.02844 -10317906.58844  22764877.0234   22764879.9124
   7389722.57044   5758225.42944  22566723.8724   22566725.6304
   -565165.31744   -440388.58744  24481831.2844   24481834.8564
 -20364432.96344 -15868378.20044  21347405.0444   21347407.5344
  -5716101.60244  -4454102.41144  23009559.4694   23009560.6794
 95  4 12  4  9 30.0000000  0  7G17G 6G20G23G16G22G26
 -20404688.60744 -15899746.21244  21339745.0544   21339747.4634
 -23754198.78144 -18509754.34144  20101279.2974   20101280.0444
 -13491613.65844 -10512939.32244  22412715.2994   22412717.1714
 -13331444.10544 -10388126.09244  22747729.4624   22747731.8774
   7474142.07244   5824006.85944  22582788.7174   22582789.9264
   -634111.43244   -494112.80944  24468712.2184   24468716.3394
  -5781836.20644  -4505324.15044  22997050.5674   22997052.0524
 95  4 12  4 10  0.0000000  0  7G17G 6G20G23G16G22G26
 -20444738.07544 -15930953.56544  21332123.9674   21332126.0294
 -23757848.26344 -18512598.09544  20100584.9074   20100585.4624
 -13397962.39744 -10439964.32344  22430536.5874   22430538.7734
 -13421278.36144 -10458126.77944  22730633.9114   22730636.9064
   7558854.04744   5890016.19144  22598909.0294   22598910.2914
   -702682.14544   -547544.57544  24455664.3814   24455665.4824
  -5847282.29744  -4556321.06644  22984596.7584   22984597.7204
 95  4 12  4 10 30.0000000  0  7G17G 6G20G23G16G22G26
 -20484582.18144 -15962000.89644  21324541.6104   21324543.9254
 -23761059.56044 -18515100.40344  20099973.9294   20099974.6794
 -13304081.15344 -10366810.10944  22448401.2304   22448403.3194
 -13510814.85944 -10527895.45144  22713595.8934   22713597.9144
   7643843.23044   5956241.51844  22615081.3784   22615083.0154
   -770880.64044   -600686.23644  24442686.7644   24442689.4644
  -5912416.76744  -4607075.16844  22972201.5784   22972202.9034
 95  4 12  4 11  0.0000000  0  7G17G 6G20G23G16G22G26
 -20524190.73644 -15992864.68144  21317004.3374   21317006.5504
 -23763819.79744 -18517251.23844  20099448.7384   20099449.2974
 -13209953.00944 -10293463.51244  22466312.8014   22466315.8504
 -13600032.45744 -10597415.61844  22696618.2394   22696620.7784
   7729139.50144   6022706.13244  22631312.5264   22631313.8744
   -838684.40144   -653520.29844  24429782.9094   24429785.9954
  -5977204.31144  -4657558.94244  22959873.0344   22959874.0714
 95  4 12  4 11 30.0000000  0  7G17G 6G20G23G16G22G26
 -20563572.71944 -16023551.91944  21309510.2154   21309512.2804
 -23766149.89044 -18519066.89944  20099005.2574   20099006.0204
 -13115601.01644 -10219942.49244  22484266.5324   22484269.2224
 -13688945.30844 -10666698.32144  22679698.5214   22679700.6124
   7814738.29044   6089406.48744  22647602.0524   22647603.9084
   -906086.04544   -706041.04544  24416955.6784   24416959.6154
  -6041643.26944  -4707771.08444  22947610.5744   22947612.1334
 95  4 12  4 12  0.0000000  0  7G17G 6G20G23G16G22G26
 -20602742.46644 -16054073.77844  21302056.6604   21302058.2614
 -23768074.73644 -18520566.77744  20098638.9634   20098639.6534
 -13021053.05744 -10146268.76544  22502258.5134   22502261.8164
 -13777587.07744 -10735769.79944  22662830.3774   22662832.5314
   7900607.12544   6156317.25644  22663941.6974   22663943.5844
   -973082.59144   -758246.11344  24404207.3144   24404210.8164
  -6105759.89644  -4757732.06144  22935410.1964   22935411.3724
 95  4 12  4 12 30.0000000  0  7G17G 6G20G23G16G22G26
 -20641669.35444 -16084406.39644  21294648.8214   21294650.9854
 -23769571.72144 -18521733.25744  20098354.1004   20098354.6384
 -12926277.31644 -10072417.55244  22520294.7644   22520297.1154
 -13865964.57744 -10804635.35544  22646012.9534   22646014.5804
   7986767.78644   6223455.42344  22680338.1074   22680339.8354
  -1039650.42944   -810117.12544  24391539.3814   24391541.8674
  -6169555.10444  -4807442.58344  22923270.1094   22923271.5174
 95  4 12  4 13  0.0000000  0  7G17G 6G20G23G16G22G26
 -20680372.78244 -16114564.88944  21287283.9564   21287285.9564
 -23770661.27444 -18522582.25344  20098146.4504   20098147.0344
 -12831284.81844  -9998397.43044  22538371.6014   22538373.9224
 -13954113.37644 -10873322.69844  22629238.4424   22629240.5864
   8073204.35444   6290808.58744  22696786.0784   22696787.7434
  -1105813.67644   -861672.88444  24378948.8214   24378950.8454
  -6233071.64344  -4856935.95744  22911183.9624   22911184.4354
 95  4 12  4 13 30.0000000  0  7G17G 6G20G23G16G22G26
 -20718833.97544 -16144534.62844  21279965.0064   21279966.9604
 -23771298.39144 -18523078.70544  20098025.3594   20098026.0134
 -12736053.31344  -9924191.05844  22556493.7574   22556495.7874
 -14042009.22544 -10941812.94244  22612512.4424   22612514.6524
   8159946.52844   6358399.88844  22713292.8134   22713294.2224
  -1171535.65044   -912884.78244  24366442.4104   24366449.0534
  -6296291.10244  -4906197.84944  22899153.1994   22899153.5484
 95  4 12  4 14  0.0000000  0  7G17G 6G20G23G16G22G26
 -20757083.99144 -16174339.81744  21272686.1494   21272688.1704
 -23771511.12344 -18523244.46944  20097984.9504   20097985.4774
 -12640600.51844  -9849812.25944  22574657.7044   22574659.5884
 -14129669.80444 -11010119.85444  22595831.4464   22595834.0754
   8246956.30644   6426199.72244  22729849.8884   22729851.7314
  -1236871.17844   -963795.52844  24354009.4394   24354012.5734
  -6359244.82244  -4955252.65744  22887173.5164   22887174.0694
 95  4 12  4 14 30.0000000  0  7G17G 6G20G23G16G22G26
 -20795167.29644 -16204015.10744  21265439.0504   21265441.0734
 -23771334.26344 -18523106.65244  20098018.5794   20098019.3144
 -12544954.55044  -9775282.94744  22592858.4194   22592860.8324
 -14217088.87944 -11078238.58244  22579195.5654   22579198.6484
   8334206.07844   6494186.55444  22746453.8594   22746455.7014
  -1301886.86144  -1014457.07744  24341636.8454   24341640.0034
  -6421945.05244  -5004109.95544  22875241.4164   22875243.8114
 95  4 12  4 15  0.0000000  0  7G17G 6G20G23G16G22G26
 -20833027.07844 -16233516.21844  21258234.8894   21258237.1024
 -23770688.14344 -18522603.17644  20098141.6564   20098142.2654
 -12449062.16944  -9700561.62644  22611105.3844   22611108.0454
 -14304159.78644 -11146086.00444  22562626.5934   22562629.4414
   8421759.35144   6562409.88344  22763114.0174   22763116.0604
  -1366513.00344  -1064815.05244  24329340.2814   24329342.6714
  -6484293.06544  -5052692.78944  22863377.3004   22863379.0164
 95  4 12  4 15 30.0000000  0  7G17G 6G20G23G16G22G26
 -20870723.45844 -16262890.00244  21251061.4924   21251063.5144
 -23769615.28544 -18521767.17944  20098345.7074   20098346.2874
 -12352985.38144  -9625696.60444  22629388.0934   22629390.0574
 -14390919.38744 -11213690.86244  22546117.0044   22546119.6324
   8509554.60344   6630821.76244  22779820.2434   22779822.5874
  -1430785.07544  -1114897.13844  24317109.7024   24317112.5294
  -6546307.10944  -5101015.39944  22851576.1634   22851577.8624
 95  4 12  4 16  0.0000000  0  7G17G 6G20G23G16G22G26
 -20908195.43644 -16292088.92944  21243930.8994   21243932.6534
 -23768063.58944 -18520558.06144  20098641.0684   20098641.6764
 -12256668.57744  -9550644.55944  22647717.8184   22647719.4814
 -14477307.31844 -11281006.09744  22529678.0594   22529680.2724
   8597631.53444   6699453.14444  22796581.0154   22796583.0164
  -1494638.08644  -1164652.72044  24304960.7944   24304959.6154
  -6607912.14044  -5149019.29144  22839853.3354   22839853.7384
 95  4 12  4 16 30.0000000  0  7G17G 6G20G23G16G22G26
 -20945488.04144 -16321148.08544  21236834.2794   21236836.1504
 -23766058.23644 -18518995.44544  20099022.6464   20099023.2924
 -12160173.22044  -9475453.38044  22666080.3084   22666081.5104
 -14563382.19744 -11348077.40444  22513298.4814   22513300.6124
   8685941.87744   6768266.39444  22813386.1104   22813388.2514
  -1558089.26144  -1214095.17644  24292885.6304   24292888.9174
  -6669160.29844  -5196745.09844  22828198.2664   22828198.5944
 95  4 12  4 17  0.0000000  0  7G17G 6G20G23G16G22G26
 -20982603.00544 -16350068.81944  21229771.7234   21229773.3724
 -23763613.10544 -18517090.14844  20099487.8854   20099488.6804
 -12063525.12344  -9400143.17544  22684471.6544   22684473.1684
 -14649200.63544 -11414948.88244  22496968.2324   22496970.2484
   8774453.88844   6837236.78144  22830229.0414   22830231.1904
  -1621127.80744  -1263216.09844  24280889.6904   24280889.0594
  -6730078.02944  -5244213.42744  22816605.2964   22816606.1714
 95  4 12  4 17 30.0000000  0  7G17G 6G20G23G16G22G26
 -21019468.46044 -16378795.12944  21222756.3744   21222758.1904
 -23760666.85444 -18514794.36544  20100048.6714   20100049.2104
 -11966651.13444  -9324656.95144  22702905.2134   22702907.5214
 -14734711.62944 -11481580.79744  22480695.6004   22480697.9864
   8863236.35644   6906417.90544  22847123.6394   22847125.3414
  -1683678.30044  -1311956.75344  24268985.6464   24268986.6244
  -6790615.39244  -5291385.36544  22805086.2524   22805087.8544
 95  4 12  4 18  0.0000000  0  7G17G 6G20G23G16G22G26
 -21056084.87144 -16407327.38444  21215788.0374   21215790.3224
 -23757228.07844 -18512114.79544  20100702.8984   20100703.4584
 -11869552.79144  -9248995.91444  22721382.3204   22721385.2674
 -14819934.56744 -11547988.26144  22464478.3414   22464480.5664
   8952284.94644   6975806.41744  22864069.6644   22864071.6754
  -1745752.63944  -1360326.31544  24257174.8264   24257176.7044
  -6850808.47044  -5338289.02444  22793631.6954   22793632.8304
 95  4 12  4 18 30.0000000  0  7G17G 6G20G23G16G22G26
 -21092451.05244 -16435664.65644  21208867.6924   21208870.1264
 -23753301.25044 -18509054.92344  20101450.2004   20101450.8444
 -11772226.38944  -9173157.17544  22739902.9814   22739906.1814
 -14904867.56044 -11614169.77744  22448316.1604   22448318.4874
   9041602.55244   7045404.55844  22881065.9474   22881068.7404
  -1807347.34244  -1408322.13344  24245451.7634   24245452.9584
  -6910657.97144  -5384924.96844  22782242.8094   22782244.0544
 95  4 12  4 19  0.0000000  0  7G17G 6G20G23G16G22G26
 -21128619.15844 -16463847.58444  21201984.8714   21201987.1644
 -23748957.11644 -18505669.88144  20102276.8044   20102277.5734
 -11674711.14544  -9097171.27244  22758460.1064   22758462.7284
 -14989551.34244 -11680157.10844  22432201.3614   22432203.3594
   9131133.75444   7115169.12344  22898103.6214   22898105.6584
  -1868513.47744  -1455984.09744  24233812.5154   24233813.8944
  -6970192.40044  -5431315.40944  22770913.0494   22770914.2714
 95  4 12  4 19 30.0000000  0  7G17G 6G20G23G16G22G26
 -21164607.38544 -16491890.34544  21195136.6474   21195138.8624
 -23744199.18444 -18501962.40044  20103182.4194   20103183.1044
 -11577016.02344  -9021045.21644  22777050.7244   22777052.7544
 -15073977.58844 -11745943.76144  22416135.3784   22416137.3694
   9220875.22844   7185097.54544  22915180.5704   22915182.9334
  -1929269.35544  -1503326.28744  24222250.9084   24222252.6044
  -7029411.36744  -5477460.02544  22759644.1994   22759645.5404
 95  4 12  4 20  0.0000000  0  7G17G 6G20G23G16G22G26
 -21200394.71144 -16519776.56044  21188326.7394   21188328.8704
 -23739020.35544 -18497926.94444  20104167.7254   20104168.4194
 -11479140.35444  -8944778.45544  22795676.6564   22795678.4094
 -15158127.86544 -11811515.38044  22400121.6374   22400123.7074
   9310838.95844   7255199.16044  22932299.9324   22932301.6824
  -1989612.53844  -1550346.94844  24210768.7214   24210768.7864
  -7088277.99444  -5523330.10544  22748442.3444   22748443.6424
 95  4 12  4 20 30.0000000  0  7G17G 6G20G23G16G22G26
 -21235946.80044 -16547479.47044  21181561.7274   21181563.5324
 -23733387.31944 -18493537.56644  20105239.7134   20105240.2244
 -11381060.06544  -8868352.25544  22814340.1224   22814342.7174
 -15241948.57244 -11876830.18744  22384171.6404   22384173.6974
   9401055.66644   7325497.89144  22949467.7044   22949469.1344
  -2049515.63644  -1597024.68644  24199368.2754   24199368.7894
  -7146727.50744  -5568875.14344  22737320.1244   22737321.2354
 95  4 12  4 21  0.0000000  0  7G17G 6G20G23G16G22G26
 -21271222.76044 -16574967.21344  21174848.9394   21174850.6324
 -23727239.21844 -18488746.83644  20106409.5044   20106410.0854
 -11282736.59944  -8791736.56944  22833050.8294   22833053.7064
 -15325385.62944 -11941846.04044  22368293.6134   22368296.0044
   9491576.35144   7396033.48144  22966693.3904   22966695.2384
  -2108945.50044  -1643333.62844  24188058.7494   24188059.6114
  -7204720.69844  -5614064.63044  22726284.0374   22726285.0184
 95  4 12  4 21 30.0000000  0  7G17G 6G20G23G16G22G26
 -21306316.58444 -16602313.03544  21168170.7544   21168172.7414
 -23720656.61444 -18483617.53144  20107662.3354   20107662.8164
 -11184290.15644  -8715025.06244  22851783.9894   22851786.2084
 -15408526.10344 -12006630.78144  22352471.8764   22352474.8934
   9582312.44344   7466736.91644  22983959.6964   22983961.5464
  -2168002.02644  -1689351.65544  24176822.0054   24176825.4294
  -7262364.70144  -5658982.01344  22715314.9714   22715315.4444
 95  4 12  4 22  0.0000000  0  7G17G 6G20G23G16G22G26
 -21341250.48244 -16629534.23844  21161523.0244   21161525.0874
 -23713654.28544 -18478161.17244  20108994.6784   20108995.4954
 -11085744.19144  -8638236.00144  22870536.3884   22870539.5084
 -15491371.29844 -12071185.43844  22336707.2114   22336709.7034
   9673246.36444   7537594.51044  23001264.1114   23001265.3524
  -2226695.24144  -1735086.63644  24165652.5464   24165655.2304
  -7319679.13044  -5703642.58144  22704408.3094   22704408.9524
 95  4 12  4 22 30.0000000  0  7G17G 6G20G23G16G22G26
 -21376009.69344 -16656619.32244  21154908.6404   21154910.4074
 -23706194.03444 -18472347.99144  20110414.5634   20110415.0964
 -10987070.40444  -8561347.34744  22889313.8664   22889317.0044
 -15573905.55844 -12135497.81344  22321001.7014   22321003.5944
   9764392.76644   7608617.69044  23018609.2374   23018609.7594
  -2284988.78844  -1780510.14744  24154560.4424   24154563.5314
  -7376651.57444  -5748036.66544  22693566.6784   22693568.2144
 95  4 12  4 23  0.0000000  0  7G17G 6G20G23G16G22G26
 -21410575.30144 -16683553.54744  21148330.5684   21148332.6144
 -23698250.86944 -18466158.51344  20111925.9784   20111926.6544
 -10888257.21544  -8484350.07544  22908117.3804   22908119.5964
 -15656118.79944 -12199560.04644  22305357.1194   22305359.6434
   9855772.99944   7679823.08644  23035997.8354   23035999.0804
  -2342849.96144  -1825596.72944  24143548.8004   24143550.8504
  -7433275.39244  -5792159.08544  22682791.4754   22682791.8094
 95  4 12  4 23 30.0000000  0  7G17G 6G20G23G16G22G26
 -21444910.35544 -16710308.11544  21141796.8994   21141798.9204
 -23689806.39444 -18459578.40144  20113532.8914   20113533.5874
 -10789277.38544  -8407222.93344  22926951.9394   22926954.0124
 -15737989.85744 -12263355.64044  22289777.3914   22289779.9074
   9947412.49244   7751230.47644  23053436.0564   23053437.5654
  -2400242.76544  -1870318.39244  24132627.8264   24132629.9194
  -7489504.98344  -5835974.31044  22672091.2124   22672092.5204
 95  4 12  4 24  0.0000000  0  7G17G 6G20G23G16G22G26
 -21479061.39644 -16736919.29044  21135298.0044   21135299.9234
 -23680922.32644 -18452655.75144  20115223.4864   20115224.0444
 -10690161.57644  -8329989.84144  22945813.3894   22945815.2564
 -15819578.02544 -12326930.79744  22274251.7574   22274254.6164
  10039250.20144   7822792.31744  23070912.5534   23070913.6944
  -2457219.78244  -1914716.05044  24121784.1744   24121787.3704
  -7545375.69944  -5879509.88844  22661459.4984   22661460.1934
 95  4 12  4 24 30.0000000  0  7G17G 6G20G23G16G22G26
 -21512958.49544 -16763332.57944  21128847.7384   21128849.8384
 -23671540.62444 -18445345.33944  20117008.8444   20117009.3294
 -10590848.86744  -8252603.31644  22964712.1364   22964713.7444
 -15900834.30444 -12390247.34444  22258788.9654   22258791.7814
  10131340.56244   7894551.05444  23088436.2204   23088437.1304
  -2513725.86644  -1958746.75844  24111032.3714   24111035.2744
  -7600812.67144  -5922707.49944  22650910.4994   22650911.0424
 95  4 12  4 25  0.0000000  0  7G17G 6G20G23G16G22G26
 -21546611.82344 -16789555.92844  21122443.7454   21122445.6854
 -23661682.68944 -18437663.83344  20118884.6324   20118885.4144
 -10491354.23944  -8175075.04744  22983645.3754   22983647.4254
 -15981759.39644 -12453305.82944  22243390.3874   22243392.1344
  10223663.95744   7966491.36544  23106004.7874   23106006.6054
  -2569785.73244  -2002429.73844  24100363.3474   24100367.2094
  -7655816.54944  -5965567.63044  22640443.1134   22640444.1624
 95  4 12  4 25 30.0000000  0  7G17G 6G20G23G16G22G26
 -21580026.23244 -16815593.11944  21116085.1924   21116087.0634
 -23651356.70944 -18429617.62044  20120849.8034   20120850.5864
 -10391669.08544  -8097398.30744  23002615.4984   23002617.2874
 -16062339.56544 -12516095.54844  22228056.4744   22228057.9244
  10316206.47444   8038602.40044  23123614.5304   23123617.3644
  -2625401.96644  -2045767.05444  24089780.6654   24089783.7554
  -7710377.02744  -6008082.26044  22630061.1184   22630062.6094
 95  4 12  4 26  0.0000000  0  7G17G 6G20G23G16G22G26
 -21613244.10644 -16841477.17744  21109764.1854   21109766.0014
 -23640586.88544 -18421225.54644  20122899.2164   20122899.8894
 -10291835.72744  -8019606.08144  23021613.0844   23021615.9084
 -16142594.67344 -12578631.96544  22212783.9654   22212785.1464
  10408931.85344   8110855.92444  23141260.2404   23141261.5374
  -2680598.80044  -2088777.58244  24079277.5784   24079279.1824
  -7764531.71344  -6050280.68944  22619755.3194   22619756.4694
 95  4 12  4 26 30.0000000  0  7G17G 6G20G23G16G22G26
 -21646256.93644 -16867201.45744  21103481.8704   21103483.9514
 -23629359.76844 -18412477.14644  20125035.3814   20125035.9714
 -10191862.13444  -7941704.58344  23040636.6144   23040639.7904
 -16222511.47744 -12640904.78044  22197575.8324   22197577.1734
  10501849.65744   8183259.42844  23158943.0964   23158943.8404
  -2735354.45544  -2131444.31344  24068858.0124   24068860.6844
  -7818287.75644  -6092168.47944  22609526.3614   22609526.9434
 95  4 12  4 27  0.0000000  0  7G17G 6G20G23G16G22G26
 -21679089.07144 -16892784.93844  21097234.3234   21097235.8654
 -23617693.76044 -18403386.75444  20127255.4644   20127256.0654
 -10091763.24844  -7863705.45744  23059685.3274   23059687.5184
 -16302101.46744 -12702922.93244  22182430.5894   22182432.2384
  10594944.62544   8255800.97444  23176657.3864   23176659.7224
  -2789668.74844  -2173767.10344  24058521.1694   24058523.2174
  -7871678.46444  -6133771.58744  22599366.4054   22599366.7344
 95  4 12  4 27 30.0000000  0  7G17G 6G20G23G16G22G26
 -21711721.89644 -16918213.11044  21091024.5714   21091026.3384
 -23605567.07944 -18393937.39044  20129563.1254   20129563.7574
  -9991534.15744  -7785604.86144  23078757.9944   23078761.1074
 -16381350.60944 -12764675.48544  22167349.9554   22167352.0684
  10688250.38844   8328506.74144  23194413.1114   23194415.0384
  -2843501.26344  -2215714.50044  24048278.2984   24048279.6584
  -7924696.80744  -6175084.52944  22589276.9764   22589277.4764
 95  4 12  4 28  0.0000000  0  7G17G 6G20G23G16G22G26
 -21744161.07344 -16943490.38144  21084851.3034   21084853.2684
 -23592991.09444 -18384137.92344  20131956.2494   20131956.8704
  -9891192.44344  -7707416.51444  23097852.5204   23097855.4474
 -16460295.13444 -12826190.67844  22152326.8904   22152329.0264
  10781768.92244   8401378.32744  23212209.8374   23212210.2144
  -2896854.75344  -2257288.60744  24038124.9634   24038128.6464
  -7977355.61844  -6216117.34044  22579256.5324   22579257.0074
 95  4 12  4 28 30.0000000  0  8G 6G20G23G16G22G17G21G26
 -23579907.41344 -18373942.84744  20134445.9694   20134446.5124
  -9790668.55644  -7629086.21544  23116980.9874   23116984.6264
 -16538886.60944 -12887430.76844  22137371.7634   22137374.0144
  10875548.99744   8474453.72244  23230054.7404   23230055.9424
  -2949673.89844  -2298446.37744  24028073.3164   24028076.7144
 -21776345.09744 -16968568.84044  21078726.9364   21078729.0344
        -0.65054                  25611318.8354
  -8029592.56444  -6256821.41844  22569315.9374   22569316.3264
 95  4 12  4 29  0.0000000  0  7G 6G20G23G16G22G17G26
 -23566362.58444 -18363388.43744  20137023.4514   20137023.9524
  -9690003.84744  -7550646.18444  23136135.9884   23136139.1974
 -16617173.39944 -12948433.43844  22122473.9204   22122476.2124
  10969533.78844   8547688.63844  23247939.3654   23247940.0704
  -3002011.26244  -2339228.73344  24018112.3434   24018116.8574
 -21808335.37844 -16993496.33044  21072639.1954   21072641.1364
  -8081443.24044  -6297224.51344  22559449.4764   22559450.0304
 95  4 12  4 29 30.0000000  0  7G 6G20G23G16G22G17G26
 -23552410.01844 -18352516.30344  20139678.5624   20139679.0884
  -9589267.65844  -7472150.45244  23155307.1754   23155308.8204
 -16695220.78944 -13009249.55544  22107622.0654   22107624.9974
  11063654.37644   8621029.34844  23265850.0284   23265851.2424
  -3053935.51644  -2379689.18144  24008232.7094   24008239.2834
 -21840187.20044 -17018315.92644  21066578.2514   21066580.1204
  -8132952.65444  -6337361.68644  22549647.2494   22549647.1964
 95  4 12  4 30  0.0000000  0  7G 6G20G23G16G22G17G26
 -23538039.56644 -18341318.54844  20142413.2534   20142413.7784
  -9488445.00044  -7393587.33744  23174492.9244   23174494.0344
 -16773017.75444 -13069870.53444  22092818.0304   22092820.9454
  11157892.13444   8694461.37744  23283782.9684   23283785.0424
  -3105459.66744  -2419837.85744  23998428.0154   23998434.0244
 -21871899.24244 -17043026.59444  21060543.4834   21060545.4874
  -8184105.38744  -6377220.93044  22539913.2884   22539913.8494
 95  4 12  4 30 30.0000000  0  8G 6G20G23G16G22G17G21G26
 -23523187.18744 -18329745.26644  20145239.5504   20145240.2244
  -9387484.44444  -7314916.75344  23193704.8614   23193707.1134
 -16850483.61444 -13130233.51044  22078076.3804   22078078.5344
  11252284.44444   8768013.83244  23301744.6554   23301746.6124
  -3156540.35844  -2459640.97444  23988709.2934   23988712.4124
 -21903418.57644 -17067587.09944  21054545.7464   21054547.6684
        -0.61554                  25534530.4564
  -8234833.26944  -6416749.12844  22530259.8594   22530260.0544
 95  4 12  4 31  0.0000000  0  8G 6G20G23G16G22G17G21G26
 -23507811.43944 -18317764.15944  20148165.4424   20148166.0104
  -9286369.32144  -7236125.74644  23212946.2244   23212947.4874
 -16927570.39644 -13190301.10644  22063407.6804   22063409.9154
  11346879.38544   8841724.17244  23319745.7764   23319746.5724
  -3207131.54644  -2499062.67244  23979080.4664   23979083.6574
 -21934701.97744 -17091963.75644  21048592.6254   21048594.4364
   -100624.11044    -78407.94544  25515384.8354   25515387.2364
  -8285089.57544  -6455909.86644  22520695.8964   22520697.4764
 95  4 12  4 31 30.0000000  0  8G 6G20G23G16G22G17G21G26
 -23491995.73944 -18305440.23244  20151175.1634   20151175.7354
  -9185207.25944  -7157298.15944  23232196.8144   23232198.8574
 -17004359.22444 -13250136.52244  22048795.8434   22048797.9244
  11441601.51644   8915533.64944  23337771.1534   23337772.4214
  -3257320.20844  -2538170.71844  23969529.2624   23969534.3704
 -21965824.49044 -17116215.04444  21042670.3234   21042672.0944
   -201204.32444   -156782.11344  25496244.0024   25496244.6774
  -8334959.27544  -6494769.33644  22511206.6604   22511207.3754
 95  4 12  4 32  0.0000000  0  8G 6G20G23G16G22G17G21G26
 -23475700.02644 -18292742.27144  20154276.0444   20154276.5774
  -9083953.68844  -7078399.28144  23251464.4934   23251466.8674
 -17080798.34044 -13309699.43744  22034249.3024   22034251.5444
  11536501.95344   8989482.02444  23355829.4194   23355832.2784
  -3307056.13344  -2576925.95444  23960065.6914   23960069.8664
 -21996746.53544 -17140310.12144  21036785.8224   21036787.7804
   -301715.82144   -235102.73744  25477117.5964   25477121.0384
  -8384393.67744  -6533289.62244  22501799.9524   22501800.4424
 95  4 12  4 32 30.0000000  0  8G 6G20G23G16G22G17G21G26
 -23458916.40544 -18279664.12544  20157469.8114   20157470.4634
  -8982608.51944  -6999429.01944  23270749.5664   23270751.5824
 -17156867.10644 -13368973.77444  22019773.5964   22019776.2584
  11631613.02744   9063594.55444  23373928.8934   23373930.3214
  -3356305.91644  -2615302.41044  23950693.3034   23950696.5364
 -22027444.27544 -17164230.41644  21030944.2564   21030946.2074
   -402159.17844   -313370.25144  25458004.0464   25458005.8444
  -8433383.19744  -6571463.25644  22492477.1234   22492477.1584
 95  4 12  4 33  0.0000000  0  8G 6G20G23G16G22G17G21G26
 -23441627.06044 -18266191.90544  20160759.8314   20160760.3824
  -8881151.52644  -6920371.61444  23290056.4004   23290058.5234
 -17232550.98944 -13427948.19744  22005371.7134   22005374.0734
  11726965.80044   9137895.42544  23392073.9494   23392075.2724
  -3405042.97744  -2653279.31644  23941418.4754   23941421.6864
 -22057891.65944 -17187955.63544  21025150.3954   21025152.1624
   -502528.12344   -391579.77744  25438902.3364   25438907.4664
  -8481912.51844  -6609278.28344  22483242.2394   22483242.4994
 95  4 12  4 33 30.0000000  0  8G 6G20G23G16G22G17G21G26
 -23423852.77644 -18252341.81644  20164142.2154   20164142.8504
  -8779581.62744  -6841226.22444  23309384.5804   23309386.9164
 -17307872.63844 -13486640.36744  21991038.6164   21991040.3324
  11822536.90644   9212366.43144  23410260.6714   23410262.1104
  -3453296.61944  -2690879.54344  23932235.9334   23932238.6554
 -22088104.99344 -17211498.48144  21019400.7414   21019402.7694
   -602831.45544   -469738.18944  25419814.6984   25419815.1064
  -8529997.20144  -6646746.82244  22474091.7454   22474091.9704
 95  4 12  4 34  0.0000000  0  8G 6G20G23G16G22G17G21G26
 -23405649.40444 -18238157.37444  20167606.2484   20167606.8694
  -8677940.22144  -6762025.13844  23328725.9694   23328728.1174
 -17382886.59044 -13545092.77144  21976764.0824   21976765.2754
  11918259.42844   9286955.39444  23428475.7164   23428477.8424
  -3501121.94744  -2728145.96044  23923136.4834   23923137.7074
 -22118130.39244 -17234894.88844  21013687.4044   21013689.3404
   -703095.63244   -547866.07744  25400734.2344   25400740.3074
  -8577679.29844  -6683901.67644  22465017.5414   22465018.1564
 95  4 12  4 34 30.0000000  0  8G 6G20G23G16G22G17G21G26
 -23386998.95044 -18223624.55844  20171155.2954   20171155.8304
  -8576215.77744  -6682759.34344  23348083.3804   23348085.6784
 -17457577.50144 -13603293.45144  21962550.7054   21962552.3534
  12014134.40744   9361663.17144  23446719.5034   23446721.7154
  -3548512.24044  -2765073.47944  23914119.0174   23914119.5764
 -22147942.89844 -17258125.40744  21008013.9594   21008016.0654
   -803291.56644   -625940.82844  25381665.5784
  -8624938.02644  -6720726.62844  22456025.3904   22456025.6614
 95  4 12  4 35  0.0000000  0  7G 6G20G23G16G22G17G26
 -23367867.09344 -18208716.62144  20174795.9024   20174796.5134
  -8474381.78744  -6603408.18444  23367462.2764   23367464.2084
 -17531944.46544 -13661241.70344  21948398.7344   21948400.1024
  12110170.38844   9436496.41944  23464995.6564   23464998.1694
  -3595447.75944  -2801646.61344  23905187.9484   23905189.5044
 -22177528.14144 -17281178.83144  21002384.1784   21002386.0984
  -8671741.45144  -6757196.81044  22447119.3184   22447119.8754
 95  4 12  4 35 30.0000000  0  7G 6G20G23G16G22G17G26
 -23348281.86544 -18193455.40544  20178522.7624   20178523.2604
  -8372477.70044  -6524002.39844  23386854.1494   23386856.5034
 -17606019.17544 -13718962.22844  21934303.0834   21934304.8794
  12206325.32644   9511422.34744  23483293.7834   23483295.4804
  -3641949.21944  -2837881.50044  23896339.0114   23896338.5874
 -22206918.64344 -17304080.51144  20996791.2914   20996793.2594
  -8718126.49144  -6793340.96244  22438292.3174   22438292.5754
 95  4 12  4 36  0.0000000  0  8G 6G20G23G16G22G17G21G26
 -23328178.14144 -18177790.16144  20182348.6344   20182349.1754
  -8270461.69044  -6444509.42844  23406266.9544   23406270.2014
 -17679729.70144 -13776398.96844  21920276.0254   21920278.5064
  12302652.75744   9586482.67744  23501623.2174   23501624.2894
  -3687948.04044  -2873724.76144  23887586.1124   23887587.1324
 -22236056.09144 -17326784.99344  20991246.7974   20991248.5444
         0.20754                  25324565.7434
  -8764037.52344  -6829115.76044  22429555.5964   22429556.0764
 95  4 12  4 36 30.0000000  0  8G 6G20G23G16G22G17G21G26
 -23307575.45744 -18161736.12444  20186269.0794   20186269.5814
  -8168363.50944  -6364952.39044  23425696.0994   23425698.2834
 -17753103.12444 -13833573.03244  21906313.7154   21906316.1674
  12399122.95544   9661654.27244  23519981.2434   23519982.1224
  -3733463.38544  -2909192.21744  23878924.8784   23878925.5934
 -22264984.58244 -17349326.64944  20985742.2134   20985743.5934
    -99845.19144    -77800.86444  25305569.7934   25305569.4434
  -8809512.61844  -6864550.87544  22420901.5834   22420902.3894
 95  4 12  4 37  0.0000000  0  8G 6G20G23G16G22G17G21G26
 -23286476.46444 -18145295.36044  20190284.1844   20190284.7644
  -8066186.56944  -6285334.01144  23445139.4924   23445140.7134
 -17826123.02644 -13890471.63444  21892418.2584   21892420.4024
  12495739.06144   9736939.54544  23538366.5734   23538366.8054
  -3778485.89344  -2944273.43944  23870357.1434   23870356.6724
 -22293710.52044 -17371710.47444  20980275.5444   20980277.3214
   -199619.71544   -155547.28644  25286585.0474   25286579.1774
  -8854552.18144  -6899646.61544  22412331.2484   22412331.5024
 95  4 12  4 37 30.0000000  0  8G 6G20G23G16G22G17G21G26
 -23264917.08644 -18128495.84344  20194386.7444   20194387.3064
  -7963958.04844  -6205675.40944  23464593.1914   23464594.4434
 -17898788.06144 -13947093.71644  21878590.7494   21878593.1534
  12592467.18944   9812312.11844  23556773.3904   23556775.2064
  -3823056.46344  -2979003.80144  23861877.0424   23861879.4394
 -22322269.95144 -17393964.55344  20974840.9394   20974842.6794
   -299352.07344   -233260.87244  25267607.6204   25267606.9084
  -8899179.85644  -6934421.39244  22403838.9604   22403839.6274
 95  4 12  4 38  0.0000000  0  8G 6G20G23G16G22G17G21G26
 -23242869.89544 -18111316.21744  20198582.1914   20198582.7974
  -7861636.43644  -6125944.29544  23484064.0874   23484065.5674
 -17971067.40944 -14003415.26644  21864836.4714   21864838.7104
  12689333.04544   9887791.98944  23575206.5424   23575206.8814
  -3867149.82744  -3013362.23044  23853484.5554   23853487.0644
 -22350649.89944 -17416078.78044  20969440.1164   20969441.9514
   -399015.20644   -310920.44644  25248641.8904   25248640.3204
  -8943362.53744  -6968849.43644  22395431.0604   22395431.6294
 95  4 12  4 38 30.0000000  0  8G 6G20G23G16G22G17G21G26
 -23220323.68744 -18093747.74644  20202872.6514   20202873.0574
  -7759200.42644  -6046124.02644  23503557.8254   23503560.5304
 -18042953.73944 -14059430.56844  21851157.2664   21851159.3584
  12786356.54644   9963394.72644  23593669.1454   23593670.2044
  -3910737.50044  -3047326.63144  23845189.5744   23845190.8874
 -22378840.78144 -17438045.68744  20964075.4674   20964077.3304
   -498592.52044   -388513.15044  25229693.1334   25229693.1214
  -8987077.94144  -7002913.36444  22387112.1404   22387112.7514
 95  4 12  4 39  0.0000000  0  8G 6G20G23G16G22G17G21G26
 -23197261.00744 -18075776.83544  20207261.1664   20207261.8004
  -7656632.53644  -5966200.98144  23523075.8504   23523078.7694
 -18114430.50844 -14115126.73244  21837555.2174   21837557.6154
  12883569.89244  10039145.40444  23612168.1374   23612169.0024
  -3953793.27544  -3080876.49744  23836994.9054   23836999.7904
 -22406815.32544 -17459844.02044  20958752.1384   20958754.0174
   -598062.17444   -466021.99444  25210763.9484   25210764.1294
  -9030298.41844  -7036591.63144  22378887.5884   22378888.1554
 95  4 12  4 39 30.0000000  0  8G 6G20G23G16G22G17G21G26
 -23173725.62944 -18057437.58644  20211740.1514   20211740.4744
  -7553991.08344  -5886220.63344  23542606.8774   23542609.6654
 -18185571.57144 -14170561.30644  21824017.5124   21824019.7434
  12980930.45644  10115010.76944  23630695.2864   23630697.1594
  -3996370.69644  -3114053.66944  23828892.7034   23828895.8404
 -22434624.60344 -17481513.58144  20953460.2224   20953462.2614
   -697462.25644   -543476.58744  25191847.5584   25191850.1874
  -9073076.80944  -7069925.42944  22370746.6654   22370747.6284
 95  4 12  4 40  0.0000000  0  8G 6G20G23G16G22G17G21G26
 -23149704.12544 -18038719.53244  20216311.1984   20216311.7484
  -7451283.15944  -5806188.49244  23562151.6704   23562154.0214
 -18256369.51644 -14225728.52244  21810545.4474   21810547.5944
  13078460.73844  10191008.37844  23649254.3224   23649255.5594
  -4038444.49844  -3146838.47644  23820887.2094   23820890.8564
 -22462242.10644 -17503033.70544  20948204.5574   20948206.5914
   -796768.11544                  25172944.3534
  -9115395.13644  -7102900.73144  22362694.0174   22362694.2044
 95  4 12  4 40 30.0000000  0  7G 6G20G23G16G22G17G26
 -23125208.46144 -18019632.00344  20220972.5954   20220973.0274
  -7348536.40444  -5726126.07844  23581703.5444   23581705.4384
 -18326820.14544 -14280625.09844  21797138.8804   21797140.6034
  13176159.69444  10267137.44044  23667846.3804   23667847.5194
  -4080023.88944  -3179238.01744  23812975.4614   23812978.5014
 -22489657.13744 -17524396.05944  20942987.6954   20942989.6734
  -9157237.89444  -7135505.45744  22354731.7514   22354731.7254
 95  4 12  4 41  0.0000000  0  7G 6G20G23G16G22G17G26
 -23100245.21744 -18000180.13244  20225722.6524   20225723.3764
  -7245764.63044  -5646044.18444  23601260.5274   23601262.3494
 -18396914.56344 -14335244.10544  21783800.3524   21783802.0244
  13273995.90044  10343373.45244  23686464.2354   23686465.9284
  -4121134.13044  -3211271.97444  23805152.0014   23805153.7454
 -22516863.58444 -17545595.88444  20937810.3694   20937812.2964
  -9198611.10144  -7167744.30144  22346858.4614   22346858.9374
 95  4 12  4 41 30.0000000  0  7G 6G20G23G16G22G17G26
 -23074813.78044 -17980363.43244  20230562.2594   20230562.6964
  -7142984.77344  -5565955.96444  23620819.1624   23620820.8004
 -18466648.09344 -14389581.90244  21770530.4424   21770532.1314
  13371939.85444  10419693.41044  23705102.2214   23705104.2854
  -4161790.30244  -3242952.08644  23797416.3804   23797417.8754
 -22543865.89344 -17566636.64044  20932672.3964   20932673.8294
  -9239520.36844  -7199621.64244  22339073.5464   22339074.0024
 95  4 12  4 42  0.0000000  0  8G 6G20G23G16G22G17G21G26
 -23048916.08344 -17960183.41744  20235490.4124   20235490.9824
  -7040192.13944  -5485857.80744  23640379.3714   23640382.3304
 -18536015.49144 -14443634.39544  21757330.0194   21757331.4624
  13469973.33044  10496083.12344  23723757.2884   23723758.4424
  -4201978.55744  -3274267.55744  23789767.3884   23789772.6334
 -22570664.07844 -17587518.33744  20927573.0024   20927574.4994
        -0.10854         0.00954  25097574.4944   25097576.3184
  -9279966.65344  -7231138.19344  22331376.5224   22331376.7974
 95  4 12  4 42 30.0000000  0  8G 6G20G23G16G22G17G21G26
 -23022516.47244 -17939612.29844  20240513.9264   20240514.4064
  -6937341.72744  -5405714.62644  23659951.0504   23659954.2734
 -18604993.77044 -14497383.67144  21744203.7834   21744205.4134
  13568121.53044  10572562.23244  23742434.5384   23742437.6404
  -4241669.80144  -3305195.78544  23782214.6264   23782216.5594
 -22597229.21044 -17608218.43644  20922517.7194   20922519.3204
    -98740.65844    -76940.71544  25078785.3534   25078785.1634
  -9319925.22644  -7262274.73844  22323773.1844   22323773.7714
 95  4 12  4 43  0.0000000  0  8G 6G20G23G16G22G17G21G26
 -22995612.21744 -17918647.95144  20245633.9734   20245634.3304
  -6834450.67344  -5325539.78444  23679530.4574   23679533.8744
 -18673612.19744 -14550852.54744  21731146.5384   21731148.2014
  13666373.91644  10649122.49444  23761131.0284   23761133.2294
  -4280872.18244  -3335743.01944  23774753.3504   23774758.3864
 -22623587.53944 -17628757.39044  20917501.8714   20917503.5184
   -197382.04844   -153804.17244  25060015.3824   25060012.0024
  -9359422.20544  -7293051.59944  22316257.4234   22316257.5234
 95  4 12  4 43 30.0000000  0  8G23G 6G20G16G22G17G21G26
 -18741868.39944 -14604039.16444  21718157.7634   21718159.6804
 -22968191.82644 -17897281.41544  20250851.8194   20250852.3764
  -6731513.83344  -5245329.24644  23699119.7764   23699121.7084
  13764774.56144  10725798.32844  23779856.8034   23779857.3884
  -4319565.34544  -3365893.49644  23767391.3184   23767394.6744
 -22649741.76844 -17649137.30244  20912524.8124   20912526.4304
   -295917.77244   -230585.27044  25041265.1784   25041261.9544
  -9398436.85644  -7323452.62144  22308833.0054   22308833.5034
 95  4 12  4 44  0.0000000  0  8G23G 6G20G16G22G17G21G26
 -18809770.85644 -14656950.13444  21705236.3514   21705238.1524
 -22940286.83644 -17875537.27744  20256161.9314   20256162.7504
  -6628543.55844  -5165092.65744  23718714.0714   23718716.3974
  13863317.02144  10802584.66644  23798608.3124   23798609.3904
  -4357766.13344  -3395660.32344  23760122.2364   23760123.8774
 -22675709.29944 -17669371.73144  20907583.3994   20907584.9774
   -394357.82844   -307291.86244  25022532.3894   25022527.0274
  -9436974.58744  -7353482.01144  22301499.0844   22301500.5014
 95  4 12  4 44 30.0000000  0  8G23G 6G20G16G22G17G21G26
 -18877311.71544 -14709579.34244  21692383.9404   21692385.6434
 -22911904.81244 -17853421.42144  20261562.8274   20261563.3324
  -6525551.37544  -5084839.03144  23738311.9304   23738315.2264
  13961999.00044  10879479.70344  23817386.7714   23817389.2564
  -4395495.53444  -3425059.83544  23752942.9884   23752945.5444
 -22701487.55544 -17689458.67344  20902678.0654   20902679.6934
   -492694.08344   -383917.52644  25003818.9664   25003813.3764
  -9475032.10544  -7383137.19744  22294257.3564   22294257.6544
 95  4 12  4 45  0.0000000  0  8G23G 6G20G16G22G17G21G26
 -18944469.32544 -14761909.90844  21679603.9184   21679606.0344
 -22883030.45744 -17830921.92844  20267057.4414   20267058.0514
  -6422519.17144  -5004554.17744  23757919.4684   23757921.7304
  14060835.67344  10956495.28044  23836195.0124   23836196.3784
  -4432730.41944  -3454074.01744  23745857.2844   23745858.8514
 -22727053.48244 -17709380.15844  20897812.7844   20897814.7614
   -590908.31344   -460448.13544  24985128.4404   24985126.2404
  -9512580.20744  -7412395.43944  22287112.4884   22287112.7684
 95  4 12  4 45 30.0000000  0  8G23G 6G20G16G22G17G21G26
 -19011273.28844 -14813964.90644  21666891.7624   21666893.8414
 -22853721.75844 -17808083.98944  20272634.6614   20272635.3194
  -6319470.52544  -4924256.53244  23777528.7824   23777531.9844
  14159777.40244  11033592.72544  23855023.5924   23855024.0414
  -4469514.36444  -3482736.83544  23738857.4664   23738859.8684
 -22752439.85144 -17729161.72744  20892982.1114   20892983.9704
   -689052.84144   -536924.41544  24966451.0174   24966450.2994
  -9549667.28744  -7441294.45244  22280055.3174   22280055.0114
